[[{"header":{"parameterUnit":"m.s-1","parameterCategory":1,"la1":31.0,"la2":29.5877,"lo1":-88.7671,"lo2":-86.6584,"dx":0.0162,"dy":0.0185,"nx":115,"ny":88,"refTime":"2022-12-07T18:00:00:Z","depth":0,"parameterNumber":2,"parameterNumberName":"U-component_of_WINDS"},"data":[0.0,0.0,0.0,0.0,0.0,0.0,0.0,0.0,0.0,0.0,0.0,0.0,0.0,0.0,0.0,0.0,0.0,0.0,0.0,0.0,0.0,0.0,0.0,0.0,0.0,0.0,0.0,0.0,0.0,0.0,0.0,0.0,0.0,0.0,0.0,0.0,0.0,0.0,0.0,0.0,0.0,0.0,0.0,0.0,0.0,0.0,0.0,0.0,0.0,0.0,0.0,0.0,0.0,0.0,0.0,0.0,0.0,0.0,0.0,0.0,0.0,0.0,0.0,0.0,0.0,0.0,0.0,0.0,0.0,0.0,0.0,0.0,0.0,0.0,0.0,0.0,0.0,0.0,0.0,0.0,0.0,0.0,0.0,0.0,0.0,0.0,0.0,0.0,0.0,0.0,0.0,0.0,0.0,0.0,0.0,0.0,0.0,0.0,0.0,0.0,0.0,0.0,0.0,0.0,0.0,0.0,0.0,0.0,0.0,0.0,0.0,0.0,0.0,0.0,0.0,0.0,0.0,0.0,0.0,0.0,0.0,0.0,0.0,0.0,0.0,0.0,0.0,0.0,0.0,0.0,0.0,0.0,0.0,0.0,0.0,0.0,0.0,0.0,0.0,0.0,0.0,0.0,0.0,0.0,0.0,0.0,0.0,0.0,0.0,0.0,0.0,0.0,0.0,0.0,0.0,0.0,0.0,0.0,0.0,0.0,0.0,0.0,0.0,0.0,0.0,0.0,0.0,0.0,0.0,0.0,0.0,0.0,0.0,0.0,0.0,0.0,0.0,0.0,0.0,0.0,0.0,0.0,0.0,0.0,0.0,0.0,0.0,0.0,0.0,0.0,0.0,0.0,0.0,0.0,0.0,0.0,0.0,0.0,0.0,0.0,0.0,0.0,0.0,0.0,0.0,0.0,0.0,0.0,0.0,0.0,0.0,0.0,0.0,0.0,0.0,0.0,0.0,0.0,0.0,0.0,0.0,0.0,0.0,0.0,0.0,0.0,0.0,0.0,0.0,0.0,0.0,0.0,0.0,0.0,0.0,0.0,0.0,0.0,0.0,0.0,0.0,0.0,0.0,0.0,0.0,0.0,0.0,0.0,0.0,0.0,0.0,0.0,0.0,0.0,0.0,0.0,0.0,0.0,0.0,0.0,0.0,0.0,0.0,0.0,0.0,0.0,0.0,0.0,0.0,0.0,0.0,0.0,0.0,0.0,0.0,0.0,0.0,0.0,0.0,0.0,0.0,0.0,0.0,0.0,0.0,0.0,0.0,0.0,0.0,0.0,0.0,0.0,0.0,0.0,0.0,0.0,0.0,0.0,0.0,0.0,0.0,0.0,0.0,0.0,0.0,0.0,0.0,0.0,0.0,0.0,0.0,0.0,0.0,0.0,0.0,0.0,0.0,0.0,0.0,0.0,0.0,0.0,0.0,0.0,0.0,0.0,0.0,0.0,0.0,0.0,0.0,0.0,0.0,0.0,0.0,0.0,0.0,0.0,0.0,0.0,0.0,0.0,0.0,0.0,0.0,0.0,0.0,0.0,0.0,0.0,0.0,0.0,0.0,0.0,0.0,0.0,0.0,0.0,0.0,0.0,0.0,0.0,0.0,0.0,0.0,0.0,0.0,0.0,0.0,0.0,0.0,0.0,0.0,0.0,0.0,0.0,0.0,0.0,0.0,0.0,0.0,0.0,0.0,0.0,0.0,0.0,0.0,0.0,0.0,0.0,0.0,0.0,0.0,0.0,0.0,0.0,0.0,0.0,0.0,0.0,0.0,0.0,0.0,0.0,0.0,0.0,0.0,0.0,0.0,0.0,0.0,0.0,0.0,0.0,0.0,0.0,0.0,0.0,0.0,0.0,0.0,0.0,0.0,0.0,0.0,0.0,0.0,0.0,0.0,0.0,0.0,0.0,0.0,0.0,0.0,0.0,0.0,0.0,0.0,0.0,0.0,0.0,0.0,0.0,0.0,0.0,0.0,0.0,0.0,0.0,0.0,0.0,0.0,0.0,0.0,0.0,0.0,0.0,0.0,0.0,0.0,0.0,0.0,0.0,0.0,0.0,0.0,0.0,0.0,0.0,0.0,0.0,0.0,0.0,0.0,0.0,0.0,0.0,0.0,0.0,0.0,0.0,0.0,0.0,0.0,0.0,0.0,0.0,0.0,0.0,0.0,0.0,0.0,0.0,0.0,0.0,0.0,0.0,0.0,0.0,0.0,0.0,0.0,0.0,0.0,0.0,0.0,0.0,0.0,0.0,0.0,0.0,0.0,0.0,0.0,0.0,0.0,0.0,0.0,0.0,0.0,0.0,0.0,0.0,0.0,0.0,0.0,0.0,0.0,0.0,0.0,0.0,0.0,0.0,0.0,0.0,0.0,0.0,0.0,0.0,0.0,0.0,0.0,0.0,0.0,0.0,0.0,0.0,0.0,0.0,0.0,0.0,0.0,0.0,0.0,0.0,0.0,0.0,0.0,0.0,0.0,0.0,0.0,0.0,0.0,0.0,0.0,0.0,0.0,0.0,0.0,0.0,0.0,0.0,0.0,0.0,0.0,0.0,0.0,0.0,0.0,0.0,0.0,0.0,0.0,0.0,0.0,0.0,0.0,0.0,0.0,0.0,0.0,0.0,0.0,0.0,0.0,0.0,0.0,0.0,0.0,0.0,0.0,0.0,0.0,0.0,0.0,0.0,0.0,0.0,0.0,0.0,0.0,0.0,0.0,0.0,0.0,0.0,0.0,0.0,0.0,0.0,0.0,0.0,0.0,0.0,0.0,0.0,0.0,0.0,0.0,0.0,0.0,0.0,0.0,0.0,0.0,0.0,0.0,0.0,0.0,0.0,0.0,0.0,0.0,0.0,0.0,0.0,0.0,0.0,0.0,0.0,0.0,0.0,0.0,0.0,0.0,0.0,0.0,0.0,0.0,0.0,0.0,0.0,0.0,0.0,0.0,0.0,0.0,0.0,0.0,0.0,0.0,0.0,0.0,0.0,0.0,0.0,0.0,0.0,0.0,0.0,0.0,0.0,0.0,0.0,0.0,0.0,0.0,0.0,0.0,0.0,0.0,0.0,0.0,0.0,0.0,0.0,0.0,0.0,0.0,0.0,0.0,0.0,0.0,0.0,0.0,0.0,0.0,0.0,0.0,0.0,0.0,0.0,0.0,0.0,0.0,0.0,0.0,0.0,0.0,0.0,0.0,0.0,0.0,0.0,0.0,0.0,0.0,0.0,0.0,0.0,0.0,0.0,0.0,0.0,0.0,0.0,0.0,0.0,0.0,0.0,0.0,0.0,0.0,0.0,0.0,0.0,0.0,0.0,0.0,0.0,0.0,0.0,0.0,0.0,0.0,0.0,0.0,0.0,0.0,0.0,0.0,0.0,0.0,0.0,0.0,0.0,0.0,0.0,0.0,0.0,0.0,0.0,0.0,0.0,0.0,0.0,0.0,0.0,0.0,0.0,0.0,0.0,0.0,0.0,0.0,0.0,0.0,0.0,0.0,0.0,0.0,0.0,0.0,0.0,0.0,0.0,0.0,0.0,0.0,0.0,0.0,0.0,0.0,0.0,0.0,0.0,0.0,0.0,0.0,0.0,0.0,0.0,0.0,0.0,0.0,0.0,0.0,0.0,0.0,0.0,0.0,0.0,0.0,0.0,0.0,0.0,0.0,0.0,0.0,0.0,0.0,0.0,0.0,0.0,0.0,0.0,0.0,0.0,0.0,0.0,0.0,0.0,0.0,0.0,0.0,0.0,0.0,0.0,0.0,0.0,0.0,0.0,0.0,0.0,0.0,0.0,0.0,0.0,0.0,0.0,0.0,0.0,0.0,0.0,0.0,0.0,0.0,0.0,0.0,0.0,0.0,0.0,0.0,0.0,0.0,0.0,0.0,0.0,0.0,0.0,0.0,0.0,0.0,0.0,0.0,0.0,0.0,0.0,0.0,0.0,0.0,0.0,0.0,0.0,0.0,0.0,0.0,0.0,0.0,0.0,0.0,0.0,0.0,0.0,0.0,0.0,0.0,0.0,0.0,0.0,0.0,0.0,0.0,0.0,0.0,0.0,0.0,0.0,0.0,0.0,0.0,0.0,0.0,0.0,0.0,0.0,0.0,0.0,0.0,0.0,0.0,0.0,0.0,0.0,0.0,0.0,0.0,0.0,0.0,0.0,0.0,0.0,0.0,0.0,0.0,0.0,0.0,0.0,0.0,0.0,0.0,0.0,0.0,0.0,0.0,0.0,0.0,0.0,0.0,0.0,-1.3453,0.0,0.0,0.0,-1.1675,0.0,0.0,0.0,0.0,0.0,0.0,0.0,0.0,0.0,0.0,0.0,0.0,0.0,0.0,0.0,0.0,0.0,0.0,0.0,0.0,0.0,0.0,0.0,0.0,0.0,0.0,0.0,0.0,0.0,0.0,0.0,0.0,0.0,0.0,0.0,0.0,0.0,0.0,0.0,0.0,0.0,0.0,0.0,0.0,0.0,0.0,0.0,0.0,0.0,0.0,0.0,0.0,0.0,0.0,0.0,0.0,0.0,0.0,0.0,0.0,0.0,0.0,0.0,0.0,0.0,0.0,0.0,0.0,0.0,0.0,0.0,0.0,0.0,0.0,0.0,0.0,0.0,0.0,0.0,0.0,0.0,0.0,0.0,0.0,0.0,0.0,0.0,0.0,0.0,0.0,0.0,0.0,0.0,0.0,0.0,0.0,0.0,0.0,0.0,0.0,0.0,0.0,0.0,0.0,0.0,0.0,0.0,0.0,0.0,0.0,-1.3107,-1.2908,-1.2189,-1.1686,-1.1508,0.0,0.0,0.0,0.0,0.0,0.0,0.0,0.0,0.0,0.0,0.0,0.0,0.0,0.0,0.0,0.0,0.0,0.0,0.0,0.0,0.0,0.0,0.0,0.0,0.0,0.0,0.0,0.0,0.0,0.0,0.0,0.0,0.0,0.0,0.0,0.0,0.0,0.0,0.0,0.0,0.0,0.0,0.0,0.0,0.0,0.0,0.0,0.0,0.0,0.0,0.0,0.0,0.0,0.0,0.0,0.0,0.0,0.0,0.0,0.0,0.0,0.0,0.0,0.0,0.0,0.0,0.0,0.0,0.0,0.0,0.0,0.0,0.0,0.0,0.0,0.0,0.0,0.0,0.0,0.0,0.0,0.0,0.0,0.0,0.0,0.0,0.0,0.0,0.0,0.0,0.0,0.0,0.0,0.0,0.0,0.0,0.0,0.0,0.0,0.0,0.0,0.0,0.0,0.0,0.0,0.0,0.0,0.0,0.0,0.0,0.0,0.0,-1.1785,-1.1314,-1.1228,0.0,0.0,0.0,0.0,0.0,0.0,0.0,0.0,0.0,0.0,0.0,0.0,0.0,0.0,0.0,0.0,0.0,0.0,0.0,0.0,0.0,0.0,0.0,0.0,0.0,0.0,0.0,0.0,0.0,0.0,0.0,0.0,0.0,0.0,0.0,0.0,0.0,0.0,0.0,0.0,0.0,0.0,0.0,0.0,0.0,0.0,0.0,0.0,0.0,0.0,0.0,0.0,0.0,0.0,0.0,0.0,0.0,0.0,0.0,0.0,0.0,0.0,0.0,0.0,0.0,0.0,0.0,0.0,0.0,0.0,0.0,0.0,0.0,0.0,0.0,0.0,0.0,0.0,0.0,0.0,0.0,0.0,0.0,0.0,0.0,0.0,0.0,0.0,0.0,0.0,0.0,0.0,0.0,0.0,0.0,0.0,0.0,0.0,0.0,0.0,0.0,0.0,0.0,0.0,0.0,0.0,0.0,0.0,0.0,0.0,-1.2108,-1.1737,-1.124,0.0,-1.0449,0.0,0.0,0.0,0.0,0.0,0.0,0.0,0.0,0.0,0.0,0.0,0.0,0.0,0.0,0.0,0.0,0.0,0.0,0.0,0.0,0.0,0.0,0.0,0.0,0.0,0.0,0.0,0.0,0.0,0.0,0.0,0.0,0.0,0.0,0.0,0.0,0.0,0.0,0.0,0.0,0.0,0.0,0.0,0.0,0.0,0.0,0.0,0.0,0.0,0.0,0.0,0.0,0.0,0.0,0.0,0.0,0.0,0.0,0.0,0.0,0.0,0.0,0.0,0.0,0.0,0.0,0.0,0.0,0.0,0.0,0.0,0.0,0.0,0.0,0.0,0.0,0.0,0.0,0.0,0.0,0.0,0.0,0.0,0.0,0.0,0.0,0.0,0.0,0.0,0.0,0.0,0.0,0.0,0.0,0.0,0.0,0.0,0.0,0.0,0.0,0.0,0.0,0.0,0.0,0.0,0.0,0.0,0.0,0.0,0.0,-1.2125,-1.1953,-1.1523,-1.1115,0.0,0.0,0.0,0.0,0.0,0.0,0.0,0.0,0.0,0.0,0.0,0.0,0.0,0.0,0.0,0.0,0.0,0.0,0.0,0.0,0.0,0.0,0.0,0.0,0.0,0.0,0.0,0.0,0.0,0.0,0.0,0.0,0.0,0.0,0.0,0.0,0.0,0.0,0.0,0.0,0.0,0.0,0.0,0.0,0.0,0.0,0.0,0.0,0.0,0.0,0.0,0.0,0.0,0.0,0.0,0.0,0.0,0.0,0.0,0.0,0.0,0.0,0.0,0.0,0.0,0.0,0.0,0.0,0.0,0.0,0.0,0.0,0.0,0.0,0.0,0.0,0.0,0.0,0.0,0.0,0.0,0.0,0.0,0.0,0.0,0.0,0.0,0.0,0.0,0.0,0.0,0.0,0.0,0.0,0.0,0.0,0.0,0.0,0.0,0.0,0.0,0.0,0.0,0.0,0.0,0.0,0.0,0.0,0.0,0.0,-1.2203,-1.2145,-1.2051,-1.1741,-1.1369,-1.0918,0.0,0.0,0.0,0.0,0.0,0.0,0.0,0.0,0.0,0.0,0.0,0.0,0.0,0.0,0.0,0.0,0.0,0.0,0.0,0.0,0.0,0.0,0.0,0.0,0.0,0.0,0.0,0.0,0.0,0.0,0.0,0.0,0.0,0.0,0.0,0.0,0.0,0.0,0.0,0.0,0.0,0.0,0.0,0.0,0.0,0.0,0.0,0.0,0.0,0.0,0.0,0.0,0.0,0.0,0.0,0.0,0.0,0.0,0.0,0.0,0.0,0.0,0.0,0.0,0.0,0.0,0.0,0.0,0.0,0.0,0.0,0.0,0.0,0.0,0.0,0.0,0.0,0.0,0.0,0.0,0.0,0.0,0.0,0.0,0.0,0.0,0.0,0.0,0.0,0.0,0.0,0.0,0.0,0.0,0.0,0.0,0.0,0.0,0.0,0.0,0.0,0.0,0.0,0.0,0.0,0.0,0.0,0.0,-1.2223,-1.22,-1.2031,-1.1685,-1.1604,-1.1369,0.0,0.0,0.0,0.0,0.0,0.0,0.0,0.0,0.0,0.0,0.0,0.0,0.0,0.0,0.0,0.0,0.0,0.0,0.0,0.0,0.0,0.0,0.0,0.0,0.0,0.0,0.0,0.0,0.0,0.0,0.0,0.0,0.0,0.0,0.0,0.0,0.0,0.0,0.0,0.0,0.0,0.0,0.0,0.0,0.0,0.0,0.0,0.0,0.0,0.0,0.0,0.0,0.0,0.0,0.0,0.0,0.0,0.0,0.0,0.0,0.0,0.0,0.0,0.0,0.0,0.0,0.0,0.0,0.0,0.0,0.0,0.0,0.0,0.0,0.0,0.0,0.0,0.0,0.0,0.0,0.0,0.0,0.0,0.0,0.0,0.0,0.0,0.0,0.0,0.0,0.0,0.0,0.0,0.0,0.0,0.0,0.0,0.0,0.0,0.0,0.0,0.0,0.0,0.0,0.0,0.0,0.0,0.0,0.0,-1.2637,-1.2656,-1.2578,-1.2426,-1.2426,-1.2207,0.0,0.0,0.0,0.0,0.0,0.0,0.0,0.0,0.0,0.0,0.0,0.0,0.0,0.0,0.0,0.0,0.0,0.0,0.0,0.0,0.0,0.0,0.0,0.0,0.0,0.0,0.0,0.0,0.0,0.0,0.0,0.0,0.0,0.0,0.0,0.0,0.0,0.0,0.0,0.0,0.0,0.0,0.0,0.0,0.0,0.0,0.0,0.0,0.0,0.0,0.0,0.0,0.0,0.0,0.0,0.0,0.0,0.0,0.0,0.0,0.0,0.0,0.0,0.0,0.0,0.0,0.0,0.0,0.0,0.0,0.0,0.0,0.0,0.0,0.0,0.0,0.0,0.0,0.0,0.0,0.0,0.0,0.0,0.0,0.0,0.0,0.0,0.0,0.0,0.0,0.0,0.0,0.0,0.0,0.0,0.0,0.0,0.0,0.0,0.0,0.0,0.0,0.0,0.0,0.0,0.0,0.0,0.0,0.0,-1.2895,-1.2915,-1.2915,-1.2915,-1.2915,-1.2676,0.0,0.0,0.0,0.0,0.0,0.0,0.0,0.0,0.0,0.0,0.0,0.0,0.0,0.0,0.0,0.0,0.0,0.0,0.0,0.0,0.0,0.0,0.0,0.0,0.0,0.0,0.0,0.0,0.0,0.0,0.0,0.0,0.0,0.0,0.0,0.0,0.0,0.0,0.0,0.0,0.0,0.0,0.0,0.0,0.0,0.0,0.0,0.0,0.0,0.0,0.0,0.0,0.0,0.0,0.0,0.0,0.0,0.0,0.0,0.0,0.0,0.0,0.0,0.0,0.0,0.0,0.0,0.0,0.0,0.0,0.0,0.0,0.0,0.0,0.0,0.0,0.0,0.0,0.0,0.0,0.0,0.0,0.0,0.0,0.0,0.0,0.0,0.0,0.0,0.0,0.0,0.0,0.0,0.0,0.0,0.0,0.0,0.0,0.0,0.0,0.0,0.0,0.0,0.0,0.0,0.0,0.0,0.0,-1.2895,-1.2915,-1.2915,-1.2915,-1.2915,-1.2915,-1.2676,0.0,0.0,0.0,0.0,0.0,0.0,0.0,0.0,0.0,0.0,0.0,0.0,0.0,0.0,0.0,0.0,0.0,0.0,0.0,0.0,0.0,0.0,0.0,0.0,0.0,0.0,0.0,0.0,0.0,0.0,0.0,0.0,0.0,0.0,0.0,0.0,0.0,0.0,0.0,0.0,0.0,0.0,0.0,0.0,0.0,0.0,0.0,0.0,0.0,0.0,0.0,0.0,0.0,0.0,0.0,0.0,0.0,0.0,0.0,0.0,0.0,0.0,0.0,0.0,0.0,0.0,0.0,0.0,0.0,0.0,0.0,0.0,0.0,0.0,0.0,0.0,0.0,0.0,0.0,0.0,0.0,0.0,0.0,0.0,0.0,0.0,0.0,0.0,0.0,0.0,0.0,0.0,0.0,0.0,0.0,0.0,0.0,0.0,0.0,0.0,0.0,0.0,0.0,0.0,0.0,0.0,0.0,0.0,0.0,-1.2915,-1.2915,-1.2915,-1.2915,-1.2915,-1.2812,0.0,0.0,0.0,0.0,0.0,0.0,0.0,0.0,0.0,0.0,0.0,0.0,0.0,0.0,0.0,0.0,0.0,0.0,0.0,0.0,0.0,0.0,0.0,0.0,0.0,0.0,0.0,0.0,0.0,0.0,0.0,0.0,0.0,0.0,0.0,0.0,0.0,0.0,0.0,0.0,0.0,0.0,0.0,0.0,0.0,0.0,0.0,0.0,0.0,0.0,0.0,0.0,0.0,0.0,0.0,0.0,0.0,0.0,0.0,0.0,0.0,0.0,0.0,0.0,0.0,0.0,0.0,0.0,0.0,0.0,0.0,0.0,0.0,0.0,0.0,0.0,0.0,0.0,0.0,0.0,0.0,0.0,0.0,0.0,0.0,0.0,0.0,0.0,0.0,0.0,0.0,0.0,0.0,0.0,0.0,0.0,0.0,0.0,0.0,0.0,0.0,0.0,0.0,0.0,0.0,0.0,0.0,0.0,0.0,-1.3619,-1.375,-1.3828,-1.3828,-1.3828,-1.3541,-1.2935,0.0,0.0,0.0,0.0,0.0,0.0,0.0,0.0,0.0,0.0,0.0,0.0,0.0,0.0,0.0,0.0,0.0,0.0,0.0,0.0,0.0,0.0,0.0,0.0,0.0,0.0,0.0,0.0,0.0,0.0,0.0,0.0,0.0,0.0,0.0,0.0,0.0,0.0,0.0,0.0,0.0,0.0,0.0,0.0,0.0,0.0,0.0,0.0,0.0,0.0,0.0,0.0,0.0,0.0,0.0,0.0,0.0,0.0,0.0,0.0,0.0,0.0,0.0,0.0,0.0,0.0,0.0,0.0,0.0,0.0,0.0,0.0,0.0,0.0,0.0,0.0,0.0,0.0,0.0,0.0,0.0,0.0,0.0,0.0,0.0,0.0,0.0,0.0,0.0,0.0,0.0,0.0,0.0,0.0,0.0,0.0,0.0,0.0,0.0,0.0,0.0,0.0,0.0,0.0,0.0,0.0,0.0,0.0,-1.4961,-1.5449,-1.5644,-1.5469,-1.541,-1.4621,0.0,0.0,0.0,0.0,0.0,0.0,0.0,0.0,0.0,0.0,0.0,0.0,0.0,0.0,0.0,0.0,0.0,0.0,0.0,0.0,0.0,0.0,0.0,0.0,0.0,0.0,0.0,0.0,0.0,0.0,0.0,0.0,0.0,0.0,0.0,0.0,0.0,0.0,0.0,0.0,0.0,0.0,0.0,0.0,0.0,0.0,0.0,0.0,0.0,0.0,0.0,0.0,0.0,0.0,0.0,0.0,0.0,0.0,0.0,0.0,0.0,0.0,0.0,0.0,0.0,0.0,0.0,0.0,0.0,0.0,0.0,0.0,0.0,0.0,0.0,0.0,0.0,0.0,0.0,0.0,0.0,0.0,0.0,0.0,0.0,0.0,0.0,0.0,0.0,0.0,0.0,0.0,0.0,0.0,0.0,0.0,0.0,0.0,0.0,0.0,0.0,0.0,0.0,0.0,0.0,0.0,0.0,0.0,0.0,-1.7148,-1.8496,-1.832,-1.6434,-1.5712,-1.5059,0.0,0.0,0.0,0.0,0.0,0.0,0.0,0.0,0.0,0.0,0.0,0.0,0.0,0.0,0.0,0.0,0.0,0.0,0.0,0.0,0.0,0.0,0.0,0.0,0.0,0.0,0.0,0.0,0.0,0.0,0.0,0.0,0.0,0.0,0.0,0.0,0.0,0.0,0.0,0.0,0.0,0.0,0.0,0.0,0.0,0.0,0.0,0.0,0.0,0.0,0.0,0.0,0.0,0.0,0.0,0.0,0.0,0.0,0.0,0.0,0.0,0.0,0.0,0.0,0.0,0.0,0.0,0.0,0.0,0.0,0.0,0.0,0.0,0.0,0.0,0.0,0.0,0.0,0.0,0.0,0.0,0.0,0.0,0.0,0.0,0.0,0.0,0.0,0.0,0.0,0.0,0.0,0.0,0.0,0.0,0.0,0.0,0.0,0.0,0.0,0.0,0.0,0.0,0.0,0.0,0.0,0.0,0.0,-1.6992,-1.8008,-2.0215,-2.0586,-1.8945,-1.7344,-1.5957,0.0,0.0,0.0,0.0,0.0,0.0,0.0,0.0,0.0,0.0,0.0,0.0,0.0,0.0,0.0,0.0,0.0,0.0,0.0,0.0,0.0,0.0,0.0,0.0,0.0,0.0,0.0,0.0,0.0,0.0,0.0,0.0,0.0,0.0,0.0,0.0,0.0,0.0,0.0,0.0,0.0,0.0,0.0,0.0,0.0,0.0,0.0,0.0,0.0,0.0,0.0,0.0,0.0,0.0,0.0,0.0,0.0,0.0,0.0,0.0,0.0,0.0,0.0,0.0,0.0,0.0,0.0,0.0,0.0,0.0,0.0,0.0,0.0,0.0,0.0,0.0,0.0,0.0,0.0,0.0,0.0,0.0,0.0,0.0,0.0,0.0,0.0,0.0,0.0,0.0,0.0,0.0,0.0,0.0,0.0,0.0,0.0,0.0,0.0,0.0,0.0,0.0,0.0,0.0,0.0,0.0,0.0,0.0,-1.8144,-1.8301,-2.1094,-2.2383,-2.1894,-1.9394,-1.709,0.0,0.0,0.0,0.0,0.0,0.0,0.0,0.0,0.0,0.0,0.0,0.0,0.0,0.0,0.0,0.0,0.0,0.0,0.0,0.0,0.0,0.0,0.0,0.0,0.0,0.0,0.0,0.0,0.0,0.0,0.0,0.0,0.0,0.0,0.0,0.0,0.0,0.0,0.0,0.0,0.0,0.0,0.0,0.0,0.0,0.0,0.0,0.0,0.0,0.0,0.0,0.0,0.0,0.0,0.0,0.0,0.0,0.0,0.0,0.0,0.0,0.0,0.0,0.0,0.0,0.0,0.0,0.0,0.0,0.0,0.0,0.0,0.0,0.0,0.0,0.0,0.0,0.0,0.0,0.0,0.0,0.0,0.0,0.0,0.0,0.0,0.0,0.0,0.0,0.0,0.0,0.0,0.0,0.0,0.0,0.0,0.0,0.0,0.0,0.0,0.0,0.0,0.0,0.0,0.0,0.0,0.0,0.0,-1.9004,-2.0057,-2.1973,-2.2769,-2.2363,-1.9551,-1.757,0.0,0.0,0.0,0.0,0.0,0.0,0.0,0.0,0.0,0.0,0.0,0.0,0.0,0.0,0.0,0.0,0.0,0.0,0.0,0.0,0.0,0.0,0.0,0.0,0.0,0.0,0.0,0.0,0.0,0.0,0.0,0.0,0.0,0.0,0.0,0.0,0.0,0.0,0.0,0.0,0.0,0.0,0.0,0.0,0.0,0.0,0.0,0.0,-0.9641,0.0,0.0,0.0,0.0,0.0,0.0,0.0,0.0,0.0,0.0,0.0,0.0,0.0,0.0,0.0,0.0,0.0,0.0,0.0,0.0,0.0,0.0,0.0,0.0,0.0,0.0,0.0,0.0,0.0,0.0,0.0,0.0,0.0,0.0,0.0,0.0,0.0,0.0,0.0,0.0,0.0,0.0,0.0,0.0,0.0,0.0,0.0,0.0,0.0,0.0,0.0,0.0,0.0,0.0,0.0,0.0,0.0,0.0,0.0,-1.9668,-2.1212,-2.2418,-2.2984,-2.2734,-2.0469,-1.8633,0.0,0.0,0.0,0.0,0.0,0.0,0.0,0.0,0.0,0.0,0.0,0.0,0.0,0.0,0.0,0.0,0.0,0.0,0.0,0.0,0.0,0.0,0.0,0.0,0.0,0.0,0.0,0.0,0.0,0.0,0.0,0.0,0.0,0.0,0.0,0.0,0.0,0.0,0.0,0.0,0.0,0.0,0.0,0.0,0.0,0.0,0.0,0.0,0.0,0.0,0.0,0.0,0.0,0.0,0.0,0.0,0.0,0.0,0.0,0.0,0.0,0.0,0.0,0.0,0.0,0.0,0.0,0.0,0.0,0.0,0.0,0.0,0.0,0.0,0.0,0.0,0.0,0.0,0.0,0.0,0.0,0.0,0.0,0.0,0.0,0.0,0.0,0.0,0.0,0.0,0.0,0.0,0.0,0.0,0.0,0.0,0.0,0.0,0.0,0.0,0.0,0.0,0.0,0.0,0.0,0.0,0.0,-1.8613,-2.0332,-2.2207,-2.2969,-2.3257,-2.3179,-2.1641,-1.9727,-1.7525,0.0,0.0,0.0,0.0,0.0,0.0,0.0,0.0,0.0,0.0,0.0,0.0,0.0,0.0,0.0,0.0,0.0,0.0,0.0,0.0,0.0,0.0,0.0,0.0,0.0,0.0,0.0,0.0,0.0,0.0,0.0,0.0,0.0,0.0,0.0,0.0,0.0,0.0,-0.7933,-0.823,0.0,0.0,0.0,0.0,0.0,0.0,0.0,0.0,-0.9237,0.0,0.0,0.0,0.0,0.0,0.0,0.0,0.0,0.0,0.0,0.0,0.0,0.0,0.0,0.0,0.0,0.0,0.0,0.0,0.0,0.0,0.0,0.0,0.0,0.0,0.0,0.0,0.0,0.0,0.0,0.0,0.0,0.0,0.0,0.0,0.0,0.0,0.0,0.0,0.0,0.0,0.0,0.0,0.0,0.0,0.0,0.0,0.0,0.0,0.0,0.0,0.0,0.0,0.0,0.0,0.0,-1.8809,-1.9492,-2.1172,-2.3906,-2.4141,-2.4043,-2.3672,-2.2383,-2.045,-1.7837,0.0,0.0,0.0,0.0,0.0,0.0,0.0,0.0,0.0,0.0,0.0,0.0,0.0,0.0,0.0,0.0,0.0,0.0,0.0,0.0,0.0,0.0,0.0,0.0,0.0,0.0,0.0,0.0,0.0,0.0,0.0,0.0,0.0,0.0,0.0,0.0,0.0,0.0,0.0,-0.923,-0.9036,0.0,0.0,0.0,0.0,0.0,0.0,0.0,0.0,-1.0052,0.0,0.0,0.0,0.0,0.0,0.0,0.0,0.0,0.0,0.0,0.0,0.0,0.0,0.0,0.0,0.0,0.0,0.0,0.0,0.0,0.0,0.0,0.0,0.0,0.0,0.0,0.0,0.0,0.0,0.0,0.0,0.0,0.0,0.0,0.0,0.0,0.0,0.0,0.0,0.0,0.0,0.0,0.0,0.0,0.0,0.0,0.0,0.0,0.0,0.0,0.0,0.0,0.0,0.0,0.0,-1.9512,-2.0703,-2.2402,-2.4648,-2.4531,-2.4336,-2.4102,-2.2676,-2.0839,0.0,0.0,0.0,0.0,0.0,0.0,0.0,0.0,0.0,0.0,0.0,0.0,0.0,0.0,0.0,0.0,0.0,0.0,0.0,0.0,0.0,0.0,0.0,0.0,0.0,0.0,0.0,0.0,0.0,0.0,0.0,0.0,0.0,0.0,0.0,0.0,0.0,0.0,0.0,0.0,-0.9879,-0.9936,-1.1145,0.0,0.0,0.0,0.0,0.0,0.0,-1.0081,-0.9598,0.0,0.0,0.0,0.0,0.0,0.0,0.0,0.0,0.0,0.0,0.0,0.0,0.0,0.0,0.0,0.0,0.0,0.0,0.0,0.0,0.0,0.0,0.0,0.0,0.0,0.0,0.0,0.0,0.0,0.0,0.0,0.0,0.0,0.0,0.0,0.0,0.0,0.0,0.0,0.0,0.0,0.0,0.0,0.0,0.0,0.0,0.0,0.0,0.0,0.0,0.0,0.0,0.0,0.0,0.0,-2.0019,-2.1836,-2.3555,-2.5098,-2.4863,-2.4648,-2.4512,-2.2734,-2.0897,0.0,0.0,0.0,0.0,0.0,0.0,0.0,0.0,0.0,0.0,0.0,0.0,0.0,0.0,0.0,0.0,0.0,0.0,0.0,0.0,0.0,0.0,0.0,0.0,0.0,0.0,0.0,0.0,0.0,0.0,0.0,0.0,0.0,0.0,0.0,0.0,0.0,0.0,0.0,0.0,0.0,-1.0625,-1.1996,-1.1393,0.0,0.0,0.0,0.0,-1.0432,-1.0195,0.0,0.0,0.0,0.0,0.0,0.0,0.0,0.0,0.0,0.0,0.0,0.0,0.0,0.0,0.0,0.0,0.0,0.0,0.0,0.0,0.0,0.0,0.0,0.0,0.0,0.0,0.0,0.0,0.0,0.0,0.0,0.0,0.0,0.0,0.0,0.0,0.0,0.0,0.0,0.0,0.0,0.0,0.0,0.0,0.0,0.0,0.0,0.0,0.0,0.0,0.0,0.0,0.0,0.0,0.0,0.0,-2.0507,-2.2578,-2.4297,-2.5538,-2.5557,-2.5391,-2.498,-2.2598,-2.0566,0.0,0.0,0.0,0.0,0.0,0.0,0.0,0.0,0.0,0.0,0.0,0.0,0.0,0.0,0.0,0.0,0.0,0.0,0.0,0.0,0.0,0.0,0.0,0.0,0.0,0.0,0.0,0.0,0.0,0.0,0.0,0.0,0.0,0.0,0.0,0.0,0.0,0.0,0.0,0.0,0.0,-1.035,-1.235,-1.1228,-1.0432,0.0,0.0,-1.2211,-1.2504,-1.3179,0.0,0.0,0.0,0.0,0.0,0.0,0.0,0.0,0.0,0.0,0.0,0.0,0.0,0.0,0.0,0.0,0.0,0.0,0.0,0.0,0.0,0.0,0.0,0.0,0.0,0.0,0.0,0.0,0.0,0.0,0.0,0.0,0.0,0.0,0.0,0.0,0.0,0.0,0.0,0.0,0.0,0.0,0.0,0.0,0.0,0.0,0.0,0.0,0.0,0.0,0.0,0.0,0.0,0.0,0.0,-1.8906,-2.0469,-2.3627,-2.5547,-2.6094,-2.6348,-2.625,-2.582,-2.3086,-2.0953,0.0,0.0,0.0,0.0,0.0,0.0,0.0,0.0,0.0,0.0,0.0,0.0,0.0,0.0,0.0,0.0,0.0,0.0,0.0,0.0,0.0,0.0,0.0,0.0,0.0,0.0,0.0,0.0,0.0,0.0,0.0,0.0,0.0,0.0,0.0,0.0,0.0,0.0,0.0,0.0,0.0,0.0,-1.2661,-1.216,0.0,0.0,0.0,-1.242,-1.1778,0.0,0.0,0.0,0.0,0.0,0.0,0.0,0.0,0.0,0.0,0.0,0.0,0.0,0.0,0.0,0.0,0.0,0.0,0.0,0.0,0.0,0.0,0.0,0.0,0.0,0.0,0.0,0.0,0.0,0.0,0.0,0.0,0.0,0.0,0.0,0.0,0.0,0.0,0.0,0.0,0.0,0.0,0.0,0.0,0.0,0.0,0.0,0.0,0.0,0.0,0.0,0.0,0.0,0.0,0.0,0.0,0.0,-2.0525,-2.4594,-2.666,-2.6562,-2.6855,-2.6855,-2.6504,-2.3926,0.0,0.0,0.0,0.0,0.0,0.0,0.0,0.0,0.0,0.0,0.0,0.0,0.0,0.0,0.0,0.0,0.0,0.0,0.0,0.0,0.0,0.0,0.0,0.0,0.0,0.0,0.0,-0.5516,0.0,0.0,0.0,0.0,0.0,0.0,0.0,0.0,0.0,0.0,0.0,0.0,0.0,0.0,-1.244,-1.3026,-1.3016,-1.3225,0.0,0.0,-1.2798,-1.2141,-1.3258,-1.328,0.0,0.0,0.0,0.0,0.0,0.0,0.0,0.0,0.0,0.0,0.0,0.0,0.0,0.0,0.0,0.0,0.0,0.0,0.0,0.0,0.0,0.0,0.0,0.0,0.0,0.0,0.0,0.0,0.0,0.0,0.0,0.0,0.0,0.0,0.0,0.0,0.0,0.0,0.0,0.0,0.0,0.0,0.0,0.0,0.0,0.0,0.0,0.0,0.0,0.0,0.0,0.0,0.0,0.0,-2.0753,-2.1086,-2.5362,-2.7383,-2.6992,-2.6992,-2.6992,-2.6934,-2.5215,-2.3299,0.0,0.0,0.0,0.0,0.0,0.0,0.0,0.0,0.0,0.0,0.0,0.0,0.0,0.0,0.0,0.0,0.0,0.0,0.0,0.0,0.0,0.0,0.0,0.0,0.0,0.0,0.0,0.0,0.0,0.0,0.0,0.0,0.0,0.0,0.0,0.0,0.0,0.0,0.0,0.0,0.0,-1.2382,-1.3558,-1.3306,-1.3644,0.0,-1.4378,-1.3861,-1.5233,-1.6024,-1.5493,-1.2719,0.0,0.0,0.0,0.0,0.0,0.0,0.0,0.0,0.0,0.0,0.0,0.0,0.0,0.0,0.0,0.0,0.0,0.0,0.0,0.0,0.0,0.0,0.0,0.0,0.0,0.0,0.0,0.0,0.0,0.0,0.0,0.0,0.0,0.0,0.0,0.0,0.0,0.0,0.0,0.0,0.0,0.0,0.0,0.0,0.0,0.0,0.0,0.0,0.0,0.0,0.0,0.0,0.0,-2.0654,-2.1269,-2.5509,-2.763,-2.7441,-2.7676,-2.7676,-2.7422,-2.5996,-2.4042,0.0,0.0,0.0,0.0,0.0,0.0,0.0,0.0,0.0,0.0,0.0,0.0,0.0,0.0,0.0,0.0,0.0,0.0,0.0,0.0,0.0,0.0,0.0,0.0,0.0,0.0,0.0,0.0,-0.9155,-0.9408,-0.8854,0.0,0.0,0.0,0.0,0.0,0.0,0.0,0.0,0.0,0.0,-1.3832,-1.4976,-1.4956,0.0,0.0,-1.538,-1.4755,-1.5008,-1.5682,-1.543,-1.3207,-1.2663,0.0,0.0,0.0,0.0,0.0,0.0,0.0,0.0,0.0,0.0,0.0,0.0,0.0,0.0,0.0,0.0,0.0,0.0,0.0,0.0,0.0,0.0,0.0,0.0,0.0,0.0,0.0,0.0,0.0,0.0,0.0,0.0,0.0,0.0,0.0,0.0,0.0,0.0,0.0,0.0,0.0,0.0,0.0,0.0,0.0,0.0,0.0,0.0,0.0,0.0,0.0,0.0,-2.1091,-2.195,-2.6004,-2.8047,-2.7941,-2.8349,-2.8369,-2.7941,-2.6897,-2.5257,-2.2997,0.0,0.0,0.0,0.0,0.0,0.0,0.0,0.0,0.0,0.0,0.0,0.0,0.0,0.0,0.0,0.0,0.0,0.0,0.0,0.0,0.0,0.0,0.0,0.0,0.0,0.0,0.0,-0.9937,-1.0014,-0.9186,0.0,0.0,0.0,0.0,0.0,0.0,0.0,0.0,0.0,0.0,-1.5081,-1.5853,-1.5922,-1.6058,-1.6523,-1.5803,-1.5143,-1.5146,-1.5491,-1.5303,-1.3918,0.0,0.0,0.0,0.0,0.0,0.0,0.0,0.0,0.0,0.0,0.0,0.0,0.0,0.0,0.0,0.0,0.0,0.0,0.0,0.0,0.0,0.0,0.0,0.0,0.0,0.0,0.0,-1.2203,0.0,0.0,-1.1541,0.0,0.0,0.0,0.0,0.0,0.0,0.0,0.0,0.0,0.0,0.0,0.0,0.0,0.0,0.0,0.0,0.0,0.0,0.0,0.0,0.0,0.0,-2.237,-2.3164,-2.6904,-2.8742,-2.8487,-2.8872,-2.8891,-2.8487,-2.7991,-2.7179,-2.5913,0.0,0.0,0.0,0.0,0.0,0.0,0.0,0.0,0.0,0.0,0.0,0.0,0.0,0.0,0.0,0.0,0.0,0.0,0.0,0.0,0.0,0.0,0.0,0.0,0.0,0.0,-0.7497,-0.8626,-0.9453,0.0,0.0,0.0,0.0,0.0,0.0,0.0,0.0,0.0,-1.3144,-1.4851,-1.5932,-1.5851,-1.5871,-1.6077,-1.6338,-1.5404,-1.506,-1.6166,-1.5854,-1.5403,0.0,0.0,0.0,0.0,0.0,0.0,0.0,0.0,0.0,0.0,0.0,0.0,0.0,0.0,0.0,0.0,0.0,0.0,0.0,0.0,0.0,0.0,0.0,0.0,0.0,0.0,0.0,-1.6733,-1.6712,0.0,0.0,0.0,0.0,0.0,0.0,0.0,0.0,0.0,0.0,0.0,-2.0878,-2.0644,0.0,0.0,0.0,0.0,0.0,0.0,0.0,0.0,0.0,0.0,0.0,0.0,-2.305,-2.3763,-2.7389,-2.93,-2.9244,-2.9157,-2.9064,-2.893,-2.8498,-2.7476,-2.5554,0.0,0.0,0.0,0.0,0.0,0.0,0.0,0.0,0.0,0.0,0.0,0.0,0.0,0.0,0.0,0.0,0.0,0.0,0.0,0.0,0.0,0.0,0.0,0.0,0.0,-0.9052,0.0,0.0,0.0,0.0,0.0,0.0,0.0,0.0,0.0,0.0,-1.1615,-1.271,-1.4304,-1.5127,-1.5777,-1.6339,-1.6783,-1.7173,0.0,0.0,0.0,0.0,0.0,0.0,0.0,0.0,0.0,0.0,0.0,0.0,0.0,-1.2836,-1.2023,-1.0029,-1.009,-1.0478,-1.0435,0.0,0.0,0.0,0.0,0.0,0.0,0.0,0.0,0.0,0.0,0.0,0.0,0.0,0.0,-2.0665,-2.0238,-2.0906,0.0,0.0,0.0,0.0,0.0,0.0,0.0,0.0,-2.1615,-2.2871,-2.4062,-2.3789,-2.3672,-2.3633,-2.291,-2.1012,0.0,0.0,0.0,0.0,0.0,0.0,0.0,0.0,-2.3954,-2.4699,-2.8024,-2.9785,-2.9692,-2.9488,-2.9317,-2.9183,-2.8956,-2.8032,-2.6315,-2.3988,-2.185,0.0,0.0,0.0,0.0,0.0,0.0,0.0,0.0,0.0,0.0,0.0,0.0,0.0,0.0,0.0,0.0,0.0,0.0,0.0,0.0,0.0,0.0,0.0,-1.0039,0.0,0.0,0.0,0.0,0.0,0.0,0.0,0.0,0.0,-1.2094,-1.2956,-1.4142,-1.5489,-1.6016,-1.6366,-1.6526,0.0,0.0,0.0,0.0,0.0,0.0,0.0,-1.5506,-1.536,-1.5404,-1.5632,-1.6138,-1.5998,-1.5842,-1.5739,0.0,0.0,-1.2598,-1.2578,-1.2942,-1.2942,-1.305,-1.3006,-1.2745,-1.2771,-1.2741,0.0,0.0,0.0,0.0,-2.284,0.0,0.0,0.0,-2.5036,-2.4059,0.0,-2.474,0.0,0.0,0.0,0.0,-1.9755,-2.1794,0.0,0.0,-2.6973,-2.8223,-2.7148,-2.7051,-2.707,-2.6973,-2.5,-2.4127,-2.428,-2.3119,-2.1805,0.0,0.0,0.0,0.0,0.0,-2.5063,-2.6164,-2.8816,-3.0063,-2.9795,-2.983,-2.9713,-2.9316,-2.9258,-2.8878,-2.8182,-2.6281,-2.4913,-2.4165,-1.9572,0.0,0.0,0.0,0.0,0.0,0.0,0.0,0.0,0.0,0.0,0.0,0.0,0.0,0.0,0.0,0.0,0.0,0.0,0.0,0.0,-1.0632,0.0,0.0,0.0,0.0,0.0,0.0,0.0,0.0,0.0,-1.4008,-1.3061,-1.4421,-1.5853,-1.6593,0.0,0.0,0.0,0.0,-1.7108,-1.5473,-1.5184,-1.5258,-1.5309,-1.5985,-1.665,-1.7162,0.0,0.0,-1.816,-1.7207,-1.6646,-1.693,-1.7061,-1.6742,-1.5447,-1.5191,-1.5243,-1.5231,-1.5239,-1.5258,-1.517,-1.5176,-1.5017,-2.9631,0.0,0.0,0.0,0.0,-2.6049,-2.7508,-3.0165,-2.9767,-2.9346,-2.8974,-2.9555,0.0,0.0,0.0,0.0,0.0,0.0,-2.4667,-2.6198,-2.7156,-2.8164,-2.9258,-2.8984,-2.8848,-2.8809,-2.8203,-2.8144,-2.8462,-2.813,-2.5671,-2.1363,0.0,0.0,0.0,0.0,-2.6109,-2.7175,-2.9218,-3.0199,-2.9868,-2.9865,-2.9747,-2.9439,-2.8944,-2.8566,-2.8321,-2.753,-2.6295,-2.4698,-2.2673,0.0,0.0,0.0,0.0,0.0,0.0,0.0,0.0,0.0,0.0,0.0,0.0,0.0,0.0,0.0,0.0,0.0,0.0,0.0,-1.0802,-1.222,-1.2288,0.0,0.0,0.0,0.0,0.0,0.0,0.0,0.0,0.0,-1.5783,-1.5695,-1.5917,0.0,0.0,-1.6019,-1.5685,-1.661,-1.7396,-1.7477,-1.7516,0.0,-1.8348,-1.7958,-1.772,-1.8055,-1.8633,-1.8885,-1.8311,-1.8479,-1.8654,-1.852,-1.8471,-1.8372,-1.8046,-1.7781,-1.7648,-1.7672,-1.7805,-1.7793,-1.7479,-1.7527,-1.754,-3.4412,-3.2394,-3.0343,-2.9841,-3.035,-3.0117,-3.1622,-3.4141,-3.3931,-3.3457,-3.296,-3.3978,-3.169,-2.702,-2.6674,0.0,0.0,0.0,-2.7053,-2.8816,-2.8618,-2.9238,-3.041,-3.0215,-3.0098,-3.0078,-2.9902,-3.0039,-3.0449,-2.9766,-2.7757,-2.4469,0.0,-2.3763,-2.3822,-2.5987,-2.7333,-2.7905,-2.9546,-3.0216,-2.9922,-2.9804,-2.9627,-2.9331,-2.8873,-2.8627,-2.8627,-2.8388,-2.7618,-2.6261,-2.4959,-2.2983,0.0,0.0,0.0,0.0,0.0,0.0,0.0,0.0,0.0,0.0,0.0,-0.9632,-0.8916,0.0,0.0,0.0,-1.2005,-1.2332,-1.2654,-1.3336,0.0,0.0,0.0,0.0,0.0,0.0,0.0,-1.4417,-1.636,-1.7768,-1.7689,-1.7343,-1.7168,-1.7462,-1.7288,-1.7021,-1.6673,0.0,-1.8372,-1.8624,-1.8664,-1.8891,-1.9519,-1.9362,-1.9291,-1.9826,-2.0172,-2.0221,-1.9874,-2.0106,-2.0347,-2.023,-1.9906,-1.9646,-1.9776,-1.9459,-1.9072,-1.8891,-1.8963,-1.8951,-1.8662,-1.8734,-1.8794,-3.7974,-3.7637,-3.3789,-3.302,-3.4294,-3.4294,-3.5449,-3.7228,-3.7252,-3.6435,-3.5304,-3.7661,-3.5907,-3.1043,-2.9445,0.0,-2.8975,-2.9105,-2.9785,-3.0937,-3.0937,-3.0937,-3.0937,-3.0898,-3.0898,-3.0879,-3.0449,-3.0469,-3.0801,-2.9297,-2.8563,-2.8691,-2.871,-2.7825,-2.6369,-2.7762,-2.8559,-2.8584,-2.9699,-3.0139,-2.9863,-2.9627,-2.9331,-2.909,-2.8993,-2.8993,-2.903,-2.8993,-2.881,-2.8407,-2.6682,-2.5286,-2.4349,0.0,0.0,0.0,0.0,0.0,0.0,0.0,0.0,0.0,0.0,0.0,0.0,0.0,0.0,-1.3741,-1.4396,0.0,-1.529,-1.4445,0.0,0.0,0.0,-1.4934,-1.6536,-1.7186,-1.7554,-1.7764,0.0,0.0,-1.9025,-1.9078,-1.9212,-1.9533,-1.9679,-1.9466,-1.8637,-1.9239,-1.9666,-1.9185,-1.9145,-1.9279,-1.976,-2.0294,-2.0949,-2.1565,-2.1991,-2.1832,-2.17,-2.1529,-2.1582,-2.1687,-2.1066,-2.0522,-2.0867,-2.0298,-1.9802,-1.9306,-1.9221,-1.9157,-1.9145,-1.9157,-1.9157,-3.7974,-3.7902,-3.6916,-3.6699,-3.7036,-3.706,-3.7324,-3.7781,-3.7858,-3.7565,-3.7276,-3.7902,-3.7175,-3.5382,-3.309,-3.2179,-3.2248,-3.1623,-3.1387,-3.1367,-3.1367,-3.1367,-3.1348,-3.1055,-3.0898,-3.0879,-3.0781,-3.0781,-3.0859,-3.0469,-2.998,-2.9397,-2.9358,-2.8567,-2.711,-2.7596,-2.8296,-2.8988,-2.8993,-2.922,-2.9608,-2.9272,-2.9379,-2.9814,-2.9278,-2.9122,-2.9415,-2.914,-2.8938,-2.8828,-2.8095,-2.716,-2.6041,-2.2892,0.0,0.0,0.0,0.0,0.0,0.0,0.0,0.0,0.0,-1.2305,-1.0358,0.0,-1.312,0.0,-1.5698,-1.7265,-1.7414,-1.7394,0.0,0.0,-1.6756,-1.6847,-1.7582,-1.8595,-1.9082,-1.8658,-1.9559,-2.0187,-2.0254,-2.0454,-2.0788,-2.1269,-2.0267,-1.9305,-1.8918,-1.9773,-2.0428,-2.0334,-2.0788,-2.1269,-2.1309,-2.1523,-2.1672,-2.1621,-2.1595,-2.1529,-2.1277,-2.1198,-2.1145,-2.1198,-2.1066,-2.0867,-2.1012,-2.0601,-2.031,-2.0108,-1.9886,-1.97,-1.97,-1.9688,-1.9688,-3.8575,-3.8359,-3.8359,-3.8214,-3.7974,-3.7974,-3.8118,-3.8334,-3.8094,-3.8262,-3.8695,-3.8719,-3.8028,-3.6779,-3.5395,-3.4001,-3.2852,-3.2413,-3.1934,-3.1523,-3.1328,-3.123,-3.125,-3.1191,-3.1172,-3.1172,-3.1367,-3.1405,-3.1207,-3.1227,-3.0896,-3.0276,-3.043,-2.9834,-2.8439,-2.8106,-2.8183,-2.8592,-2.8653,-2.9119,-3.0013,-2.9707,-2.9499,-2.9305,-2.8965,-2.8572,-2.826,-2.7914,-2.7636,-2.7675,-2.727,-2.6756,-2.6041,-2.3694,-2.1572,0.0,0.0,0.0,0.0,0.0,0.0,0.0,0.0,0.0,0.0,0.0,-1.4868,-1.4842,-1.7143,-1.843,-1.803,-1.8197,-1.8417,-1.8576,-1.8634,-1.8976,-1.986,-2.0584,-2.0943,-2.0722,-2.1256,-2.1657,-2.1657,-2.179,-2.1951,-2.2151,-2.1456,-2.0762,-2.0414,-2.0869,-2.1296,-2.1456,-2.1857,-2.2231,-2.2352,-2.2378,-2.2311,-2.2177,-2.211,-2.2043,-2.1908,-2.1854,-2.1841,-2.1841,-2.1706,-2.1572,-2.1572,-2.1314,-2.1069,-2.1127,-2.1084,-2.0687,-2.002,-1.9881,-1.9881,-3.9345,-3.8936,-3.8912,-3.8647,-3.819,-3.819,-3.8407,-3.8695,-3.8262,-3.8647,-3.9585,-3.9537,-3.8601,-3.7177,-3.6817,-3.5261,-3.2793,-3.267,-3.2271,-3.168,-3.1309,-3.1133,-3.1152,-3.1386,-3.1542,-3.1621,-3.1992,-3.1905,-3.16,-3.16,-3.1359,-3.0978,-3.1375,-3.0997,-2.9785,-2.8911,-2.8443,-2.8198,-2.8651,-2.9428,-3.0568,-3.015,-2.9379,-2.837,-2.826,-2.7746,-2.6719,-2.6261,-2.6094,-2.6076,-2.5656,-2.5617,-2.5819,-2.3859,-2.2387,0.0,-1.9564,0.0,0.0,0.0,0.0,0.0,0.0,0.0,0.0,-1.6971,-1.6959,-1.7292,-1.8661,-1.9181,-1.8371,-1.8443,-1.9074,-2.0388,-2.0575,-2.1096,-2.2352,-2.2539,-2.2645,-2.2939,-2.3008,-2.2913,-2.2886,-2.2954,-2.2752,-2.2539,-2.2645,-2.2552,-2.2245,-2.2138,-2.2245,-2.2498,-2.2565,-2.2752,-2.2926,-2.2979,-2.3048,-2.2979,-2.2979,-2.3048,-2.2979,-2.2979,-2.2979,-2.2979,-2.2704,-2.2497,-2.2497,-2.222,-2.2089,-2.2224,-2.2192,-2.1767,-2.0681,-2.0306,-2.0153,-3.9537,-3.9465,-3.9465,-3.9393,-3.9296,-3.9296,-3.8839,-3.8166,-3.8503,-3.9008,-3.9561,-3.9152,-3.9213,-3.9547,-3.8125,-3.6894,-3.5848,-3.5145,-3.3982,-3.2539,-3.2461,-3.2441,-3.2422,-3.1844,-3.1728,-3.2051,-3.1805,-3.1661,-3.16,-3.16,-3.1054,-3.0109,-3.0765,-3.0569,-2.9527,0.0,0.0,0.0,-2.9271,-2.9658,-3.0162,-2.8895,-2.8171,-2.7932,-2.7581,0.0,-2.7068,-2.6738,-2.6463,-2.6463,-2.6131,0.0,-2.8168,0.0,0.0,0.0,0.0,0.0,0.0,0.0,0.0,0.0,-2.0335,-1.8477,-1.7332,-1.7553,-1.8262,-1.9461,-1.9907,-2.042,-2.1432,-2.1525,-2.179,-2.2285,-2.2418,-2.2579,-2.31,-2.3153,-2.3273,-2.3554,-2.338,-2.3247,-2.322,-2.3033,-2.2928,-2.2956,-2.3046,-2.318,-2.3073,-2.3033,-2.3086,-2.3166,-2.33,-2.35,-2.3594,-2.3651,-2.3611,-2.3607,-2.3607,-2.3581,-2.3567,-2.3651,-2.3594,-2.3581,-2.3537,-2.351,-2.351,-2.324,-2.2943,-2.3021,-2.2737,-2.2329,-2.1824,-2.1645,-2.1586,-4.0234,-3.9994,-3.9994,-3.985,0.0,-3.9609,-3.9296,-3.8815,-3.908,-3.9657,-4.0355,-4.009,-3.9977,-3.98,-3.794,-3.6472,-3.5376,-3.4533,-3.3552,-3.248,-3.248,-3.248,-3.248,-3.2277,-3.2277,-3.248,-3.249,-3.2401,-3.2234,-3.2508,-3.2281,-3.1778,-3.2594,-3.2675,-3.2192,-3.2068,-3.1507,-3.0487,-3.0554,-3.0939,-3.15,-3.0853,-3.0039,-2.9347,-2.9067,0.0,0.0,0.0,0.0,0.0,0.0,0.0,0.0,-2.6646,-2.6263,-2.676,-2.5541,-2.5023,-2.5544,-2.5281,-2.5506,-2.6278,-2.4703,-2.2185,-1.894,-1.9613,-2.0508,-2.1229,-2.1443,-2.1897,-2.2752,-2.2873,-2.2993,-2.326,-2.3313,-2.338,-2.3514,-2.3554,-2.3607,-2.3728,-2.3634,-2.3541,-2.3541,-2.4093,-2.4386,-2.4524,-2.5207,-2.5447,-2.4694,-2.402,-2.3541,-2.3541,-2.3647,-2.3768,-2.3781,-2.3781,-2.3852,-2.3768,-2.3781,-2.3781,-2.3781,-2.3781,-2.3781,-2.3781,-2.3781,-2.3781,-2.3768,-2.3625,-2.3535,-2.3667,-2.3655,-2.3508,-2.3318,-2.2933,-2.2576,-4.122,-4.0812,-4.0812,-4.0571,-4.0162,-4.0162,-4.0162,-4.0162,-3.997,0.0,0.0,-4.1196,-4.0653,-3.9627,-3.7929,-3.6354,-3.4994,-3.4004,-3.3311,-3.2749,-3.2505,-3.2422,-3.2519,-3.2789,-3.3004,-3.3144,-3.3413,-3.3398,-3.3162,-3.3489,-3.3762,-3.3871,-3.4697,-3.5242,-3.5325,-3.4546,-3.3594,-3.2547,-3.1929,-3.2102,-3.2972,-3.2889,-3.2125,-3.0714,-3.0696,-3.0033,-2.867,-2.8226,-2.7801,-2.7398,-2.7068,-2.6903,-2.7105,-2.705,-2.7141,-2.7416,-2.7361,-2.7948,-2.9287,-2.9342,-2.9321,-2.9309,-2.8246,-2.577,-2.1417,-2.2198,-2.2863,-2.2659,-2.2886,-2.3126,-2.338,-2.3407,-2.35,-2.3741,-2.3781,-2.3781,-2.3834,-2.3848,-2.4031,-2.4313,-2.4542,-2.4559,-2.4915,-2.5879,-2.6354,-2.6239,-2.7161,-2.8019,-2.6723,-2.5328,-2.429,-2.4013,-2.4627,-2.4858,-2.4429,-2.4443,-2.4344,-2.4542,-2.4242,-2.3928,-2.3928,-2.3928,-2.3928,-2.3981,-2.3928,-2.3941,-2.3941,-2.4022,-2.4088,-2.4315,-2.4596,-2.4802,-2.4727,-2.4178,-2.3661,-4.2471,-4.2482,-4.2482,-4.2375,-4.2362,-4.2327,-4.2386,-4.2289,-4.1365,-4.1052,-4.1196,-4.1196,-4.1115,-4.0918,-4.0197,-3.9348,-3.8422,-3.7238,-3.6088,-3.4882,-3.3786,-3.3457,-3.3789,-3.3611,-3.3824,-3.4349,-3.4231,-3.4073,-3.4008,-3.4066,-3.4117,-3.4336,-3.5035,-3.5958,-3.686,-3.5895,-3.5433,-3.5489,-3.2879,-3.1884,-3.2646,-3.1638,-3.0773,-3.0251,-3.0209,-2.9971,-2.9394,-2.9043,-2.8627,-2.8242,-2.7877,-2.8077,-2.9126,-2.8828,-2.925,-3.0552,-3.0369,-3.0461,-3.0974,-3.0736,-3.0185,-2.9426,-2.9423,-2.8109,-2.5052,-2.4872,-2.4579,-2.3752,-2.3665,-2.3661,-2.3701,-2.3772,-2.3883,-2.3937,-2.3852,-2.3933,-2.4359,-2.4386,-2.5056,-2.6734,-2.675,-2.7154,-2.8116,-2.8468,-2.792,-2.6779,-2.7897,-2.878,-2.853,-2.7244,-2.574,-2.5153,-2.6793,-2.7644,-2.6634,-2.6445,-2.6228,-2.6445,-2.5235,-2.4516,-2.4516,-2.4516,-2.4516,-2.4516,-2.4516,-2.4516,-2.4516,-2.473,-2.4836,-2.4943,-2.5157,-2.5375,-2.5641,-2.5511,-2.5214,-4.2819,-4.2819,-4.2819,-4.2819,-4.2843,-4.3048,-4.3168,-4.3192,-4.3289,-4.3,-4.2471,-4.2447,-4.2447,-4.234,-4.1165,-4.0432,-4.0043,-3.8748,-3.7826,-3.7207,-3.5848,-3.5335,-3.5473,-3.4654,-3.4381,-3.4687,-3.4576,-3.4444,-3.4529,-3.4743,-3.4959,-3.5268,-3.6255,-3.7126,-3.7624,-3.6962,-3.6589,-3.6508,-3.4421,-3.3393,-3.358,-3.2991,-3.26,-3.2395,-3.2264,-3.2014,-3.1817,-3.1478,-3.1084,-3.0699,-3.0479,-3.0644,-3.1157,-3.0846,-3.0956,-3.1653,-3.1341,-3.1194,-3.1359,-3.1212,-3.092,-3.052,-3.0615,-2.9958,-2.8241,-2.6625,-2.5184,-2.3968,-2.3781,-2.4249,-2.5157,-2.5256,-2.5741,-2.6951,-2.7053,-2.7171,-2.7452,-2.7526,-2.8012,-2.886,-2.902,-2.907,-2.9536,-3.0222,-3.0277,-2.9244,-2.9818,-3.0335,-3.043,-2.9965,-2.8932,-2.7505,-2.7635,-2.7668,-2.7232,-2.6407,-2.6033,-2.6112,-2.5555,-2.5117,-2.5104,-2.5104,-2.5104,-2.5117,-2.5104,-2.5117,-2.5104,-2.5211,-2.5304,-2.5344,-2.5545,-2.5798,-2.601,-2.6066,-2.5976,-4.3542,-4.3481,-4.3481,-4.3481,-4.3505,-4.389,-4.4058,-4.413,-4.4948,-4.4828,-4.4106,-4.3938,-4.3818,-4.3527,-4.2183,-4.1498,-4.1222,-4.0068,-3.9441,-3.9166,-3.7594,-3.6827,-3.6802,-3.5545,-3.4902,-3.498,-3.5,-3.498,-3.5039,-3.5371,-3.5801,-3.6387,-3.748,-3.8156,-3.8271,-3.7769,-3.7393,-3.7124,-3.5914,-3.5117,-3.4719,-3.4626,-3.4658,-3.4639,-3.4251,-3.4015,-3.401,-3.37,-3.3243,-3.2771,-3.2735,-3.2698,-3.2588,-3.2313,-3.2148,-3.2111,-3.1836,-3.1653,-3.1653,-3.1653,-3.1653,-3.1653,-3.1744,-3.1481,-3.0515,-2.8531,-2.6587,-2.5299,-2.5383,-2.5956,-2.7006,-2.7398,-2.813,-2.9717,-2.9943,-2.9844,-3.0277,-3.0415,-3.0669,-3.0866,-3.0981,-3.0876,-3.1175,-3.1892,-3.2435,-3.2174,-3.1928,-3.1716,-3.219,-3.2611,-3.2039,-3.0849,-2.9457,-2.9003,-2.859,-2.7822,-2.7329,-2.7122,-2.6909,-2.6942,-2.6791,-2.6682,-2.662,-2.6729,-2.6302,-2.6199,-2.6101,-2.5801,-2.5715,-2.5732,-2.5985,-2.6199,-2.6319,-2.6466,-2.6507,-4.5597,-4.5645,-4.5549,-4.5621,-4.5573,-4.5645,-4.5645,-4.5669,-4.5814,-4.5814,-4.5645,-4.5213,-4.4669,-4.4237,-4.4017,-4.3692,-4.3201,-4.1916,-4.1152,-4.0455,-3.7974,-3.7014,-3.7449,-3.6044,-3.5527,-3.582,-3.5859,-3.582,-3.582,-3.5918,-3.6367,-3.7187,-3.8086,-3.8691,-3.893,-3.8267,-3.8053,-3.8423,-3.719,-3.618,-3.5504,-3.5468,-3.5471,-3.5401,-3.5042,-3.4834,-3.4796,-3.4452,-3.3922,-3.3211,-3.3175,-3.2991,-3.2661,-3.257,-3.2551,-3.2551,-3.2496,-3.2478,-3.2478,-3.2478,-3.2441,-3.2514,-3.2771,-3.2507,-3.1512,-3.116,-3.0314,-2.9083,-2.9299,-2.9367,-2.9565,-2.9796,-3.0102,-3.0566,-3.0647,-3.0367,-3.0669,-3.0415,-3.1046,-3.2878,-3.2697,-3.2985,-3.3874,-3.4072,-3.4068,-3.3854,-3.2967,-3.2769,-3.3983,-3.436,-3.4432,-3.4306,-3.4181,-3.3351,-3.2312,-3.2076,-3.117,-3.1351,-3.0669,-2.975,-2.9348,-2.9392,-2.9763,-2.8157,-2.819,-2.7402,-2.7202,-2.6843,-2.6077,-2.6213,-2.6493,-2.68,-2.7041,-2.7108,-2.6961,-4.5934,-4.5934,-4.5934,-4.5934,-4.5958,-4.6247,-4.6391,-4.6415,-4.6728,-4.6848,-4.6848,-4.6631,-4.6078,-4.5285,-4.5285,-4.514,-4.4885,-4.4357,-4.4049,-4.3624,-4.1524,-4.0602,-4.0561,-3.8141,-3.7098,-3.7126,-3.6423,-3.6035,-3.6035,-3.6035,-3.6465,-3.7226,-3.7676,-3.8144,-3.875,-3.8476,-3.8398,-3.8555,-3.8078,-3.7542,-3.696,-3.6318,-3.6047,-3.6131,-3.5629,-3.542,-3.5539,-3.4847,-3.4227,-3.3941,-3.3716,-3.3486,-3.3321,-3.3101,-3.2973,-3.2955,-3.2735,-3.2606,-3.2606,-3.2606,-3.2606,-3.2606,-3.2753,-3.2738,-3.257,-3.2733,-3.2578,-3.1912,-3.064,-3.001,-3.096,-3.1326,-3.1856,-3.2822,-3.3357,-3.3492,-3.3809,-3.3809,-3.414,-3.4643,-3.45,-3.4449,-3.4848,-3.488,-3.4788,-3.4699,-3.4108,-3.4198,-3.4883,-3.5229,-3.5375,-3.5412,-3.5559,-3.4918,-3.3418,-3.215,-3.1936,-3.1785,-3.1399,-3.0795,-2.9945,-2.9519,-2.9228,-2.8432,-2.7879,-2.7431,-2.6895,-2.6795,-2.6306,-2.6587,-2.6867,-2.7134,-2.7241,-2.7268,-2.7121,-4.6367,-4.6367,-4.6343,-4.6367,-4.6391,-4.6776,-4.692,-4.6968,-4.7329,-4.7497,-4.7497,-4.7497,-4.7088,-4.6439,-4.6367,-4.6295,-4.615,-4.6126,-4.6054,-4.5693,-4.4132,-4.323,-4.2811,-4.03,-3.8611,-3.7996,-3.7059,-3.6482,-3.626,-3.6328,-3.6758,-3.7383,-3.7598,-3.7949,-3.8516,-3.8574,-3.8574,-3.8574,-3.8574,-3.8428,-3.8059,-3.7321,-3.6866,-3.6874,-3.6393,-3.624,-3.6432,-3.5673,-3.5084,-3.4892,-3.45,-3.4162,-3.3963,-3.3707,-3.3505,-3.3376,-3.3101,-3.2936,-3.2936,-3.2936,-3.2918,-3.2936,-3.2918,-3.3101,-3.3468,-3.3707,-3.3908,-3.3936,-3.1928,-3.1236,-3.2416,-3.2804,-3.357,-3.4993,-3.5394,-3.565,-3.6016,-3.6127,-3.5796,-3.5797,-3.5522,-3.5467,-3.5137,-3.5009,-3.4955,-3.5083,-3.512,-3.5265,-3.5357,-3.5614,-3.5779,-3.5797,-3.6036,-3.5591,-3.4246,-3.3506,-3.2517,-3.2558,-3.2852,-3.2532,-3.1085,-3.0993,-3.0454,-3.0956,-2.8876,-2.7527,-2.7507,-2.7199,-2.6547,-2.6881,-2.7215,-2.7551,-2.7589,-2.7604,-2.7604,-4.7425,-4.7425,-4.7425,-4.7353,-4.7425,-4.7425,-4.7449,-4.7425,-4.7473,-4.7497,-4.7497,-4.7497,-4.7473,-4.7377,-4.7329,-4.7136,-4.6728,-4.668,-4.6439,-4.5902,-4.4505,-4.3552,-4.2986,-4.155,-3.9925,-3.8458,-3.8058,-3.7415,-3.6651,-3.6992,-3.7461,-3.7851,-3.8203,-3.8496,-3.8574,-3.8574,-3.8574,-3.8574,-3.8574,-3.8574,-3.8574,-3.8443,-3.8045,-3.7427,-3.7369,-3.7239,-3.735,-3.7259,-3.6899,-3.6214,-3.5712,-3.5197,-3.4511,-3.4367,-3.4165,-3.3853,-3.378,-3.3762,-3.3762,-3.3762,-3.3762,-3.3762,-3.3762,-3.3927,-3.422,-3.4073,-3.422,-3.488,-3.3923,-3.3635,-3.405,-3.4305,-3.4794,-3.5358,-3.5284,-3.554,-3.6127,-3.5981,-3.587,-3.5981,-3.5815,-3.5504,-3.51,-3.5027,-3.5265,-3.5485,-3.5595,-3.5705,-3.5962,-3.6109,-3.6127,-3.6127,-3.6164,-3.6108,-3.6015,-3.5256,-3.544,-3.5271,-3.4896,-3.5363,-3.5829,-3.5754,-3.4521,-3.3297,-3.1376,-2.9851,-2.8856,-2.7917,-2.7147,-2.7121,-2.7642,-2.7993,-2.7966,-2.8127,-2.81,-4.7497,-4.7497,-4.7497,-4.7497,-4.7497,-4.7497,-4.7497,-4.7497,-4.7497,-4.7497,-4.7497,-4.7497,-4.7497,-4.7497,-4.7497,-4.7401,-4.7233,-4.7209,-4.7112,-4.683,-4.6037,-4.558,-4.5261,-4.3582,-4.1772,-4.0055,-3.9013,-3.7807,-3.6426,-3.6699,-3.7109,-3.7519,-3.7949,-3.8281,-3.8535,-3.8574,-3.8574,-3.8574,-3.8574,-3.8574,-3.8574,-3.8574,-3.8423,-3.8195,-3.785,-3.785,-3.8122,-3.7653,-3.7417,-3.7375,-3.6579,-3.5936,-3.5624,-3.5097,-3.4752,-3.4623,-3.4587,-3.4587,-3.4587,-3.4587,-3.4587,-3.4587,-3.4587,-3.4623,-3.4752,-3.4678,-3.4733,-3.4899,-3.4807,-3.4678,-3.477,-3.4954,-3.501,-3.5265,-3.5797,-3.6109,-3.6219,-3.6292,-3.6274,-3.5925,-3.5687,-3.5559,-3.5522,-3.5614,-3.5834,-3.5962,-3.5999,-3.6054,-3.6146,-3.6201,-3.6201,-3.6201,-3.6201,-3.6201,-3.6201,-3.6201,-3.6126,-3.6126,-3.5978,-3.5288,-3.5288,-3.5139,-3.407,-3.2985,-3.19,-3.101,-2.9457,-2.8016,-2.7378,-2.7388,-2.7993,-2.8181,-2.8221,-2.8234,-2.8234,-4.7497,-4.7497,-4.7497,-4.7497,-4.7497,-4.7497,-4.7497,-4.7497,-4.7497,-4.7497,-4.7497,-4.7497,-4.7497,-4.7497,-4.7497,-4.7497,-4.7497,-4.7497,-4.7497,-4.7473,-4.7136,-4.6872,-4.6525,-4.5319,-4.3671,-4.1595,-3.9714,-3.7949,-3.6485,-3.6816,-3.7226,-3.7519,-3.793,-3.8281,-3.8535,-3.8574,-3.8574,-3.8574,-3.8574,-3.8574,-3.8574,-3.8574,-3.8652,-3.8711,-3.8496,-3.8555,-3.8965,-3.8491,-3.831,-3.8451,-3.7571,-3.6788,-3.6234,-3.5464,-3.5027,-3.5027,-3.5027,-3.5027,-3.5027,-3.5027,-3.5027,-3.5027,-3.5027,-3.5027,-3.5027,-3.5027,-3.5027,-3.5027,-3.5027,-3.5027,-3.5064,-3.5137,-3.521,-3.5302,-3.5962,-3.6384,-3.6237,-3.6457,-3.6329,-3.5981,-3.5852,-3.5815,-3.5834,-3.6036,-3.6164,-3.6201,-3.6201,-3.6201,-3.6201,-3.6201,-3.6201,-3.6201,-3.6201,-3.6201,-3.6201,-3.6201,-3.6201,-3.6201,-3.6201,-3.5438,-3.4989,-3.4597,-3.4046,-3.2806,-3.1876,-3.1074,-2.9912,-2.8389,-2.7812,-2.7752,-2.7909,-2.8207,-2.8234,-2.8234,-2.8234,-4.7497,-4.7497,-4.7497,-4.7497,-4.7497,-4.7497,-4.7497,-4.7497,-4.7497,-4.7497,-4.7497,-4.7497,-4.7497,-4.7497,-4.7497,-4.7497,-4.7497,-4.7497,-4.7497,-4.7473,-4.7449,-4.7185,-4.6734,-4.6597,-4.5219,-4.286,-4.0027,-3.8024,-3.6858,-3.7336,-3.7715,-3.793,-3.8242,-3.8457,-3.8574,-3.8574,-3.8574,-3.8574,-3.8574,-3.8574,-3.8574,-3.8574,-3.875,-3.9101,-3.9121,-3.9336,-3.9844,-3.9844,-3.9715,-3.9701,-3.8953,-3.7796,-3.6492,-3.5628,-3.5082,-3.5209,-3.5082,-3.5064,-3.51,-3.5119,-3.5174,-3.5174,-3.51,-3.5174,-3.5192,-3.5155,-3.5155,-3.5246,-3.5227,-3.5119,-3.5264,-3.5503,-3.5687,-3.5632,-3.5797,-3.6017,-3.6146,-3.6201,-3.6201,-3.6164,-3.6146,-3.6182,-3.6182,-3.6182,-3.6201,-3.6201,-3.6201,-3.6201,-3.6201,-3.6201,-3.6201,-3.6201,-3.6201,-3.6201,-3.6201,-3.6201,-3.6201,-3.6201,-3.6201,-3.5903,-3.5811,-3.553,-3.5317,-3.427,-3.3761,-3.29,-3.1002,-2.9511,-2.8304,-2.8052,-2.8171,-2.8221,-2.8234,-2.8234,-2.8234,-4.7497,-4.7497,-4.7497,-4.7497,-4.7497,-4.7497,-4.7497,-4.7497,-4.7497,-4.7497,-4.7497,-4.7497,-4.7497,-4.7497,-4.7497,-4.7497,-4.7497,-4.7497,-4.7497,-4.7497,-4.7497,-4.7425,-4.7281,-4.7233,-4.5959,-4.3336,-3.9989,-3.8135,-3.7719,-3.7352,-3.7187,-3.7519,-3.793,-3.8281,-3.8574,-3.8574,-3.8574,-3.8574,-3.8574,-3.8574,-3.8574,-3.8574,-3.8769,-3.9141,-3.9199,-3.9551,-4.0273,-4.0332,-4.0314,-4.0278,-3.9526,-3.8458,-3.7291,-3.6807,-3.6659,-3.6659,-3.6366,-3.6219,-3.6201,-3.5981,-3.5815,-3.5834,-3.5834,-3.5834,-3.5834,-3.5815,-3.5962,-3.6128,-3.6219,-3.6366,-3.6604,-3.6752,-3.6422,-3.565,-3.6109,-3.6329,-3.6312,-3.6201,-3.6201,-3.6201,-3.6201,-3.6201,-3.6201,-3.6201,-3.6201,-3.6201,-3.6201,-3.6201,-3.6201,-3.6201,-3.6201,-3.6201,-3.6201,-3.6201,-3.6201,-3.6201,-3.6201,-3.6201,-3.6201,-3.6201,-3.6201,-3.6163,-3.5972,-3.5713,-3.5197,-3.4172,-3.2267,-3.0528,-2.9198,-2.8397,-2.8419,-2.8389,-2.8221,-2.8389,-2.8558,-4.7696,-4.7696,-4.7696,-4.763,-4.7497,-4.7497,-4.7497,-4.7497,-4.7497,-4.7497,-4.7497,-4.7497,-4.7497,-4.7497,-4.7497,-4.7497,-4.7497,-4.7497,-4.7497,-4.7497,-4.7497,-4.7497,-4.7449,-4.7281,-4.603,-4.3808,-4.1331,-3.9685,-3.888,-3.8594,-3.8332,-3.8217,-3.8476,-3.8628,-3.8608,-3.8574,-3.8574,-3.8574,-3.8574,-3.8574,-3.8574,-3.8574,-3.8769,-3.9141,-3.9199,-3.957,-4.0215,-4.0293,-4.0371,-4.0295,-3.9583,-3.8552,-3.7718,-3.7476,-3.7402,-3.7329,-3.7181,-3.7034,-3.696,-3.6756,-3.6664,-3.6645,-3.6645,-3.6645,-3.6645,-3.6664,-3.6812,-3.696,-3.6867,-3.696,-3.7255,-3.7255,-3.6829,-3.6403,-3.6868,-3.7128,-3.6905,-3.6738,-3.6664,-3.6738,-3.6645,-3.6664,-3.6664,-3.6516,-3.6442,-3.6442,-3.6275,-3.6201,-3.6201,-3.6201,-3.6201,-3.6201,-3.6201,-3.6201,-3.6201,-3.6201,-3.6201,-3.6201,-3.6201,-3.6201,-3.6201,-3.6219,-3.6105,-3.6052,-3.5669,-3.5089,-3.3337,-3.1275,-2.9692,-2.934,-2.9132,-2.8894,-2.8978,-2.93,-2.9384,-4.8026,-4.8026,-4.8026,-4.7762,-4.7497,-4.7497,-4.7497,-4.7497,-4.7497,-4.7497,-4.7497,-4.7563,-4.7497,-4.7497,-4.7563,-4.7563,-4.7497,-4.7497,-4.7497,-4.7497,-4.7497,-4.7497,-4.7449,-4.704,-4.5812,-4.4291,-4.3493,-4.2274,-4.0409,-4.069,-4.0779,-3.955,-3.9659,-3.9567,-3.8905,-3.8681,-3.8574,-3.8574,-3.8574,-3.8574,-3.8574,-3.8574,-3.8769,-3.918,-3.9219,-3.9434,-3.9883,-3.9902,-4.0019,-4.0197,-3.9215,-3.8487,-3.8086,-3.7642,-3.7549,-3.7568,-3.7476,-3.7421,-3.7421,-3.7347,-3.7255,-3.7255,-3.7255,-3.7402,-3.7255,-3.7255,-3.7274,-3.7421,-3.7181,-3.7107,-3.7402,-3.7329,-3.7236,-3.744,-3.7612,-3.7727,-3.7858,-3.7462,-3.7145,-3.7181,-3.7255,-3.7255,-3.7107,-3.6812,-3.6738,-3.659,-3.6349,-3.6201,-3.6201,-3.6201,-3.6201,-3.6201,-3.6201,-3.6201,-3.6201,-3.6201,-3.6201,-3.6201,-3.6201,-3.6201,-3.6256,-3.6292,-3.6384,-3.624,-3.6147,-3.5531,-3.4563,-3.2583,-3.1308,-3.0987,-3.0607,-2.9955,-2.9955,-3.0455,-3.0122,-4.8248,-4.8026,-4.8026,-4.7828,-4.7497,-4.7497,-4.7497,-4.7497,-4.7497,-4.7497,-4.7563,-4.7762,-4.7762,-4.7563,-4.7762,-4.7762,-4.7563,-4.7497,-4.7497,-4.7497,-4.7497,-4.7497,-4.7401,-4.6968,-4.6244,-4.5266,-4.4026,-4.2719,-4.1787,-4.1505,-4.0998,-4.0464,-4.0366,-4.0038,-3.9637,-3.8977,-3.8647,-3.8574,-3.8574,-3.8574,-3.8574,-3.8574,-3.8789,-3.916,-3.918,-3.9414,-3.9805,-3.9551,-3.9414,-3.9492,-3.8989,-3.8564,-3.8375,-3.8282,-3.8209,-3.8209,-3.8009,-3.7862,-3.7789,-3.7568,-3.7421,-3.7402,-3.7476,-3.7402,-3.7402,-3.7421,-3.7568,-3.7715,-3.7715,-3.7862,-3.8136,-3.8136,-3.8136,-3.8136,-3.7904,-3.7536,-3.7277,-3.7035,-3.6886,-3.6571,-3.659,-3.6664,-3.6664,-3.6516,-3.6442,-3.6423,-3.6275,-3.6201,-3.6201,-3.6201,-3.6201,-3.6201,-3.6201,-3.6201,-3.6201,-3.6201,-3.6201,-3.6201,-3.6201,-3.6201,-3.6311,-3.6439,-3.6604,-3.6709,-3.6573,-3.6113,-3.5626,-3.4362,-3.3678,-3.257,-3.2515,-3.2089,-3.1737,-3.1933,-3.1188,-4.8682,-4.8486,-4.8313,-4.805,-4.7696,-4.7563,-4.7563,-4.7696,-4.7696,-4.7828,-4.7984,-4.8158,-4.8182,-4.7984,-4.8182,-4.8182,-4.7984,-4.7984,-4.7984,-4.7984,-4.7984,-4.7918,-4.7575,-4.7034,-4.6569,-4.6166,-4.4721,-4.382,-4.3364,-4.2903,-4.2512,-4.2082,-4.1743,-4.1156,-4.0038,-3.9536,-3.8858,-3.8465,-3.8457,-3.8574,-3.8574,-3.8574,-3.8672,-3.8906,-3.8945,-3.9101,-3.9258,-3.9082,-3.8945,-3.8887,-3.8711,-3.8574,-3.8574,-3.8574,-3.8574,-3.8574,-3.8355,-3.8209,-3.8228,-3.8009,-3.7916,-3.7916,-3.7916,-3.7916,-3.7916,-3.7916,-3.8063,-3.8228,-3.8082,-3.8228,-3.8501,-3.8574,-3.8574,-3.8501,-3.8136,-3.777,-3.7329,-3.7347,-3.7107,-3.6812,-3.6738,-3.6738,-3.6664,-3.659,-3.6442,-3.6442,-3.6367,-3.6275,-3.6201,-3.6201,-3.6201,-3.6275,-3.6275,-3.6275,-3.6275,-3.6275,-3.633,-3.633,-3.6366,-3.6347,-3.6402,-3.6549,-3.6549,-3.6696,-3.6842,-3.6776,-3.6308,-3.5617,-3.4592,-3.3947,-3.4096,-3.4002,-3.3497,-3.3397,-3.2577,-4.9137,-4.9072,-4.8772,-4.8445,-4.8026,-4.7762,-4.7828,-4.8026,-4.8026,-4.8248,-4.851,-4.86,-4.8576,-4.86,-4.8576,-4.8576,-4.86,-4.8445,-4.851,-4.851,-4.8445,-4.8379,-4.8109,-4.7506,-4.6989,-4.6661,-4.5745,-4.5088,-4.4736,-4.4876,-4.4562,-4.379,-4.3628,-4.2571,-4.1156,-4.0466,-3.9566,-3.8692,-3.8885,-3.8846,-3.872,-3.8574,-3.8613,-3.8633,-3.8652,-3.8652,-3.8691,-3.8613,-3.8613,-3.8594,-3.8574,-3.8574,-3.8574,-3.8574,-3.8574,-3.8574,-3.8574,-3.8574,-3.8574,-3.8501,-3.8501,-3.8501,-3.8501,-3.8574,-3.8501,-3.8428,-3.8501,-3.8501,-3.8302,-3.8302,-3.8501,-3.8574,-3.8574,-3.8574,-3.8574,-3.8375,-3.8082,-3.7936,-3.7789,-3.7421,-3.7329,-3.7255,-3.7181,-3.696,-3.6664,-3.6442,-3.6293,-3.6201,-3.6275,-3.6349,-3.6349,-3.6367,-3.6442,-3.6442,-3.6442,-3.6423,-3.6515,-3.6496,-3.6567,-3.6604,-3.6586,-3.6622,-3.6476,-3.6531,-3.6952,-3.7173,-3.7071,-3.6255,-3.5453,-3.5608,-3.6012,-3.5295,-3.4618,-3.483,-3.4457,-4.9332,-4.9072,-4.9007,-4.8837,-4.851,-4.8379,-4.8379,-4.8445,-4.8445,-4.851,-4.8666,-4.8902,-4.8837,-4.8666,-4.8902,-4.8837,-4.8666,-4.8641,-4.8576,-4.8576,-4.8576,-4.8772,-4.8747,-4.8314,-4.7734,-4.7086,-4.6704,-4.6053,-4.5477,-4.5351,-4.5223,-4.4601,-4.4347,-4.3661,-4.2437,-4.204,-4.141,-4.0,-4.0004,-3.9602,-3.8846,-3.8647,-3.8574,-3.8574,-3.8574,-3.8574,-3.8574,-3.8574,-3.8574,-3.8574,-3.8574,-3.8574,-3.8574,-3.8574,-3.8574,-3.8574,-3.8574,-3.8574,-3.8574,-3.8574,-3.8574,-3.8574,-3.8574,-3.8574,-3.8574,-3.8574,-3.8574,-3.8574,-3.8501,-3.8501,-3.8574,-3.8574,-3.8574,-3.8574,-3.8574,-3.8448,-3.8082,-3.7715,-3.7402,-3.7034,-3.6738,-3.6497,-3.6497,-3.6497,-3.6349,-3.6349,-3.6275,-3.6201,-3.6349,-3.6516,-3.659,-3.6664,-3.6812,-3.6812,-3.6831,-3.6831,-3.6886,-3.6923,-3.69,-3.7007,-3.6989,-3.6934,-3.6879,-3.6989,-3.7228,-3.7338,-3.7298,-3.7517,-3.6809,-3.7342,-3.7708,-3.7108,-3.6567,-3.662,-3.6299,-4.9525,-4.9332,-4.9202,-4.9007,-4.8837,-4.8641,-4.8731,-4.8837,-4.8837,-4.8902,-4.9097,-4.9267,-4.9202,-4.9097,-4.9267,-4.9202,-4.9097,-4.9097,-4.9097,-4.9097,-4.9097,-4.9162,-4.9267,-4.9152,-4.8625,-4.7767,-4.6858,-4.6253,-4.5982,-4.5797,-4.5622,-4.5192,-4.5063,-4.4225,-4.3253,-4.3263,-4.234,-4.1013,-4.0751,-4.0392,-3.9694,-3.8918,-3.8574,-3.8574,-3.8574,-3.8574,-3.8574,-3.8574,-3.8574,-3.8574,-3.8574,-3.8574,-3.8574,-3.8574,-3.8574,-3.8574,-3.8574,-3.8574,-3.8574,-3.8574,-3.8574,-3.8574,-3.8574,-3.8574,-3.8574,-3.8574,-3.8574,-3.8574,-3.8574,-3.8574,-3.8574,-3.8574,-3.8574,-3.8574,-3.8574,-3.8501,-3.8228,-3.7789,-3.7255,-3.6886,-3.6497,-3.6275,-3.6201,-3.6275,-3.6201,-3.6275,-3.6275,-3.6275,-3.6516,-3.6738,-3.6886,-3.7034,-3.7181,-3.7274,-3.7312,-3.7333,-3.7446,-3.7407,-3.7401,-3.7488,-3.7539,-3.7484,-3.7411,-3.7503,-3.7539,-3.7448,-3.7503,-3.7741,-3.7943,-3.7855,-3.7958,-3.8341,-3.831,-3.7711,-3.7454,-4.959,-4.959,-4.9267,-4.9202,-4.9137,-4.8902,-4.8967,-4.9137,-4.9202,-4.9332,-4.9525,-4.959,-4.9525,-4.959,-4.9525,-4.959,-4.959,-4.9525,-4.9461,-4.9461,-4.9461,-4.9461,-4.95,-4.935,-4.9099,-4.8598,-4.7333,-4.6638,-4.6427,-4.618,-4.581,-4.5659,-4.5556,-4.4777,-4.3782,-4.3928,-4.3615,-4.2168,-4.1674,-4.1084,-4.0463,-3.9333,-3.8647,-3.8574,-3.8574,-3.8574,-3.8574,-3.8574,-3.8574,-3.8574,-3.8574,-3.8574,-3.8574,-3.8574,-3.8574,-3.8574,-3.8574,-3.8574,-3.8574,-3.8574,-3.8574,-3.8574,-3.8574,-3.8574,-3.8574,-3.8574,-3.8574,-3.8574,-3.8574,-3.8574,-3.8574,-3.8574,-3.8574,-3.8574,-3.8574,-3.8574,-3.8501,-3.7916,-3.7402,-3.7107,-3.6812,-3.6664,-3.6497,-3.6497,-3.6349,-3.6275,-3.6275,-3.6423,-3.6738,-3.696,-3.72,-3.7476,-3.7696,-3.8015,-3.8092,-3.831,-3.8368,-3.8215,-3.8133,-3.8124,-3.819,-3.8172,-3.8158,-3.7796,-3.77,-3.7741,-3.7759,-3.7979,-3.8089,-3.8071,-3.8199,-3.8377,-3.8487,-3.864,-3.8408,-4.959,-4.959,-4.9525,-4.9525,-4.9525,-4.9461,-4.9396,-4.9525,-4.9461,-4.9525,-4.959,-4.959,-4.959,-4.959,-4.959,-4.959,-4.959,-4.959,-4.959,-4.959,-4.959,-4.959,-4.954,-4.9264,-4.9001,-4.8636,-4.7821,-4.7145,-4.6459,-4.6027,-4.5858,-4.576,-4.5624,-4.5088,-4.5059,-4.563,-4.5219,-4.3702,-4.317,-4.2435,-4.1276,-3.9766,-3.872,-3.8647,-3.8574,-3.8574,-3.8574,-3.8574,-3.8574,-3.8574,-3.8574,-3.8574,-3.8574,-3.8574,-3.8574,-3.8574,-3.8574,-3.8574,-3.8574,-3.8574,-3.8574,-3.8574,-3.8574,-3.8574,-3.8574,-3.8574,-3.8574,-3.8594,-3.8594,-3.8594,-3.8574,-3.8633,-3.8594,-3.8594,-3.8594,-3.8574,-3.8501,-3.8228,-3.7862,-3.7715,-3.7402,-3.7034,-3.6886,-3.6812,-3.6812,-3.6738,-3.6738,-3.6886,-3.7181,-3.7347,-3.7495,-3.7862,-3.8209,-3.8608,-3.8915,-3.9238,-3.9433,-3.9375,-3.9256,-3.9037,-3.9127,-3.9123,-3.891,-3.8453,-3.8218,-3.831,-3.8328,-3.8231,-3.8328,-3.8383,-3.8396,-3.8469,-3.8505,-3.8621,-3.8475,-4.959,-4.959,-4.959,-4.959,-4.959,-4.959,-4.959,-4.959,-4.959,-4.959,-4.959,-4.959,-4.959,-4.959,-4.959,-4.959,-4.959,-4.959,-4.959,-4.959,-4.959,-4.959,-4.959,-4.9289,-4.8812,-4.841,-4.7983,-4.7506,-4.6778,-4.627,-4.5963,-4.5806,-4.5748,-4.5515,-4.533,-4.5939,-4.6118,-4.5208,-4.4674,-4.3983,-4.2988,-4.1013,-3.955,-3.8793,-3.8574,-3.8574,-3.8574,-3.8574,-3.8574,-3.8574,-3.8574,-3.8574,-3.8574,-3.8574,-3.8574,-3.8574,-3.8574,-3.8574,-3.8574,-3.8574,-3.8574,-3.8574,-3.8574,-3.8574,-3.8574,-3.8574,-3.8574,-3.8613,-3.8848,-3.8887,-3.8906,-3.8867,-3.8887,-3.8867,-3.873,-3.8594,-3.8574,-3.8428,-3.8302,-3.8228,-3.7715,-3.7329,-3.7181,-3.7181,-3.7255,-3.7181,-3.7107,-3.7329,-3.7642,-3.7715,-3.7789,-3.8233,-3.8584,-3.9047,-3.9434,-3.9755,-4.0183,-4.0182,-4.0123,-3.9924,-3.9666,-3.949,-3.9333,-3.9003,-3.8859,-3.864,-3.8603,-3.8475,-3.8585,-3.864,-3.8542,-3.8524,-3.8542,-3.8585,-3.8475,-4.959,-4.959,-4.959,-4.959,-4.959,-4.959,-4.959,-4.959,-4.959,-4.959,-4.959,-4.959,-4.959,-4.959,-4.959,-4.959,-4.959,-4.959,-4.959,-4.959,-4.959,-4.959,-4.9565,-4.9339,-4.8887,-4.8083,-4.7732,-4.7481,-4.6878,-4.6441,-4.617,-4.5963,-4.5878,-4.5696,-4.5601,-4.6056,-4.6475,-4.6397,-4.5847,-4.5352,-4.4209,-4.2263,-4.0105,-3.8773,-3.8574,-3.8574,-3.8574,-3.8574,-3.8574,-3.8574,-3.8574,-3.8574,-3.8574,-3.8574,-3.8574,-3.8574,-3.8574,-3.8574,-3.8574,-3.8574,-3.8574,-3.8574,-3.8574,-3.8574,-3.8574,-3.8574,-3.8574,-3.8633,-3.8809,-3.9062,-3.9082,-3.9082,-3.9101,-3.9101,-3.8828,-3.8574,-3.8574,-3.8574,-3.8501,-3.8282,-3.7916,-3.7715,-3.7549,-3.7696,-3.777,-3.7642,-3.7495,-3.7696,-3.8009,-3.7936,-3.8047,-3.853,-3.8965,-3.9414,-3.9768,-4.016,-4.0453,-4.0608,-4.0491,-4.0353,-4.0059,-3.9745,-3.9509,-3.9272,-3.8877,-3.864,-3.864,-3.864,-3.864,-3.864,-3.864,-3.864,-3.864,-3.864,-3.8585,-4.959,-4.959,-4.959,-4.959,-4.959,-4.959,-4.959,-4.959,-4.959,-4.959,-4.959,-4.959,-4.959,-4.959,-4.959,-4.959,-4.959,-4.959,-4.959,-4.959,-4.959,-4.959,-4.9515,-4.9063,-4.8661,-4.7983,-4.7506,-4.6928,-4.6577,-4.6376,-4.6351,-4.623,-4.5988,-4.5782,-4.593,-4.6253,-4.6662,-4.6777,-4.6237,-4.4771,-4.2644,-4.1559,-4.0392,-3.9136,-3.872,-3.872,-3.8647,-3.8574,-3.8574,-3.8574,-3.8574,-3.8574,-3.8574,-3.8574,-3.8574,-3.8574,-3.8574,-3.8574,-3.8574,-3.8574,-3.8574,-3.8574,-3.8574,-3.8574,-3.8574,-3.8574,-3.8574,-3.8574,-3.8711,-3.8906,-3.9101,-3.8926,-3.8926,-3.8926,-3.8848,-3.8633,-3.8574,-3.8574,-3.8574,-3.8574,-3.8209,-3.8082,-3.8009,-3.8209,-3.8355,-3.8155,-3.8009,-3.8155,-3.8302,-3.8155,-3.8155,-3.8545,-3.916,-3.9629,-4.0,-4.0355,-4.0705,-4.0977,-4.0919,-4.0763,-4.0451,-4.0137,-3.9745,-3.9509,-3.9035,-3.8719,-3.8719,-3.8719,-3.864,-3.864,-3.864,-3.864,-3.864,-3.864,-3.864,-4.959,-4.959,-4.959,-4.959,-4.959,-4.959,-4.959,-4.959,-4.959,-4.959,-4.959,-4.959,-4.959,-4.959,-4.959,-4.959,-4.959,-4.959,-4.959,-4.959,-4.959,-4.959,-4.954,-4.9314,-4.8837,-4.8058,-4.7606,-4.7129,-4.6627,-4.6376,-4.6401,-4.6617,-4.6355,-4.6259,-4.6334,-4.6409,-4.6872,-4.7246,-4.7164,-4.6149,-4.4392,-4.3495,-4.2403,-3.9982,-3.9838,-3.9333,-3.8793,-3.8574,-3.8574,-3.8574,-3.8574,-3.8574,-3.8574,-3.8574,-3.8574,-3.8574,-3.8574,-3.8574,-3.8574,-3.8574,-3.8574,-3.8574,-3.8574,-3.8574,-3.8574,-3.8574,-3.8574,-3.8574,-3.9062,-3.9277,-3.9297,-3.9297,-3.9238,-3.9141,-3.8848,-3.8672,-3.8574,-3.8574,-3.8574,-3.8574,-3.8574,-3.8448,-3.8302,-3.8428,-3.8501,-3.8355,-3.8302,-3.8375,-3.8428,-3.8428,-3.8428,-3.8594,-3.918,-3.9844,-4.0156,-4.0451,-4.0821,-4.1074,-4.1094,-4.1016,-4.0841,-4.0607,-4.0137,-3.9883,-3.9666,-3.9351,-3.9114,-3.8877,-3.8719,-3.864,-3.864,-3.864,-3.864,-3.864,-3.864,-4.959,-4.959,-4.959,-4.959,-4.959,-4.959,-4.959,-4.959,-4.959,-4.959,-4.959,-4.959,-4.959,-4.959,-4.959,-4.959,-4.959,-4.959,-4.959,-4.959,-4.959,-4.959,-4.959,-4.949,-4.9063,-4.8109,-4.8159,-4.7757,-4.7205,-4.6728,-4.6702,-4.6867,-4.6416,-4.6441,-4.6617,-4.6592,-4.6817,-4.7758,-4.8217,-4.7416,-4.5996,-4.5661,-4.3656,-4.1771,-4.0678,-4.0105,-3.8865,-3.8574,-3.8574,-3.8574,-3.8574,-3.8574,-3.8574,-3.8574,-3.8574,-3.8574,-3.8574,-3.8574,-3.8574,-3.8574,-3.8574,-3.8574,-3.8574,-3.8574,-3.8574,-3.8574,-3.8672,-3.8769,-3.9199,-3.9473,-3.959,-3.9707,-3.9512,-3.9238,-3.8926,-3.873,-3.8574,-3.8574,-3.8574,-3.8574,-3.8574,-3.8574,-3.8501,-3.8574,-3.8574,-3.8574,-3.8574,-3.8574,-3.8574,-3.8574,-3.8574,-3.8594,-3.9043,-3.9687,-4.0078,-4.0449,-4.084,-4.1133,-4.1152,-4.1172,-4.1016,-4.0841,-4.0431,-4.0275,-4.0137,-3.9823,-3.9351,-3.9114,-3.8877,-3.8719,-3.864,-3.8719,-3.864,-3.864,-3.864,-4.959,-4.959,-4.959,-4.959,-4.959,-4.959,-4.959,-4.959,-4.959,-4.959,-4.959,-4.959,-4.959,-4.959,-4.959,-4.959,-4.959,-4.959,-4.959,-4.959,-4.959,-4.959,-4.959,-4.9515,-4.9289,-4.8736,-4.8586,-4.8535,-4.8284,-4.733,-4.6903,-4.6426,-4.6426,-4.6376,-4.6577,-4.6828,-4.7129,-4.7996,-4.8607,-4.811,-4.6913,-4.5999,-4.4413,-4.1912,-4.0871,-4.0105,-3.8793,-3.8647,-3.8574,-3.8574,-3.8574,-3.8574,-3.8574,-3.8574,-3.8574,-3.8574,-3.8574,-3.8574,-3.8574,-3.8574,-3.8574,-3.8574,-3.8574,-3.8574,-3.8574,-3.8594,-3.875,-3.9082,-3.9434,-3.9746,-3.9844,-3.9863,-3.9726,-3.9473,-3.918,-3.8848,-3.8691,-3.8594,-3.8594,-3.8574,-3.8574,-3.8574,-3.8574,-3.8574,-3.8574,-3.8574,-3.8574,-3.8574,-3.8574,-3.8574,-3.8574,-3.8652,-3.8965,-3.9414,-3.9844,-4.0254,-4.0703,-4.0976,-4.1094,-4.1133,-4.1172,-4.0919,-4.0666,-4.0509,-4.0372,-3.9981,-3.9823,-3.9745,-3.9588,-3.9035,-3.8798,-3.8798,-3.8719,-3.864,-3.864,-4.959,-4.959,-4.959,-4.959,-4.959,-4.959,-4.959,-4.959,-4.959,-4.959,-4.959,-4.959,-4.959,-4.959,-4.959,-4.959,-4.959,-4.959,-4.959,-4.959,-4.959,-4.959,-4.959,-4.9515,-4.9314,-4.8912,-4.8786,-4.851,-4.8083,-4.7807,-4.7631,-4.7205,-4.6702,-4.6878,-4.7079,-4.7506,-4.7983,-4.8284,-4.8735,-4.8481,-4.8306,-4.7606,-4.6358,-4.4207,-4.2452,-4.1488,-4.0105,-3.9063,-3.872,-3.8574,-3.8574,-3.8574,-3.8574,-3.8574,-3.8574,-3.8574,-3.8574,-3.8574,-3.8574,-3.8574,-3.8574,-3.8574,-3.8574,-3.8594,-3.8633,-3.8789,-3.8965,-3.9277,-3.9687,-4.0117,-3.9941,-4.0059,-4.0059,-3.9805,-3.9453,-3.9043,-3.8789,-3.8652,-3.8594,-3.8574,-3.8574,-3.8574,-3.8574,-3.8574,-3.8574,-3.8574,-3.8574,-3.8574,-3.8574,-3.8574,-3.8574,-3.8633,-3.8906,-3.9121,-3.9531,-4.0039,-4.0527,-4.0781,-4.0996,-4.1074,-4.1133,-4.1172,-4.0997,-4.0763,-4.0607,-4.0451,-4.0372,-4.0529,-4.0216,-3.943,-3.9114,-3.9035,-3.8877,-3.864,-3.864,-4.995,-4.959,-4.959,-4.959,-4.959,-4.959,-4.959,-4.959,-4.959,-4.959,-4.959,-4.959,-4.959,-4.959,-4.959,-4.959,-4.959,-4.959,-4.959,-4.959,-4.959,-4.959,-4.959,-4.954,-4.9414,-4.9063,-4.8987,-4.8812,-4.8586,-4.8284,-4.8159,-4.7857,-4.733,-4.7431,-4.7757,-4.846,-4.8786,-4.885,-4.8987,-4.9035,-4.9047,-4.8616,-4.7539,-4.5729,-4.4276,-4.2543,-4.1084,-3.9838,-3.9136,-3.8793,-3.8574,-3.8574,-3.8574,-3.8574,-3.8574,-3.8574,-3.8574,-3.8574,-3.8574,-3.8574,-3.8574,-3.8574,-3.8574,-3.8652,-3.8809,-3.9062,-3.9219,-3.9707,-4.0195,-4.043,-4.0176,-4.0391,-4.0215,-3.9902,-3.9453,-3.9062,-3.8828,-3.8672,-3.8613,-3.8574,-3.8574,-3.8574,-3.8574,-3.8574,-3.8574,-3.8574,-3.8574,-3.8574,-3.8574,-3.8574,-3.8574,-3.8652,-3.8769,-3.8984,-3.9219,-3.9609,-4.0039,-4.0586,-4.0801,-4.0996,-4.1074,-4.1113,-4.1172,-4.1016,-4.0919,-4.0919,-4.0841,-4.0763,-4.0294,-3.9666,-3.943,-3.9193,-3.9035,-3.8798,-3.864,-5.0727,-4.9654,-4.959,-4.959,-4.959,-4.959,-4.959,-4.959,-4.959,-4.959,-4.959,-4.959,-4.959,-4.959,-4.959,-4.959,-4.959,-4.959,-4.959,-4.959,-4.959,-4.959,-4.959,-4.9565,-4.954,-4.959,-4.9464,-4.9389,-4.9389,-4.8962,-4.8786,-4.8636,-4.8209,-4.7908,-4.8008,-4.851,-4.8786,-4.8862,-4.9314,-4.9296,-4.9112,-4.8837,-4.7606,-4.656,-4.5323,-4.3587,-4.2144,-4.0728,-3.989,-3.9208,-3.872,-3.8647,-3.8574,-3.8574,-3.8574,-3.8574,-3.8574,-3.8574,-3.8574,-3.8574,-3.8594,-3.8672,-3.873,-3.8848,-3.9101,-3.9336,-3.959,-4.0137,-4.0508,-4.0762,-4.0781,-4.0762,-4.041,-4.0019,-3.959,-3.9199,-3.8984,-3.8672,-3.8613,-3.8574,-3.8574,-3.8574,-3.8574,-3.8574,-3.8574,-3.8574,-3.8574,-3.8574,-3.8574,-3.8574,-3.8574,-3.8613,-3.8691,-3.8789,-3.8984,-3.9141,-3.9551,-4.0156,-4.0605,-4.0801,-4.0996,-4.1094,-4.1133,-4.1152,-4.1094,-4.0919,-4.0919,-4.0841,-4.0451,-4.0137,-3.9588,-3.9351,-3.9193,-3.9035,-3.8798,-5.079,-4.959,-4.959,-4.959,-4.959,-4.959,-4.959,-4.959,-4.959,-4.959,-4.959,-4.959,-4.959,-4.959,-4.959,-4.959,-4.959,-4.959,-4.959,-4.959,-4.959,-4.959,-4.959,-4.959,-4.959,-4.959,-4.959,-4.959,-4.954,-4.9314,-4.9314,-4.9213,-4.8987,-4.8837,-4.8736,-4.8987,-4.9314,-4.9339,-4.9515,-4.9525,-4.9357,-4.8902,-4.8248,-4.7473,-4.618,-4.4778,-4.347,-4.2052,-4.0657,-3.9838,-3.9281,-3.8647,-3.8574,-3.8574,-3.8574,-3.8574,-3.8574,-3.8574,-3.8574,-3.8594,-3.873,-3.8867,-3.8984,-3.916,-3.959,-3.9941,-4.0254,-4.0488,-4.0781,-4.0996,-4.1055,-4.1055,-4.0762,-4.0371,-3.9941,-3.9512,-3.918,-3.8789,-3.8574,-3.8574,-3.8574,-3.8574,-3.8574,-3.8574,-3.8574,-3.8574,-3.8574,-3.8574,-3.8574,-3.8574,-3.8574,-3.8574,-3.8613,-3.8672,-3.8769,-3.8945,-3.9141,-3.9629,-4.0176,-4.0586,-4.0781,-4.0937,-4.1074,-4.1074,-4.1035,-4.1016,-4.0997,-4.0997,-4.0938,-4.0704,-4.0137,-3.9666,-3.943,-3.9272,-3.9035,-5.1393,-5.0245,-4.9783,-4.959,-4.959,-4.959,-4.959,-4.959,-4.959,-4.959,-4.959,-4.959,-4.959,-4.959,-4.959,-4.959,-4.959,-4.959,-4.959,-4.959,-4.959,-4.959,-4.959,-4.959,-4.959,-4.959,-4.959,-4.959,-4.959,-4.959,-4.9565,-4.954,-4.959,-4.9339,-4.9238,-4.9389,-4.9565,-4.954,-4.959,-4.959,-4.9396,-4.9072,-4.8706,-4.8116,-4.7141,-4.5887,-4.4778,-4.3171,-4.1276,-4.0657,-3.9622,-3.872,-3.8647,-3.8574,-3.8574,-3.8574,-3.8574,-3.8574,-3.8574,-3.8574,-3.8848,-3.9375,-3.9316,-3.9531,-3.998,-4.0293,-4.0547,-4.0781,-4.1035,-4.1113,-4.1172,-4.1172,-4.0859,-4.0449,-4.0,-3.9551,-3.9238,-3.8848,-3.8574,-3.8574,-3.8574,-3.8574,-3.8574,-3.8574,-3.8574,-3.8574,-3.8574,-3.8574,-3.8574,-3.8574,-3.8574,-3.8574,-3.8574,-3.8613,-3.8672,-3.8769,-3.8965,-3.918,-3.9648,-4.0176,-4.043,-4.0566,-4.0781,-4.0996,-4.1055,-4.1035,-4.1152,-4.1172,-4.1094,-4.1016,-4.0782,-4.0294,-3.9823,-3.949,-3.9254,-5.2754,-5.1455,-5.0142,-4.9654,-4.9654,-4.9758,-4.9783,-4.9719,-4.9719,-4.9719,-4.959,-4.959,-4.959,-4.959,-4.959,-4.959,-4.959,-4.959,-4.959,-4.959,-4.959,-4.959,-4.959,-4.959,-4.959,-4.959,-4.959,-4.959,-4.959,-4.959,-4.959,-4.959,-4.959,-4.9515,-4.9515,-4.954,-4.959,-4.959,-4.959,-4.959,-4.9461,-4.9267,-4.8902,-4.8445,-4.7828,-4.6851,-4.5617,-4.4001,-4.2473,-4.1155,-3.9694,-3.8991,-3.8647,-3.8574,-3.8574,-3.8574,-3.8574,-3.8574,-3.8574,-3.8574,-3.9043,-3.957,-3.9473,-3.9805,-4.0273,-4.0625,-4.0781,-4.0957,-4.1133,-4.1152,-4.1172,-4.0918,-4.0684,-4.0234,-3.9785,-3.9453,-3.9199,-3.8906,-3.8652,-3.8574,-3.8574,-3.8574,-3.8574,-3.8574,-3.8574,-3.8574,-3.8574,-3.8574,-3.8574,-3.8574,-3.8574,-3.8574,-3.8574,-3.8574,-3.8633,-3.8691,-3.875,-3.8945,-3.918,-3.9609,-3.9883,-4.0176,-4.0391,-4.0625,-4.0918,-4.1055,-4.1133,-4.1172,-4.1172,-4.1094,-4.0938,-4.0685,-4.0197,-3.9805,-3.9588,-5.3268,-5.2692,-5.0563,-5.0117,-5.0916,-5.0954,-5.0979,-5.0979,-5.0916,-5.0563,-4.959,-4.959,-4.9654,-4.959,-4.959,-4.959,-4.959,-4.959,-4.959,-4.959,-4.959,-4.959,-4.959,-4.959,-4.959,-4.959,-4.959,-4.959,-4.959,-4.959,-4.959,-4.959,-4.959,-4.959,-4.959,-4.959,-4.959,-4.959,-4.959,-4.959,-4.9525,-4.9332,-4.8967,-4.8641,-4.8248,-4.7407,-4.6583,-4.5278,-4.3794,-4.2333,-4.0942,-3.989,-3.8647,-3.8574,-3.8574,-3.8574,-3.8574,-3.8574,-3.8574,-3.8574,-3.8965,-3.9668,-3.9707,-4.0215,-4.0684,-4.0976,-4.1016,-4.1113,-4.1172,-4.1172,-4.1133,-4.0937,-4.0742,-4.043,-3.9961,-3.9551,-3.9277,-3.8945,-3.8691,-3.8574,-3.8574,-3.8574,-3.8574,-3.8574,-3.8574,-3.8574,-3.8574,-3.8574,-3.8574,-3.8574,-3.8574,-3.8574,-3.8574,-3.8574,-3.8574,-3.8613,-3.8652,-3.873,-3.8965,-3.916,-3.9394,-3.9687,-3.9961,-4.0234,-4.0527,-4.0859,-4.1133,-4.1133,-4.1035,-4.1152,-4.1094,-4.0841,-4.0588,-4.0197,-3.9823,-5.3784,-5.3784,-5.0879,-5.0626,-5.2139,-5.2324,-5.2543,-5.2849,-5.2482,-5.158,-5.0436,-5.0372,-5.0053,-4.959,-4.959,-4.959,-4.959,-4.959,-4.959,-4.959,-4.959,-4.959,-4.959,-4.959,-4.959,-4.959,-4.959,-4.959,-4.959,-4.959,-4.959,-4.959,-4.959,-4.959,-4.959,-4.959,-4.959,-4.959,-4.959,-4.959,-4.9525,-4.9396,-4.9137,-4.8747,-4.8355,-4.805,-4.7563,-4.618,-4.4641,-4.3101,-4.1559,-4.0105,-3.8938,-3.8574,-3.8574,-3.8574,-3.8574,-3.8574,-3.8574,-3.8574,-3.9101,-3.9609,-3.9902,-4.0351,-4.0781,-4.1113,-4.1133,-4.1172,-4.1172,-4.1152,-4.1094,-4.1016,-4.0898,-4.0781,-4.0234,-3.9707,-3.9336,-3.8965,-3.8769,-3.8613,-3.8574,-3.8574,-3.8574,-3.8574,-3.8574,-3.8574,-3.8574,-3.8574,-3.8574,-3.8574,-3.8574,-3.8574,-3.8574,-3.8574,-3.8574,-3.8574,-3.8613,-3.8633,-3.8711,-3.8906,-3.9043,-3.9277,-3.9609,-3.9883,-4.0117,-4.0449,-4.0781,-4.0879,-4.0859,-4.0996,-4.1113,-4.1055,-4.0821,-4.0588,-4.0137,-5.4382,-5.5208,-5.1481,-5.1356,-5.3302,-5.3423,-5.4084,-5.5208,-5.4263,-5.2998,-5.1865,-5.1616,-5.0979,-5.0181,-5.0014,-4.9758,-4.9654,-4.959,-4.959,-4.959,-4.959,-4.959,-4.959,-4.959,-4.959,-4.959,-4.959,-4.959,-4.959,-4.959,-4.959,-4.959,-4.959,-4.959,-4.959,-4.959,-4.959,-4.959,-4.959,-4.959,-4.9525,-4.9525,-4.9461,-4.9007,-4.8706,-4.8379,-4.7696,-4.6382,-4.4709,-4.3171,-4.1841,-4.0392,-3.9136,-3.8574,-3.8574,-3.8574,-3.8574,-3.8574,-3.8574,-3.8574,-3.9082,-3.957,-3.9922,-4.0391,-4.084,-4.1133,-4.1172,-4.1172,-4.1172,-4.1172,-4.1113,-4.1035,-4.0937,-4.0781,-4.041,-4.0117,-3.9941,-3.9414,-3.8828,-3.8672,-3.8574,-3.8574,-3.8574,-3.8574,-3.8574,-3.8574,-3.8574,-3.8574,-3.8865,-3.8865,-3.872,-3.872,-3.8574,-3.8574,-3.8574,-3.8574,-3.8574,-3.8594,-3.8633,-3.8652,-3.8789,-3.9043,-3.9297,-3.9531,-3.9766,-4.0059,-4.0312,-4.043,-4.0605,-4.0879,-4.0996,-4.1094,-4.0958,-4.0821,-4.0509,-5.5703,-5.6594,-5.3784,-5.3025,-5.3423,-5.3483,-5.4204,-5.5442,-5.6165,-5.5091,-5.3302,-5.2937,-5.2201,-5.1042,-5.0853,-5.0473,-4.9719,-4.959,-4.959,-4.9654,-4.9654,-4.9719,-4.9654,-4.9783,-4.9654,-4.959,-4.959,-4.959,-4.959,-4.959,-4.959,-4.959,-4.959,-4.959,-4.959,-4.959,-4.959,-4.959,-4.959,-4.9461,-4.9267,-4.9396,-4.9332,-4.8902,-4.86,-4.8379,-4.7828,-4.734,-4.5323,-4.3448,-4.2823,-4.1155,-3.8846,-3.8647,-3.8574,-3.8574,-3.8574,-3.8574,-3.8574,-3.8633,-3.9062,-3.957,-4.0,-4.0469,-4.084,-4.1055,-4.1172,-4.1172,-4.1172,-4.1172,-4.1152,-4.1055,-4.0976,-4.0781,-4.0566,-4.0527,-4.0469,-3.9746,-3.8965,-3.873,-3.8613,-3.8574,-3.8574,-3.8574,-3.8574,-3.8574,-3.8574,-3.8793,-3.9405,-3.955,-3.9063,-3.8918,-3.8647,-3.8574,-3.8574,-3.8574,-3.8574,-3.8574,-3.8594,-3.8594,-3.8574,-3.8769,-3.9004,-3.918,-3.9414,-3.9648,-3.9844,-4.0,-4.0215,-4.0547,-4.0801,-4.0859,-4.1055,-4.0958,-4.0744,-5.6165,-5.6992,-5.515,-5.3992,-5.3664,-5.4084,-5.4738,-5.5528,-5.6765,-5.6537,-5.5208,-5.4501,-5.3335,-5.1741,-5.1518,-5.0853,-4.9847,-4.959,-4.959,-4.9654,-5.0078,-5.0014,-5.0014,-5.0142,-4.9886,-4.9847,-4.9654,-4.959,-4.959,-4.959,-4.959,-4.959,-4.959,-4.959,-4.959,-4.959,-4.959,-4.959,-4.959,-4.9332,-4.9007,-4.9137,-4.9162,-4.8706,-4.8379,-4.8248,-4.8026,-4.7563,-4.5729,-4.324,-4.17,-4.0443,-3.8846,-3.8647,-3.8574,-3.8574,-3.8574,-3.8574,-3.8574,-3.8711,-3.9023,-3.957,-3.9902,-4.0312,-4.0957,-4.1172,-4.1172,-4.1172,-4.1172,-4.1172,-4.1172,-4.1113,-4.1094,-4.0976,-4.0625,-4.0391,-4.0156,-3.9668,-3.9043,-3.8652,-3.8574,-3.8574,-3.8574,-3.8574,-3.8574,-3.8574,-3.8574,-3.9208,-3.9766,-4.0249,-3.9766,-3.9478,-3.9405,-3.8865,-3.8574,-3.8574,-3.8574,-3.8574,-3.8793,-3.8574,-3.8574,-3.8574,-3.8672,-3.8887,-3.9043,-3.916,-3.9355,-3.9531,-3.9824,-4.0156,-4.041,-4.0625,-4.082,-4.1016,-4.0919,-5.6337,-5.7049,-5.5934,-5.4619,-5.3784,-5.4856,-5.5208,-5.5383,-5.6651,-5.7303,-5.7021,-5.5992,-5.4176,-5.2727,-5.1705,-5.0853,-5.0142,-4.9783,-4.9654,-4.995,-5.0853,-5.0664,-5.0664,-5.079,-5.0372,-4.995,-4.959,-4.959,-4.959,-4.959,-4.959,-4.959,-4.959,-4.959,-4.959,-4.959,-4.959,-4.959,-4.9461,-4.9227,-4.9032,-4.8877,-4.8837,-4.8576,-4.8248,-4.8026,-4.7894,-4.7274,-4.582,-4.3656,-4.1084,-3.9622,-3.8846,-3.8574,-3.8574,-3.8574,-3.8574,-3.8574,-3.8594,-3.8711,-3.918,-3.9648,-3.9844,-4.0293,-4.0957,-4.1172,-4.1172,-4.1172,-4.1172,-4.1172,-4.1172,-4.1172,-4.1172,-4.1133,-4.0723,-4.0351,-4.0039,-3.9707,-3.9238,-3.875,-3.8633,-3.8633,-3.8574,-3.8574,-3.8574,-3.8574,-3.8918,-3.9694,-4.0249,-4.0586,-4.0535,-4.0586,-4.0728,-4.0033,-3.9208,-3.872,-3.8793,-3.9478,-3.9694,-3.9063,-3.8574,-3.8574,-3.8574,-3.8594,-3.873,-3.8867,-3.8965,-3.9101,-3.9414,-3.9746,-3.9883,-4.0098,-4.0449,-4.0664,-4.0937,-5.7049,-5.7191,-5.5934,-5.4679,-5.3844,-5.4884,-5.4797,-5.4323,-5.6366,-5.7303,-5.7247,-5.7078,-5.5992,-5.456,-5.3483,-5.2385,-5.1142,-5.0372,-4.9719,-4.9783,-5.0979,-5.1142,-5.1205,-5.1205,-5.06,-5.0078,-4.959,-4.959,-4.959,-4.959,-4.959,-4.959,-4.959,-4.959,-4.959,-4.959,-4.959,-4.959,-4.9525,-4.9267,-4.8902,-4.8747,-4.8616,-4.8355,-4.8026,-4.8026,-4.7894,-4.7696,-4.6449,-4.4573,-4.1982,-4.0054,-3.8991,-3.8574,-3.8574,-3.8574,-3.8574,-3.8574,-3.8613,-3.8848,-3.9336,-3.9785,-4.0078,-4.0527,-4.0996,-4.1172,-4.1172,-4.1172,-4.1172,-4.1172,-4.1172,-4.1172,-4.1172,-4.1172,-4.0937,-4.0684,-4.0391,-4.0019,-3.9609,-3.9141,-3.8789,-3.8711,-3.8574,-3.8574,-3.8574,-3.8574,-3.8574,-3.9405,-4.0871,-4.1084,-4.1368,-4.1771,-4.2052,-4.1418,-4.0657,-3.9353,-3.9208,-4.0105,-4.0463,-3.9622,-3.8991,-3.8647,-3.8574,-3.8647,-3.8574,-3.8672,-3.873,-3.8828,-3.8984,-3.9258,-3.9316,-3.9512,-3.9922,-4.0312,-4.0586]},{"header":{"parameterUnit":"m.s-1","parameterCategory":1,"la1":31.0,"la2":29.5877,"lo1":-88.7671,"lo2":-86.6584,"dx":0.0162,"dy":0.0185,"nx":115,"ny":88,"refTime":"2022-12-07T18:00:00:Z","depth":0,"parameterNumber":3,"parameterNumberName":"V-component_of_WINDS"},"data":[0.0,0.0,0.0,0.0,0.0,0.0,0.0,0.0,0.0,0.0,0.0,0.0,0.0,0.0,0.0,0.0,0.0,0.0,0.0,0.0,0.0,0.0,0.0,0.0,0.0,0.0,0.0,0.0,0.0,0.0,0.0,0.0,0.0,0.0,0.0,0.0,0.0,0.0,0.0,0.0,0.0,0.0,0.0,0.0,0.0,0.0,0.0,0.0,0.0,0.0,0.0,0.0,0.0,0.0,0.0,0.0,0.0,0.0,0.0,0.0,0.0,0.0,0.0,0.0,0.0,0.0,0.0,0.0,0.0,0.0,0.0,0.0,0.0,0.0,0.0,0.0,0.0,0.0,0.0,0.0,0.0,0.0,0.0,0.0,0.0,0.0,0.0,0.0,0.0,0.0,0.0,0.0,0.0,0.0,0.0,0.0,0.0,0.0,0.0,0.0,0.0,0.0,0.0,0.0,0.0,0.0,0.0,0.0,0.0,0.0,0.0,0.0,0.0,0.0,0.0,0.0,0.0,0.0,0.0,0.0,0.0,0.0,0.0,0.0,0.0,0.0,0.0,0.0,0.0,0.0,0.0,0.0,0.0,0.0,0.0,0.0,0.0,0.0,0.0,0.0,0.0,0.0,0.0,0.0,0.0,0.0,0.0,0.0,0.0,0.0,0.0,0.0,0.0,0.0,0.0,0.0,0.0,0.0,0.0,0.0,0.0,0.0,0.0,0.0,0.0,0.0,0.0,0.0,0.0,0.0,0.0,0.0,0.0,0.0,0.0,0.0,0.0,0.0,0.0,0.0,0.0,0.0,0.0,0.0,0.0,0.0,0.0,0.0,0.0,0.0,0.0,0.0,0.0,0.0,0.0,0.0,0.0,0.0,0.0,0.0,0.0,0.0,0.0,0.0,0.0,0.0,0.0,0.0,0.0,0.0,0.0,0.0,0.0,0.0,0.0,0.0,0.0,0.0,0.0,0.0,0.0,0.0,0.0,0.0,0.0,0.0,0.0,0.0,0.0,0.0,0.0,0.0,0.0,0.0,0.0,0.0,0.0,0.0,0.0,0.0,0.0,0.0,0.0,0.0,0.0,0.0,0.0,0.0,0.0,0.0,0.0,0.0,0.0,0.0,0.0,0.0,0.0,0.0,0.0,0.0,0.0,0.0,0.0,0.0,0.0,0.0,0.0,0.0,0.0,0.0,0.0,0.0,0.0,0.0,0.0,0.0,0.0,0.0,0.0,0.0,0.0,0.0,0.0,0.0,0.0,0.0,0.0,0.0,0.0,0.0,0.0,0.0,0.0,0.0,0.0,0.0,0.0,0.0,0.0,0.0,0.0,0.0,0.0,0.0,0.0,0.0,0.0,0.0,0.0,0.0,0.0,0.0,0.0,0.0,0.0,0.0,0.0,0.0,0.0,0.0,0.0,0.0,0.0,0.0,0.0,0.0,0.0,0.0,0.0,0.0,0.0,0.0,0.0,0.0,0.0,0.0,0.0,0.0,0.0,0.0,0.0,0.0,0.0,0.0,0.0,0.0,0.0,0.0,0.0,0.0,0.0,0.0,0.0,0.0,0.0,0.0,0.0,0.0,0.0,0.0,0.0,0.0,0.0,0.0,0.0,0.0,0.0,0.0,0.0,0.0,0.0,0.0,0.0,0.0,0.0,0.0,0.0,0.0,0.0,0.0,0.0,0.0,0.0,0.0,0.0,0.0,0.0,0.0,0.0,0.0,0.0,0.0,0.0,0.0,0.0,0.0,0.0,0.0,0.0,0.0,0.0,0.0,0.0,0.0,0.0,0.0,0.0,0.0,0.0,0.0,0.0,0.0,0.0,0.0,0.0,0.0,0.0,0.0,0.0,0.0,0.0,0.0,0.0,0.0,0.0,0.0,0.0,0.0,0.0,0.0,0.0,0.0,0.0,0.0,0.0,0.0,0.0,0.0,0.0,0.0,0.0,0.0,0.0,0.0,0.0,0.0,0.0,0.0,0.0,0.0,0.0,0.0,0.0,0.0,0.0,0.0,0.0,0.0,0.0,0.0,0.0,0.0,0.0,0.0,0.0,0.0,0.0,0.0,0.0,0.0,0.0,0.0,0.0,0.0,0.0,0.0,0.0,0.0,0.0,0.0,0.0,0.0,0.0,0.0,0.0,0.0,0.0,0.0,0.0,0.0,0.0,0.0,0.0,0.0,0.0,0.0,0.0,0.0,0.0,0.0,0.0,0.0,0.0,0.0,0.0,0.0,0.0,0.0,0.0,0.0,0.0,0.0,0.0,0.0,0.0,0.0,0.0,0.0,0.0,0.0,0.0,0.0,0.0,0.0,0.0,0.0,0.0,0.0,0.0,0.0,0.0,0.0,0.0,0.0,0.0,0.0,0.0,0.0,0.0,0.0,0.0,0.0,0.0,0.0,0.0,0.0,0.0,0.0,0.0,0.0,0.0,0.0,0.0,0.0,0.0,0.0,0.0,0.0,0.0,0.0,0.0,0.0,0.0,0.0,0.0,0.0,0.0,0.0,0.0,0.0,0.0,0.0,0.0,0.0,0.0,0.0,0.0,0.0,0.0,0.0,0.0,0.0,0.0,0.0,0.0,0.0,0.0,0.0,0.0,0.0,0.0,0.0,0.0,0.0,0.0,0.0,0.0,0.0,0.0,0.0,0.0,0.0,0.0,0.0,0.0,0.0,0.0,0.0,0.0,0.0,0.0,0.0,0.0,0.0,0.0,0.0,0.0,0.0,0.0,0.0,0.0,0.0,0.0,0.0,0.0,0.0,0.0,0.0,0.0,0.0,0.0,0.0,0.0,0.0,0.0,0.0,0.0,0.0,0.0,0.0,0.0,0.0,0.0,0.0,0.0,0.0,0.0,0.0,0.0,0.0,0.0,0.0,0.0,0.0,0.0,0.0,0.0,0.0,0.0,0.0,0.0,0.0,0.0,0.0,0.0,0.0,0.0,0.0,0.0,0.0,0.0,0.0,0.0,0.0,0.0,0.0,0.0,0.0,0.0,0.0,0.0,0.0,0.0,0.0,0.0,0.0,0.0,0.0,0.0,0.0,0.0,0.0,0.0,0.0,0.0,0.0,0.0,0.0,0.0,0.0,0.0,0.0,0.0,0.0,0.0,0.0,0.0,0.0,0.0,0.0,0.0,0.0,0.0,0.0,0.0,0.0,0.0,0.0,0.0,0.0,0.0,0.0,0.0,0.0,0.0,0.0,0.0,0.0,0.0,0.0,0.0,0.0,0.0,0.0,0.0,0.0,0.0,0.0,0.0,0.0,0.0,0.0,0.0,0.0,0.0,0.0,0.0,0.0,0.0,0.0,0.0,0.0,0.0,0.0,0.0,0.0,0.0,0.0,0.0,0.0,0.0,0.0,0.0,0.0,0.0,0.0,0.0,0.0,0.0,0.0,0.0,0.0,0.0,0.0,0.0,0.0,0.0,0.0,0.0,0.0,0.0,0.0,0.0,0.0,0.0,0.0,0.0,0.0,0.0,0.0,0.0,0.0,0.0,0.0,0.0,0.0,0.0,0.0,0.0,0.0,0.0,0.0,0.0,0.0,0.0,0.0,0.0,0.0,0.0,0.0,0.0,0.0,0.0,0.0,0.0,0.0,0.0,0.0,0.0,0.0,0.0,0.0,0.0,0.0,0.0,0.0,0.0,0.0,0.0,0.0,0.0,0.0,0.0,0.0,0.0,0.0,0.0,0.0,0.0,0.0,0.0,0.0,0.0,0.0,0.0,0.0,0.0,0.0,0.0,0.0,0.0,0.0,0.0,0.0,0.0,0.0,0.0,0.0,0.0,0.0,0.0,0.0,0.0,0.0,0.0,0.0,0.0,0.0,0.0,0.0,0.0,0.0,0.0,0.0,0.0,0.0,0.0,0.0,0.0,0.0,0.0,0.0,0.0,0.0,0.0,0.0,0.0,0.0,0.0,0.0,0.0,0.0,0.0,0.0,0.0,0.0,0.0,0.0,0.0,0.0,0.0,0.0,0.0,0.0,0.0,0.0,0.0,0.0,0.0,0.0,0.0,0.0,0.0,0.0,0.0,0.0,0.0,0.0,0.0,0.0,0.0,0.0,0.0,0.0,0.0,0.0,0.0,0.0,0.0,0.0,0.0,0.0,0.0,0.0,0.0,0.0,0.0,0.0,0.0,0.0,0.0,0.0,0.0,0.0,0.0,0.0,0.0,0.0,0.0,0.0,0.0,0.0,0.0,0.0,0.0,0.0,0.0,0.0,0.0,0.0,0.0,0.0,1.962,0.0,0.0,0.0,1.6908,0.0,0.0,0.0,0.0,0.0,0.0,0.0,0.0,0.0,0.0,0.0,0.0,0.0,0.0,0.0,0.0,0.0,0.0,0.0,0.0,0.0,0.0,0.0,0.0,0.0,0.0,0.0,0.0,0.0,0.0,0.0,0.0,0.0,0.0,0.0,0.0,0.0,0.0,0.0,0.0,0.0,0.0,0.0,0.0,0.0,0.0,0.0,0.0,0.0,0.0,0.0,0.0,0.0,0.0,0.0,0.0,0.0,0.0,0.0,0.0,0.0,0.0,0.0,0.0,0.0,0.0,0.0,0.0,0.0,0.0,0.0,0.0,0.0,0.0,0.0,0.0,0.0,0.0,0.0,0.0,0.0,0.0,0.0,0.0,0.0,0.0,0.0,0.0,0.0,0.0,0.0,0.0,0.0,0.0,0.0,0.0,0.0,0.0,0.0,0.0,0.0,0.0,0.0,0.0,0.0,0.0,0.0,0.0,0.0,0.0,1.9477,1.9093,1.807,1.7326,1.7022,0.0,0.0,0.0,0.0,0.0,0.0,0.0,0.0,0.0,0.0,0.0,0.0,0.0,0.0,0.0,0.0,0.0,0.0,0.0,0.0,0.0,0.0,0.0,0.0,0.0,0.0,0.0,0.0,0.0,0.0,0.0,0.0,0.0,0.0,0.0,0.0,0.0,0.0,0.0,0.0,0.0,0.0,0.0,0.0,0.0,0.0,0.0,0.0,0.0,0.0,0.0,0.0,0.0,0.0,0.0,0.0,0.0,0.0,0.0,0.0,0.0,0.0,0.0,0.0,0.0,0.0,0.0,0.0,0.0,0.0,0.0,0.0,0.0,0.0,0.0,0.0,0.0,0.0,0.0,0.0,0.0,0.0,0.0,0.0,0.0,0.0,0.0,0.0,0.0,0.0,0.0,0.0,0.0,0.0,0.0,0.0,0.0,0.0,0.0,0.0,0.0,0.0,0.0,0.0,0.0,0.0,0.0,0.0,0.0,0.0,0.0,0.0,1.8104,1.7338,1.7208,0.0,0.0,0.0,0.0,0.0,0.0,0.0,0.0,0.0,0.0,0.0,0.0,0.0,0.0,0.0,0.0,0.0,0.0,0.0,0.0,0.0,0.0,0.0,0.0,0.0,0.0,0.0,0.0,0.0,0.0,0.0,0.0,0.0,0.0,0.0,0.0,0.0,0.0,0.0,0.0,0.0,0.0,0.0,0.0,0.0,0.0,0.0,0.0,0.0,0.0,0.0,0.0,0.0,0.0,0.0,0.0,0.0,0.0,0.0,0.0,0.0,0.0,0.0,0.0,0.0,0.0,0.0,0.0,0.0,0.0,0.0,0.0,0.0,0.0,0.0,0.0,0.0,0.0,0.0,0.0,0.0,0.0,0.0,0.0,0.0,0.0,0.0,0.0,0.0,0.0,0.0,0.0,0.0,0.0,0.0,0.0,0.0,0.0,0.0,0.0,0.0,0.0,0.0,0.0,0.0,0.0,0.0,0.0,0.0,0.0,2.0658,1.9925,1.913,0.0,1.7782,0.0,0.0,0.0,0.0,0.0,0.0,0.0,0.0,0.0,0.0,0.0,0.0,0.0,0.0,0.0,0.0,0.0,0.0,0.0,0.0,0.0,0.0,0.0,0.0,0.0,0.0,0.0,0.0,0.0,0.0,0.0,0.0,0.0,0.0,0.0,0.0,0.0,0.0,0.0,0.0,0.0,0.0,0.0,0.0,0.0,0.0,0.0,0.0,0.0,0.0,0.0,0.0,0.0,0.0,0.0,0.0,0.0,0.0,0.0,0.0,0.0,0.0,0.0,0.0,0.0,0.0,0.0,0.0,0.0,0.0,0.0,0.0,0.0,0.0,0.0,0.0,0.0,0.0,0.0,0.0,0.0,0.0,0.0,0.0,0.0,0.0,0.0,0.0,0.0,0.0,0.0,0.0,0.0,0.0,0.0,0.0,0.0,0.0,0.0,0.0,0.0,0.0,0.0,0.0,0.0,0.0,0.0,0.0,0.0,0.0,2.1055,2.0703,1.9959,1.9203,0.0,0.0,0.0,0.0,0.0,0.0,0.0,0.0,0.0,0.0,0.0,0.0,0.0,0.0,0.0,0.0,0.0,0.0,0.0,0.0,0.0,0.0,0.0,0.0,0.0,0.0,0.0,0.0,0.0,0.0,0.0,0.0,0.0,0.0,0.0,0.0,0.0,0.0,0.0,0.0,0.0,0.0,0.0,0.0,0.0,0.0,0.0,0.0,0.0,0.0,0.0,0.0,0.0,0.0,0.0,0.0,0.0,0.0,0.0,0.0,0.0,0.0,0.0,0.0,0.0,0.0,0.0,0.0,0.0,0.0,0.0,0.0,0.0,0.0,0.0,0.0,0.0,0.0,0.0,0.0,0.0,0.0,0.0,0.0,0.0,0.0,0.0,0.0,0.0,0.0,0.0,0.0,0.0,0.0,0.0,0.0,0.0,0.0,0.0,0.0,0.0,0.0,0.0,0.0,0.0,0.0,0.0,0.0,0.0,0.0,2.119,2.1089,2.0873,2.0285,1.9642,1.891,0.0,0.0,0.0,0.0,0.0,0.0,0.0,0.0,0.0,0.0,0.0,0.0,0.0,0.0,0.0,0.0,0.0,0.0,0.0,0.0,0.0,0.0,0.0,0.0,0.0,0.0,0.0,0.0,0.0,0.0,0.0,0.0,0.0,0.0,0.0,0.0,0.0,0.0,0.0,0.0,0.0,0.0,0.0,0.0,0.0,0.0,0.0,0.0,0.0,0.0,0.0,0.0,0.0,0.0,0.0,0.0,0.0,0.0,0.0,0.0,0.0,0.0,0.0,0.0,0.0,0.0,0.0,0.0,0.0,0.0,0.0,0.0,0.0,0.0,0.0,0.0,0.0,0.0,0.0,0.0,0.0,0.0,0.0,0.0,0.0,0.0,0.0,0.0,0.0,0.0,0.0,0.0,0.0,0.0,0.0,0.0,0.0,0.0,0.0,0.0,0.0,0.0,0.0,0.0,0.0,0.0,0.0,0.0,2.1224,2.1237,2.0839,2.0137,2.0048,1.9642,0.0,0.0,0.0,0.0,0.0,0.0,0.0,0.0,0.0,0.0,0.0,0.0,0.0,0.0,0.0,0.0,0.0,0.0,0.0,0.0,0.0,0.0,0.0,0.0,0.0,0.0,0.0,0.0,0.0,0.0,0.0,0.0,0.0,0.0,0.0,0.0,0.0,0.0,0.0,0.0,0.0,0.0,0.0,0.0,0.0,0.0,0.0,0.0,0.0,0.0,0.0,0.0,0.0,0.0,0.0,0.0,0.0,0.0,0.0,0.0,0.0,0.0,0.0,0.0,0.0,0.0,0.0,0.0,0.0,0.0,0.0,0.0,0.0,0.0,0.0,0.0,0.0,0.0,0.0,0.0,0.0,0.0,0.0,0.0,0.0,0.0,0.0,0.0,0.0,0.0,0.0,0.0,0.0,0.0,0.0,0.0,0.0,0.0,0.0,0.0,0.0,0.0,0.0,0.0,0.0,0.0,0.0,0.0,0.0,2.1887,2.1921,2.1786,2.1468,2.1468,2.1143,0.0,0.0,0.0,0.0,0.0,0.0,0.0,0.0,0.0,0.0,0.0,0.0,0.0,0.0,0.0,0.0,0.0,0.0,0.0,0.0,0.0,0.0,0.0,0.0,0.0,0.0,0.0,0.0,0.0,0.0,0.0,0.0,0.0,0.0,0.0,0.0,0.0,0.0,0.0,0.0,0.0,0.0,0.0,0.0,0.0,0.0,0.0,0.0,0.0,0.0,0.0,0.0,0.0,0.0,0.0,0.0,0.0,0.0,0.0,0.0,0.0,0.0,0.0,0.0,0.0,0.0,0.0,0.0,0.0,0.0,0.0,0.0,0.0,0.0,0.0,0.0,0.0,0.0,0.0,0.0,0.0,0.0,0.0,0.0,0.0,0.0,0.0,0.0,0.0,0.0,0.0,0.0,0.0,0.0,0.0,0.0,0.0,0.0,0.0,0.0,0.0,0.0,0.0,0.0,0.0,0.0,0.0,0.0,0.0,2.2279,2.2313,2.2313,2.2313,2.2313,2.1955,0.0,0.0,0.0,0.0,0.0,0.0,0.0,0.0,0.0,0.0,0.0,0.0,0.0,0.0,0.0,0.0,0.0,0.0,0.0,0.0,0.0,0.0,0.0,0.0,0.0,0.0,0.0,0.0,0.0,0.0,0.0,0.0,0.0,0.0,0.0,0.0,0.0,0.0,0.0,0.0,0.0,0.0,0.0,0.0,0.0,0.0,0.0,0.0,0.0,0.0,0.0,0.0,0.0,0.0,0.0,0.0,0.0,0.0,0.0,0.0,0.0,0.0,0.0,0.0,0.0,0.0,0.0,0.0,0.0,0.0,0.0,0.0,0.0,0.0,0.0,0.0,0.0,0.0,0.0,0.0,0.0,0.0,0.0,0.0,0.0,0.0,0.0,0.0,0.0,0.0,0.0,0.0,0.0,0.0,0.0,0.0,0.0,0.0,0.0,0.0,0.0,0.0,0.0,0.0,0.0,0.0,0.0,0.0,2.2279,2.2313,2.2313,2.2313,2.2313,2.2313,2.1955,0.0,0.0,0.0,0.0,0.0,0.0,0.0,0.0,0.0,0.0,0.0,0.0,0.0,0.0,0.0,0.0,0.0,0.0,0.0,0.0,0.0,0.0,0.0,0.0,0.0,0.0,0.0,0.0,0.0,0.0,0.0,0.0,0.0,0.0,0.0,0.0,0.0,0.0,0.0,0.0,0.0,0.0,0.0,0.0,0.0,0.0,0.0,0.0,0.0,0.0,0.0,0.0,0.0,0.0,0.0,0.0,0.0,0.0,0.0,0.0,0.0,0.0,0.0,0.0,0.0,0.0,0.0,0.0,0.0,0.0,0.0,0.0,0.0,0.0,0.0,0.0,0.0,0.0,0.0,0.0,0.0,0.0,0.0,0.0,0.0,0.0,0.0,0.0,0.0,0.0,0.0,0.0,0.0,0.0,0.0,0.0,0.0,0.0,0.0,0.0,0.0,0.0,0.0,0.0,0.0,0.0,0.0,0.0,0.0,2.2313,2.2313,2.2313,2.2313,2.2313,2.2192,0.0,0.0,0.0,0.0,0.0,0.0,0.0,0.0,0.0,0.0,0.0,0.0,0.0,0.0,0.0,0.0,0.0,0.0,0.0,0.0,0.0,0.0,0.0,0.0,0.0,0.0,0.0,0.0,0.0,0.0,0.0,0.0,0.0,0.0,0.0,0.0,0.0,0.0,0.0,0.0,0.0,0.0,0.0,0.0,0.0,0.0,0.0,0.0,0.0,0.0,0.0,0.0,0.0,0.0,0.0,0.0,0.0,0.0,0.0,0.0,0.0,0.0,0.0,0.0,0.0,0.0,0.0,0.0,0.0,0.0,0.0,0.0,0.0,0.0,0.0,0.0,0.0,0.0,0.0,0.0,0.0,0.0,0.0,0.0,0.0,0.0,0.0,0.0,0.0,0.0,0.0,0.0,0.0,0.0,0.0,0.0,0.0,0.0,0.0,0.0,0.0,0.0,0.0,0.0,0.0,0.0,0.0,0.0,0.0,2.353,2.3816,2.3951,2.3951,2.3951,2.3395,2.2347,0.0,0.0,0.0,0.0,0.0,0.0,0.0,0.0,0.0,0.0,0.0,0.0,0.0,0.0,0.0,0.0,0.0,0.0,0.0,0.0,0.0,0.0,0.0,0.0,0.0,0.0,0.0,0.0,0.0,0.0,0.0,0.0,0.0,0.0,0.0,0.0,0.0,0.0,0.0,0.0,0.0,0.0,0.0,0.0,0.0,0.0,0.0,0.0,0.0,0.0,0.0,0.0,0.0,0.0,0.0,0.0,0.0,0.0,0.0,0.0,0.0,0.0,0.0,0.0,0.0,0.0,0.0,0.0,0.0,0.0,0.0,0.0,0.0,0.0,0.0,0.0,0.0,0.0,0.0,0.0,0.0,0.0,0.0,0.0,0.0,0.0,0.0,0.0,0.0,0.0,0.0,0.0,0.0,0.0,0.0,0.0,0.0,0.0,0.0,0.0,0.0,0.0,0.0,0.0,0.0,0.0,0.0,0.0,2.5913,2.6759,2.7097,2.6793,2.6691,2.5388,0.0,0.0,0.0,0.0,0.0,0.0,0.0,0.0,0.0,0.0,0.0,0.0,0.0,0.0,0.0,0.0,0.0,0.0,0.0,0.0,0.0,0.0,0.0,0.0,0.0,0.0,0.0,0.0,0.0,0.0,0.0,0.0,0.0,0.0,0.0,0.0,0.0,0.0,0.0,0.0,0.0,0.0,0.0,0.0,0.0,0.0,0.0,0.0,0.0,0.0,0.0,0.0,0.0,0.0,0.0,0.0,0.0,0.0,0.0,0.0,0.0,0.0,0.0,0.0,0.0,0.0,0.0,0.0,0.0,0.0,0.0,0.0,0.0,0.0,0.0,0.0,0.0,0.0,0.0,0.0,0.0,0.0,0.0,0.0,0.0,0.0,0.0,0.0,0.0,0.0,0.0,0.0,0.0,0.0,0.0,0.0,0.0,0.0,0.0,0.0,0.0,0.0,0.0,0.0,0.0,0.0,0.0,0.0,0.0,2.9702,3.2036,3.1732,2.8536,2.7283,2.6082,0.0,0.0,0.0,0.0,0.0,0.0,0.0,0.0,0.0,0.0,0.0,0.0,0.0,0.0,0.0,0.0,0.0,0.0,0.0,0.0,0.0,0.0,0.0,0.0,0.0,0.0,0.0,0.0,0.0,0.0,0.0,0.0,0.0,0.0,0.0,0.0,0.0,0.0,0.0,0.0,0.0,0.0,0.0,0.0,0.0,0.0,0.0,0.0,0.0,0.0,0.0,0.0,0.0,0.0,0.0,0.0,0.0,0.0,0.0,0.0,0.0,0.0,0.0,0.0,0.0,0.0,0.0,0.0,0.0,0.0,0.0,0.0,0.0,0.0,0.0,0.0,0.0,0.0,0.0,0.0,0.0,0.0,0.0,0.0,0.0,0.0,0.0,0.0,0.0,0.0,0.0,0.0,0.0,0.0,0.0,0.0,0.0,0.0,0.0,0.0,0.0,0.0,0.0,0.0,0.0,0.0,0.0,0.0,2.9431,3.119,3.5013,3.5656,3.2814,3.004,2.7638,0.0,0.0,0.0,0.0,0.0,0.0,0.0,0.0,0.0,0.0,0.0,0.0,0.0,0.0,0.0,0.0,0.0,0.0,0.0,0.0,0.0,0.0,0.0,0.0,0.0,0.0,0.0,0.0,0.0,0.0,0.0,0.0,0.0,0.0,0.0,0.0,0.0,0.0,0.0,0.0,0.0,0.0,0.0,0.0,0.0,0.0,0.0,0.0,0.0,0.0,0.0,0.0,0.0,0.0,0.0,0.0,0.0,0.0,0.0,0.0,0.0,0.0,0.0,0.0,0.0,0.0,0.0,0.0,0.0,0.0,0.0,0.0,0.0,0.0,0.0,0.0,0.0,0.0,0.0,0.0,0.0,0.0,0.0,0.0,0.0,0.0,0.0,0.0,0.0,0.0,0.0,0.0,0.0,0.0,0.0,0.0,0.0,0.0,0.0,0.0,0.0,0.0,0.0,0.0,0.0,0.0,0.0,0.0,3.1427,3.1698,3.6535,3.8768,3.7922,3.3592,2.96,0.0,0.0,0.0,0.0,0.0,0.0,0.0,0.0,0.0,0.0,0.0,0.0,0.0,0.0,0.0,0.0,0.0,0.0,0.0,0.0,0.0,0.0,0.0,0.0,0.0,0.0,0.0,0.0,0.0,0.0,0.0,0.0,0.0,0.0,0.0,0.0,0.0,0.0,0.0,0.0,0.0,0.0,0.0,0.0,0.0,0.0,0.0,0.0,0.0,0.0,0.0,0.0,0.0,0.0,0.0,0.0,0.0,0.0,0.0,0.0,0.0,0.0,0.0,0.0,0.0,0.0,0.0,0.0,0.0,0.0,0.0,0.0,0.0,0.0,0.0,0.0,0.0,0.0,0.0,0.0,0.0,0.0,0.0,0.0,0.0,0.0,0.0,0.0,0.0,0.0,0.0,0.0,0.0,0.0,0.0,0.0,0.0,0.0,0.0,0.0,0.0,0.0,0.0,0.0,0.0,0.0,0.0,0.0,3.2916,3.4653,3.8058,3.9537,3.8734,3.3863,3.0586,0.0,0.0,0.0,0.0,0.0,0.0,0.0,0.0,0.0,0.0,0.0,0.0,0.0,0.0,0.0,0.0,0.0,0.0,0.0,0.0,0.0,0.0,0.0,0.0,0.0,0.0,0.0,0.0,0.0,0.0,0.0,0.0,0.0,0.0,0.0,0.0,0.0,0.0,0.0,0.0,0.0,0.0,0.0,0.0,0.0,0.0,0.0,0.0,2.7417,0.0,0.0,0.0,0.0,0.0,0.0,0.0,0.0,0.0,0.0,0.0,0.0,0.0,0.0,0.0,0.0,0.0,0.0,0.0,0.0,0.0,0.0,0.0,0.0,0.0,0.0,0.0,0.0,0.0,0.0,0.0,0.0,0.0,0.0,0.0,0.0,0.0,0.0,0.0,0.0,0.0,0.0,0.0,0.0,0.0,0.0,0.0,0.0,0.0,0.0,0.0,0.0,0.0,0.0,0.0,0.0,0.0,0.0,0.0,3.4066,3.6648,3.8928,3.991,3.9377,3.5453,3.2273,0.0,0.0,0.0,0.0,0.0,0.0,0.0,0.0,0.0,0.0,0.0,0.0,0.0,0.0,0.0,0.0,0.0,0.0,0.0,0.0,0.0,0.0,0.0,0.0,0.0,0.0,0.0,0.0,0.0,0.0,0.0,0.0,0.0,0.0,0.0,0.0,0.0,0.0,0.0,0.0,0.0,0.0,0.0,0.0,0.0,0.0,0.0,0.0,0.0,0.0,0.0,0.0,0.0,0.0,0.0,0.0,0.0,0.0,0.0,0.0,0.0,0.0,0.0,0.0,0.0,0.0,0.0,0.0,0.0,0.0,0.0,0.0,0.0,0.0,0.0,0.0,0.0,0.0,0.0,0.0,0.0,0.0,0.0,0.0,0.0,0.0,0.0,0.0,0.0,0.0,0.0,0.0,0.0,0.0,0.0,0.0,0.0,0.0,0.0,0.0,0.0,0.0,0.0,0.0,0.0,0.0,0.0,3.2239,3.5216,3.8464,3.9783,4.0383,4.0248,3.7483,3.4167,3.0431,0.0,0.0,0.0,0.0,0.0,0.0,0.0,0.0,0.0,0.0,0.0,0.0,0.0,0.0,0.0,0.0,0.0,0.0,0.0,0.0,0.0,0.0,0.0,0.0,0.0,0.0,0.0,0.0,0.0,0.0,0.0,0.0,0.0,0.0,0.0,0.0,0.0,0.0,2.1722,2.2611,0.0,0.0,0.0,0.0,0.0,0.0,0.0,0.0,2.7308,0.0,0.0,0.0,0.0,0.0,0.0,0.0,0.0,0.0,0.0,0.0,0.0,0.0,0.0,0.0,0.0,0.0,0.0,0.0,0.0,0.0,0.0,0.0,0.0,0.0,0.0,0.0,0.0,0.0,0.0,0.0,0.0,0.0,0.0,0.0,0.0,0.0,0.0,0.0,0.0,0.0,0.0,0.0,0.0,0.0,0.0,0.0,0.0,0.0,0.0,0.0,0.0,0.0,0.0,0.0,0.0,3.2577,3.3761,3.6671,4.1407,4.1813,4.1644,4.1001,3.8768,3.5509,3.1288,0.0,0.0,0.0,0.0,0.0,0.0,0.0,0.0,0.0,0.0,0.0,0.0,0.0,0.0,0.0,0.0,0.0,0.0,0.0,0.0,0.0,0.0,0.0,0.0,0.0,0.0,0.0,0.0,0.0,0.0,0.0,0.0,0.0,0.0,0.0,0.0,0.0,0.0,0.0,2.5531,2.5518,0.0,0.0,0.0,0.0,0.0,0.0,0.0,0.0,2.9507,0.0,0.0,0.0,0.0,0.0,0.0,0.0,0.0,0.0,0.0,0.0,0.0,0.0,0.0,0.0,0.0,0.0,0.0,0.0,0.0,0.0,0.0,0.0,0.0,0.0,0.0,0.0,0.0,0.0,0.0,0.0,0.0,0.0,0.0,0.0,0.0,0.0,0.0,0.0,0.0,0.0,0.0,0.0,0.0,0.0,0.0,0.0,0.0,0.0,0.0,0.0,0.0,0.0,0.0,0.0,3.3795,3.5859,3.8802,4.2692,4.2489,4.2151,4.1745,3.9276,3.6186,0.0,0.0,0.0,0.0,0.0,0.0,0.0,0.0,0.0,0.0,0.0,0.0,0.0,0.0,0.0,0.0,0.0,0.0,0.0,0.0,0.0,0.0,0.0,0.0,0.0,0.0,0.0,0.0,0.0,0.0,0.0,0.0,0.0,0.0,0.0,0.0,0.0,0.0,0.0,0.0,2.7705,2.8058,3.1691,0.0,0.0,0.0,0.0,0.0,0.0,3.1143,2.9986,0.0,0.0,0.0,0.0,0.0,0.0,0.0,0.0,0.0,0.0,0.0,0.0,0.0,0.0,0.0,0.0,0.0,0.0,0.0,0.0,0.0,0.0,0.0,0.0,0.0,0.0,0.0,0.0,0.0,0.0,0.0,0.0,0.0,0.0,0.0,0.0,0.0,0.0,0.0,0.0,0.0,0.0,0.0,0.0,0.0,0.0,0.0,0.0,0.0,0.0,0.0,0.0,0.0,0.0,0.0,3.4675,3.7821,4.0798,4.347,4.3064,4.2692,4.2455,3.9377,3.6378,0.0,0.0,0.0,0.0,0.0,0.0,0.0,0.0,0.0,0.0,0.0,0.0,0.0,0.0,0.0,0.0,0.0,0.0,0.0,0.0,0.0,0.0,0.0,0.0,0.0,0.0,0.0,0.0,0.0,0.0,0.0,0.0,0.0,0.0,0.0,0.0,0.0,0.0,0.0,0.0,0.0,3.0425,3.3876,3.297,0.0,0.0,0.0,0.0,3.2836,3.2091,0.0,0.0,0.0,0.0,0.0,0.0,0.0,0.0,0.0,0.0,0.0,0.0,0.0,0.0,0.0,0.0,0.0,0.0,0.0,0.0,0.0,0.0,0.0,0.0,0.0,0.0,0.0,0.0,0.0,0.0,0.0,0.0,0.0,0.0,0.0,0.0,0.0,0.0,0.0,0.0,0.0,0.0,0.0,0.0,0.0,0.0,0.0,0.0,0.0,0.0,0.0,0.0,0.0,0.0,0.0,0.0,3.543,3.9106,4.2083,4.4344,4.4378,4.3978,4.3267,3.914,3.5892,0.0,0.0,0.0,0.0,0.0,0.0,0.0,0.0,0.0,0.0,0.0,0.0,0.0,0.0,0.0,0.0,0.0,0.0,0.0,0.0,0.0,0.0,0.0,0.0,0.0,0.0,0.0,0.0,0.0,0.0,0.0,0.0,0.0,0.0,0.0,0.0,0.0,0.0,0.0,0.0,0.0,3.0932,3.5491,3.4303,3.2836,0.0,0.0,3.7721,3.6058,3.7477,0.0,0.0,0.0,0.0,0.0,0.0,0.0,0.0,0.0,0.0,0.0,0.0,0.0,0.0,0.0,0.0,0.0,0.0,0.0,0.0,0.0,0.0,0.0,0.0,0.0,0.0,0.0,0.0,0.0,0.0,0.0,0.0,0.0,0.0,0.0,0.0,0.0,0.0,0.0,0.0,0.0,0.0,0.0,0.0,0.0,0.0,0.0,0.0,0.0,0.0,0.0,0.0,0.0,0.0,0.0,3.3332,3.5813,4.1027,4.4248,4.5196,4.5635,4.5466,4.4722,3.9986,3.6661,0.0,0.0,0.0,0.0,0.0,0.0,0.0,0.0,0.0,0.0,0.0,0.0,0.0,0.0,0.0,0.0,0.0,0.0,0.0,0.0,0.0,0.0,0.0,0.0,0.0,0.0,0.0,0.0,0.0,0.0,0.0,0.0,0.0,0.0,0.0,0.0,0.0,0.0,0.0,0.0,0.0,0.0,3.6003,3.7286,0.0,0.0,0.0,3.9541,3.6383,0.0,0.0,0.0,0.0,0.0,0.0,0.0,0.0,0.0,0.0,0.0,0.0,0.0,0.0,0.0,0.0,0.0,0.0,0.0,0.0,0.0,0.0,0.0,0.0,0.0,0.0,0.0,0.0,0.0,0.0,0.0,0.0,0.0,0.0,0.0,0.0,0.0,0.0,0.0,0.0,0.0,0.0,0.0,0.0,0.0,0.0,0.0,0.0,0.0,0.0,0.0,0.0,0.0,0.0,0.0,0.0,0.0,3.6186,4.2814,4.6177,4.6007,4.6515,4.6515,4.5906,4.1441,0.0,0.0,0.0,0.0,0.0,0.0,0.0,0.0,0.0,0.0,0.0,0.0,0.0,0.0,0.0,0.0,0.0,0.0,0.0,0.0,0.0,0.0,0.0,0.0,0.0,0.0,0.0,1.6484,0.0,0.0,0.0,0.0,0.0,0.0,0.0,0.0,0.0,0.0,0.0,0.0,0.0,0.0,3.5873,3.6785,3.9472,4.1006,0.0,0.0,4.1059,3.8359,4.0954,4.1645,0.0,0.0,0.0,0.0,0.0,0.0,0.0,0.0,0.0,0.0,0.0,0.0,0.0,0.0,0.0,0.0,0.0,0.0,0.0,0.0,0.0,0.0,0.0,0.0,0.0,0.0,0.0,0.0,0.0,0.0,0.0,0.0,0.0,0.0,0.0,0.0,0.0,0.0,0.0,0.0,0.0,0.0,0.0,0.0,0.0,0.0,0.0,0.0,0.0,0.0,0.0,0.0,0.0,0.0,3.6775,3.708,4.4039,4.7428,4.6752,4.6752,4.6752,4.665,4.3673,4.0765,0.0,0.0,0.0,0.0,0.0,0.0,0.0,0.0,0.0,0.0,0.0,0.0,0.0,0.0,0.0,0.0,0.0,0.0,0.0,0.0,0.0,0.0,0.0,0.0,0.0,0.0,0.0,0.0,0.0,0.0,0.0,0.0,0.0,0.0,0.0,0.0,0.0,0.0,0.0,0.0,0.0,3.7007,3.842,3.9622,4.1074,0.0,4.2971,4.314,4.4083,4.6372,4.6305,4.0961,0.0,0.0,0.0,0.0,0.0,0.0,0.0,0.0,0.0,0.0,0.0,0.0,0.0,0.0,0.0,0.0,0.0,0.0,0.0,0.0,0.0,0.0,0.0,0.0,0.0,0.0,0.0,0.0,0.0,0.0,0.0,0.0,0.0,0.0,0.0,0.0,0.0,0.0,0.0,0.0,0.0,0.0,0.0,0.0,0.0,0.0,0.0,0.0,0.0,0.0,0.0,0.0,0.0,3.6786,3.7784,4.4406,4.7736,4.753,4.7936,4.7936,4.7496,4.5026,4.1959,0.0,0.0,0.0,0.0,0.0,0.0,0.0,0.0,0.0,0.0,0.0,0.0,0.0,0.0,0.0,0.0,0.0,0.0,0.0,0.0,0.0,0.0,0.0,0.0,0.0,0.0,0.0,0.0,2.8282,2.9062,2.7352,0.0,0.0,0.0,0.0,0.0,0.0,0.0,0.0,0.0,0.0,3.9607,4.2145,4.4219,0.0,0.0,4.6301,4.6094,4.4531,4.6365,4.6285,4.1258,3.9709,0.0,0.0,0.0,0.0,0.0,0.0,0.0,0.0,0.0,0.0,0.0,0.0,0.0,0.0,0.0,0.0,0.0,0.0,0.0,0.0,0.0,0.0,0.0,0.0,0.0,0.0,0.0,0.0,0.0,0.0,0.0,0.0,0.0,0.0,0.0,0.0,0.0,0.0,0.0,0.0,0.0,0.0,0.0,0.0,0.0,0.0,0.0,0.0,0.0,0.0,0.0,0.0,3.766,3.9194,4.5382,4.8578,4.864,4.9351,4.9385,4.864,4.6941,4.419,4.0442,0.0,0.0,0.0,0.0,0.0,0.0,0.0,0.0,0.0,0.0,0.0,0.0,0.0,0.0,0.0,0.0,0.0,0.0,0.0,0.0,0.0,0.0,0.0,0.0,0.0,0.0,0.0,3.0697,3.1165,2.9133,0.0,0.0,0.0,0.0,0.0,0.0,0.0,0.0,0.0,0.0,4.2149,4.4154,4.6242,4.7475,4.6984,4.7231,4.6954,4.5597,4.6635,4.6409,4.2835,0.0,0.0,0.0,0.0,0.0,0.0,0.0,0.0,0.0,0.0,0.0,0.0,0.0,0.0,0.0,0.0,0.0,0.0,0.0,0.0,0.0,0.0,0.0,0.0,0.0,0.0,0.0,2.119,0.0,0.0,2.0399,0.0,0.0,0.0,0.0,0.0,0.0,0.0,0.0,0.0,0.0,0.0,0.0,0.0,0.0,0.0,0.0,0.0,0.0,0.0,0.0,0.0,0.0,3.9944,4.1469,4.7073,5.0161,5.0351,5.1031,5.1065,5.0351,4.96,4.8039,4.5569,0.0,0.0,0.0,0.0,0.0,0.0,0.0,0.0,0.0,0.0,0.0,0.0,0.0,0.0,0.0,0.0,0.0,0.0,0.0,0.0,0.0,0.0,0.0,0.0,0.0,0.0,2.2988,2.6646,2.9868,0.0,0.0,0.0,0.0,0.0,0.0,0.0,0.0,0.0,3.7116,4.165,4.4375,4.3698,4.4355,4.5401,4.6138,4.5057,4.5173,4.8139,4.8078,4.7404,0.0,0.0,0.0,0.0,0.0,0.0,0.0,0.0,0.0,0.0,0.0,0.0,0.0,0.0,0.0,0.0,0.0,0.0,0.0,0.0,0.0,0.0,0.0,0.0,0.0,0.0,0.0,2.6392,2.636,0.0,0.0,0.0,0.0,0.0,0.0,0.0,0.0,0.0,0.0,0.0,3.6344,3.5938,0.0,0.0,0.0,0.0,0.0,0.0,0.0,0.0,0.0,0.0,0.0,0.0,4.1264,4.2432,4.792,5.0877,5.0909,5.1274,5.1371,5.1133,5.1017,4.9441,4.6219,0.0,0.0,0.0,0.0,0.0,0.0,0.0,0.0,0.0,0.0,0.0,0.0,0.0,0.0,0.0,0.0,0.0,0.0,0.0,0.0,0.0,0.0,0.0,0.0,0.0,2.8602,0.0,0.0,0.0,0.0,0.0,0.0,0.0,0.0,0.0,0.0,3.4463,3.7308,4.0394,4.2132,4.3642,4.4892,4.6269,4.7831,0.0,0.0,0.0,0.0,0.0,0.0,0.0,0.0,0.0,0.0,0.0,0.0,0.0,4.1661,3.9949,3.6944,3.7656,3.8765,3.8777,0.0,0.0,0.0,0.0,0.0,0.0,0.0,0.0,0.0,0.0,0.0,0.0,0.0,0.0,3.0493,2.9933,3.0849,0.0,0.0,0.0,0.0,0.0,0.0,0.0,0.0,3.7723,3.9614,4.1677,4.1204,4.1001,4.0933,3.9681,3.6763,0.0,0.0,0.0,0.0,0.0,0.0,0.0,0.0,4.2773,4.3878,4.8907,5.1589,5.1688,5.2119,5.2215,5.1977,5.2104,5.0963,4.834,4.4181,4.0453,0.0,0.0,0.0,0.0,0.0,0.0,0.0,0.0,0.0,0.0,0.0,0.0,0.0,0.0,0.0,0.0,0.0,0.0,0.0,0.0,0.0,0.0,0.0,3.1362,0.0,0.0,0.0,0.0,0.0,0.0,0.0,0.0,0.0,3.5124,3.7761,4.0782,4.3289,4.4303,4.4966,4.5406,0.0,0.0,0.0,0.0,0.0,0.0,0.0,4.5517,4.4452,4.5057,4.5887,4.6539,4.6959,4.7177,4.7211,0.0,0.0,4.2875,4.3328,4.4402,4.4402,4.4411,4.4261,4.3727,4.3638,4.3891,0.0,0.0,0.0,0.0,3.2695,0.0,0.0,0.0,3.5018,3.3651,0.0,3.4605,0.0,0.0,0.0,0.0,3.5275,3.852,0.0,0.0,4.6718,4.8883,4.7022,4.6853,4.6887,4.6718,4.3301,4.2001,4.2589,4.0552,3.8738,0.0,0.0,0.0,0.0,0.0,4.4524,4.6011,5.0164,5.2466,5.2663,5.354,5.3604,5.2887,5.2919,5.2638,5.1905,4.8403,4.6124,4.5328,3.7901,0.0,0.0,0.0,0.0,0.0,0.0,0.0,0.0,0.0,0.0,0.0,0.0,0.0,0.0,0.0,0.0,0.0,0.0,0.0,0.0,3.0877,0.0,0.0,0.0,0.0,0.0,0.0,0.0,0.0,0.0,3.9421,3.727,4.0725,4.4154,4.559,0.0,0.0,0.0,0.0,4.7978,4.3543,4.348,4.4157,4.4304,4.6096,4.8015,4.9491,0.0,0.0,5.237,5.0509,4.9214,4.8993,5.1176,5.1528,4.7718,4.7103,4.7086,4.7049,4.7252,4.6958,4.6863,4.7231,4.7446,3.9055,0.0,0.0,0.0,0.0,3.7029,3.8388,4.1045,4.0319,3.9659,3.9157,3.9942,0.0,0.0,0.0,0.0,0.0,0.0,4.3267,4.5721,4.7153,4.8781,5.0676,5.0202,4.9965,4.9898,4.8849,4.8748,4.9421,4.8846,4.5258,3.8939,0.0,0.0,0.0,0.0,4.6266,4.8401,5.1643,5.3377,5.3608,5.3878,5.3943,5.38,5.3447,5.3163,5.2984,5.1369,4.9195,4.6328,4.298,0.0,0.0,0.0,0.0,0.0,0.0,0.0,0.0,0.0,0.0,0.0,0.0,0.0,0.0,0.0,0.0,0.0,0.0,0.0,3.2757,3.5742,3.6461,0.0,0.0,0.0,0.0,0.0,0.0,0.0,0.0,0.0,4.4262,4.3713,4.3882,0.0,0.0,4.4011,4.3094,4.5791,4.7958,4.8344,4.862,0.0,5.1103,5.0537,5.0041,5.0461,5.2618,5.4269,5.4135,5.5027,5.5751,5.5754,5.6429,5.6543,5.554,5.4723,5.4314,5.4388,5.4797,5.476,5.3794,5.3943,5.4185,4.4545,4.2794,4.0913,4.0605,4.1297,4.0887,4.2347,4.4999,4.452,4.3899,4.3247,4.4583,4.322,3.9965,4.1271,0.0,0.0,0.0,4.7213,5.0164,4.9692,5.0642,5.2672,5.2334,5.2131,5.2097,5.1792,5.2029,5.2739,5.1555,4.8565,4.3917,0.0,4.2432,4.2757,4.5932,4.8311,4.9828,5.2355,5.3816,5.398,5.4045,5.4143,5.4303,5.4018,5.3839,5.3839,5.3391,5.1942,4.939,4.6941,4.3567,0.0,0.0,0.0,0.0,0.0,0.0,0.0,0.0,0.0,0.0,0.0,2.7296,2.5353,0.0,0.0,0.0,3.4618,3.6199,3.741,3.8456,0.0,0.0,0.0,0.0,0.0,0.0,0.0,4.1141,4.5881,4.9319,4.9098,4.7811,4.7168,4.7976,4.7498,4.6764,4.581,0.0,5.0305,5.1169,5.1279,5.1903,5.3628,5.3561,5.3545,5.4473,5.5802,5.6905,5.7109,5.8393,5.9302,5.9383,5.9492,5.9579,5.9536,5.9229,5.8698,5.8141,5.8364,5.8326,5.7435,5.7658,5.7843,4.8604,4.8173,4.3248,4.2263,4.3994,4.3994,4.5372,4.765,4.7681,4.6634,4.5187,4.8204,4.6795,4.2145,4.4171,0.0,5.0568,5.0539,5.1589,5.3585,5.3585,5.3585,5.3585,5.3518,5.3518,5.3484,5.2739,5.2773,5.3348,5.0744,4.9723,5.0326,5.036,4.8931,4.6253,4.8697,5.0221,5.0521,5.2493,5.368,5.4013,5.4143,5.4303,5.4566,5.4529,5.4529,5.4598,5.4529,5.4184,5.3425,5.005,4.7431,4.5673,0.0,0.0,0.0,0.0,0.0,0.0,0.0,0.0,0.0,0.0,0.0,0.0,0.0,0.0,3.8272,3.9822,0.0,4.3028,4.0509,0.0,0.0,0.0,4.2615,4.7021,4.8365,4.9229,4.9818,0.0,0.0,5.227,5.2417,5.2784,5.3665,5.4069,5.3482,5.1206,5.2858,5.4032,5.2711,5.2601,5.2968,5.4289,5.5757,5.7556,5.9452,6.0419,6.0186,6.0234,6.0378,6.0525,6.0404,6.0748,6.0892,6.0817,6.0885,6.072,5.9197,5.8937,5.8958,5.8921,5.8958,5.8958,4.8604,4.8512,4.725,4.6973,4.7404,4.7434,4.7773,4.8358,4.8347,4.8081,4.7711,4.8512,4.8777,4.8699,5.0471,5.1748,5.2624,5.3819,5.4363,5.4329,5.4329,5.4329,5.4296,5.3788,5.3518,5.3484,5.3315,5.3315,5.345,5.2773,5.1928,5.1046,5.0979,4.9856,4.7674,4.8162,4.9382,5.1235,5.1904,5.2851,5.4108,5.4335,5.4677,5.5197,5.4775,5.477,5.5322,5.4805,5.4425,5.4218,5.2839,5.108,4.8976,4.3395,0.0,0.0,0.0,0.0,0.0,0.0,0.0,0.0,0.0,3.2055,2.8654,0.0,3.6793,0.0,4.313,4.7922,4.9693,4.912,0.0,0.0,4.7482,4.7905,4.897,5.1969,5.333,5.1614,5.3739,5.5464,5.5647,5.6198,5.7116,5.8437,5.5684,5.3041,5.1977,5.4326,5.6124,5.5868,5.7116,5.8437,5.8547,5.9134,5.9745,6.0428,6.0562,6.0585,6.0716,6.0702,6.0762,6.0702,6.0748,6.0817,6.0808,6.0907,6.0922,6.0537,6.0528,6.063,6.063,6.0593,6.0593,4.9374,4.9097,4.9097,4.8912,4.8604,4.8604,4.8789,4.9066,4.8758,4.8974,4.9528,4.9558,5.058,5.2405,5.335,5.4018,5.4405,5.5302,5.531,5.46,5.4262,5.4093,5.4126,5.4025,5.3991,5.3991,5.4329,5.4533,5.4601,5.4635,5.4194,5.3513,5.3785,5.2866,5.0782,4.9175,4.9311,5.1055,5.1959,5.3352,5.5134,5.5432,5.5189,5.4539,5.419,5.3736,5.3149,5.236,5.1977,5.1912,5.1287,5.0321,4.8976,4.4561,4.144,0.0,0.0,0.0,0.0,0.0,0.0,0.0,0.0,0.0,0.0,0.0,4.127,4.1197,4.726,5.1156,5.1092,5.1032,5.112,5.1561,5.2079,5.3035,5.4751,5.694,5.7932,5.6932,5.84,5.9501,5.9501,5.9869,6.0309,6.086,5.8951,5.7042,5.6088,5.7336,5.851,5.8951,6.0052,6.108,6.141,6.1484,6.1508,6.1557,6.1581,6.1605,6.1653,6.1713,6.1677,6.1677,6.1724,6.1771,6.1771,6.1902,6.2068,6.2461,6.2558,6.2279,6.1388,6.1187,6.1187,5.0359,4.9835,4.9805,4.9466,4.8881,4.8881,4.9158,4.9528,4.8974,4.9466,5.0667,5.0605,5.1811,5.3841,5.3946,5.4558,5.5532,5.5741,5.5476,5.4871,5.4228,5.3923,5.3957,5.4499,5.477,5.4769,5.5412,5.5822,5.5996,5.5996,5.5996,5.603,5.6748,5.6064,5.4011,5.1099,5.0017,5.0871,5.2495,5.434,5.6299,5.6258,5.5253,5.3356,5.3149,5.2183,5.0252,4.939,4.8947,4.8913,4.8252,4.8051,4.843,4.4872,4.2777,0.0,3.9132,0.0,0.0,0.0,0.0,0.0,0.0,0.0,0.0,4.5242,4.6912,4.8162,5.1446,5.2879,5.1343,5.1193,5.2585,5.6014,5.6528,5.796,6.141,6.1924,6.2218,6.3025,6.3,6.2952,6.2879,6.2853,6.2511,6.1924,6.2218,6.1961,6.1117,6.0823,6.1117,6.1814,6.1998,6.2511,6.2989,6.3135,6.311,6.3135,6.3135,6.311,6.3135,6.3135,6.3135,6.3135,6.3235,6.3309,6.3309,6.3407,6.37,6.4315,6.445,6.3894,6.2487,6.2034,6.1797,5.0605,5.0513,5.0513,5.042,5.0297,5.0297,4.9712,4.885,4.9281,4.9928,5.0636,5.0112,5.0758,5.2125,5.2355,5.3182,5.4548,5.5836,5.6415,5.6359,5.6224,5.619,5.6156,5.5857,5.5654,5.5513,5.5789,5.5961,5.5996,5.5996,5.5451,5.4457,5.5076,5.5006,5.4242,0.0,0.0,0.0,5.3492,5.4482,5.5408,5.3917,5.2843,5.2394,5.1873,0.0,5.0907,5.0154,4.9769,4.9769,4.9016,0.0,5.2977,0.0,0.0,0.0,0.0,0.0,0.0,0.0,0.0,0.0,4.6489,4.6461,4.6358,4.7901,5.0345,5.365,5.4693,5.6294,5.9084,5.9341,5.9869,6.1227,6.1386,6.2034,6.3466,6.3613,6.3943,6.4714,6.4237,6.387,6.3796,6.3282,6.278,6.2645,6.3319,6.3686,6.3392,6.3282,6.3429,6.3649,6.4016,6.4567,6.4824,6.4761,6.4651,6.4861,6.4861,6.4787,6.4751,6.4761,6.4824,6.4787,6.4886,6.4813,6.4813,6.4952,6.5016,6.5237,6.5336,6.5312,6.4988,6.4924,6.4985,5.1498,5.119,5.119,5.1005,0.0,5.0697,5.0297,4.9682,5.002,5.0759,5.1652,5.1313,5.1747,5.2816,5.3067,5.3567,5.4344,5.5942,5.6536,5.6258,5.6258,5.6258,5.6258,5.633,5.633,5.6258,5.6703,5.6978,5.7118,5.7457,5.7495,5.7328,5.835,5.8796,5.8527,5.815,5.6987,5.5141,5.555,5.6541,5.8016,5.7122,5.6052,5.5049,5.4667,0.0,0.0,0.0,0.0,0.0,0.0,0.0,0.0,5.0114,4.9786,5.1818,4.9458,4.8846,5.0816,5.0292,5.0879,5.3287,5.4207,5.3725,5.1511,5.3885,5.6345,5.8327,5.8914,6.0162,6.2511,6.2842,6.3172,6.3906,6.4053,6.4237,6.4604,6.4714,6.4861,6.5191,6.4934,6.4677,6.4677,6.4014,6.3527,6.3474,6.3584,6.3783,6.412,6.4459,6.4677,6.4677,6.4971,6.5301,6.5338,6.5338,6.5312,6.5301,6.5338,6.5338,6.5338,6.5338,6.5338,6.5338,6.5338,6.5338,6.5301,6.5353,6.5551,6.5919,6.6338,6.6846,6.7243,6.6839,6.6507,5.276,5.2236,5.2236,5.1929,5.1405,5.1405,5.1405,5.1405,5.1159,0.0,0.0,5.2729,5.31,5.3675,5.3793,5.4024,5.4405,5.5899,5.627,5.5875,5.6018,5.6156,5.6325,5.6936,5.7309,5.7408,5.8019,5.8434,5.8613,5.9191,5.9979,6.0947,6.2275,6.309,6.3401,6.2806,6.1234,5.8867,5.8048,5.8666,6.0727,6.0417,5.9321,5.7463,5.7428,5.6188,5.3639,5.2946,5.2287,5.1528,5.0774,5.0597,5.0976,5.0873,5.1045,5.1563,5.1459,5.2563,5.5081,5.5184,5.6475,5.9762,6.0574,5.9801,5.7092,5.9969,6.1972,6.2254,6.2879,6.3539,6.4237,6.431,6.4567,6.5228,6.5338,6.5338,6.5485,6.5521,6.5579,6.5683,6.564,6.5467,6.5332,6.4662,6.4217,6.4137,6.3794,6.3678,6.4318,6.4922,6.5401,6.5752,6.565,6.5396,6.5557,6.5594,6.5547,6.564,6.571,6.5742,6.5742,6.5742,6.5742,6.5888,6.5742,6.5778,6.5778,6.5999,6.6182,6.6806,6.7577,6.8375,6.9108,6.8515,6.7993,5.436,5.4252,5.4252,5.4237,5.4099,5.4176,5.4129,5.4006,5.2944,5.2544,5.2729,5.2729,5.2743,5.2846,5.2268,5.2813,5.4114,5.5077,5.5837,5.6507,5.7214,5.7949,5.8524,5.8807,5.918,5.9644,5.9892,6.0072,6.0109,6.0211,6.0765,6.1627,6.24,6.3718,6.5317,6.4425,6.3922,6.4025,6.0556,5.9184,5.9971,5.8118,5.6677,5.5716,5.5783,5.5201,5.4136,5.4193,5.3839,5.3115,5.2291,5.2804,5.4635,5.4218,5.5012,5.746,5.7116,5.7288,5.8254,5.7805,5.8139,5.9835,6.0663,6.1326,6.2005,6.254,6.3411,6.46,6.4798,6.5007,6.5118,6.5092,6.5176,6.5322,6.5312,6.5532,6.625,6.6323,6.6573,6.7223,6.6838,6.6168,6.5638,6.4889,6.4404,6.4252,6.4158,6.4452,6.5032,6.537,6.5977,6.6829,6.6315,6.5923,6.6337,6.6497,6.6583,6.6497,6.7049,6.7357,6.7357,6.7357,6.7357,6.7357,6.7357,6.7357,6.7357,6.7944,6.8238,6.8531,6.9119,6.9954,7.0688,7.0569,7.0469,5.4683,5.4683,5.4683,5.4683,5.4714,5.5099,5.5253,5.5284,5.5407,5.5037,5.436,5.433,5.433,5.4314,5.4134,5.4392,5.5114,5.5985,5.6611,5.702,5.793,5.8518,5.8891,5.9422,5.9851,6.008,6.019,6.0265,6.0261,6.0634,6.1321,6.2178,6.3594,6.5121,6.65,6.5663,6.5335,6.5693,6.2741,6.1343,6.1686,6.0762,6.0041,5.9663,5.9734,5.9425,5.8599,5.8737,5.8461,5.7736,5.7322,5.7633,5.8599,5.8012,5.8219,5.953,5.8944,5.8668,5.8978,5.8702,5.8769,5.9417,5.9763,6.0749,6.251,6.33,6.4139,6.5186,6.5338,6.5291,6.5323,6.5368,6.5557,6.6083,6.6125,6.6415,6.7102,6.7282,6.742,6.7784,6.7545,6.7056,6.6339,6.5556,6.4928,6.4543,6.4495,6.4685,6.5072,6.5374,6.5752,6.6404,6.6307,6.659,6.7191,6.7687,6.8041,6.8471,6.8806,6.9009,6.8972,6.8972,6.8972,6.9009,6.8972,6.9009,6.8972,6.9265,6.9522,6.9633,7.0183,7.0881,7.1219,7.1615,7.1855,5.5606,5.5653,5.5653,5.5653,5.5684,5.6176,5.6392,5.6484,5.7531,5.7377,5.6453,5.6238,5.6084,5.5964,5.6106,5.6081,5.6091,5.6826,5.712,5.712,5.8167,5.8793,5.9039,5.9895,6.0452,6.0588,6.0622,6.0588,6.0689,6.1264,6.2009,6.3024,6.4918,6.6422,6.7301,6.6418,6.6092,6.6289,6.4459,6.3516,6.3779,6.3608,6.3501,6.3467,6.3411,6.3139,6.2476,6.2555,6.2356,6.1634,6.1565,6.1496,6.1289,6.0771,6.0461,6.0392,5.9875,5.953,5.953,5.953,5.953,5.953,5.9702,6.0635,6.2564,6.3708,6.4585,6.5268,6.5696,6.5892,6.5807,6.5941,6.6269,6.6942,6.7056,6.7228,6.7805,6.7914,6.7886,6.7925,6.7787,6.7362,6.6664,6.5934,6.5233,6.4708,6.4743,6.4847,6.4918,6.5407,6.5689,6.5782,6.6161,6.6702,6.7559,6.8005,6.85,6.9295,6.942,6.9282,6.934,6.9508,6.9573,6.9406,6.9652,6.9608,6.9811,7.0172,7.0412,7.0697,7.1394,7.1982,7.2312,7.2716,7.2826,5.8362,5.8423,5.83,5.8393,5.8331,5.8423,5.8423,5.8454,5.8639,5.8639,5.8423,5.7869,5.7303,5.6748,5.6721,5.6429,5.592,5.6647,5.6771,5.6455,5.7919,5.9091,5.9786,6.0735,6.1535,6.2042,6.211,6.2042,6.2042,6.2212,6.299,6.441,6.5967,6.7015,6.7599,6.6448,6.6076,6.6719,6.54,6.4937,6.522,6.4483,6.3991,6.4029,6.338,6.3004,6.2935,6.3124,6.2967,6.2461,6.2393,6.2048,6.1427,6.1254,6.122,6.122,6.1116,6.1082,6.1082,6.1082,6.1013,6.1151,6.1634,6.2611,6.4077,6.4422,6.4824,6.5514,6.6785,6.7139,6.6796,6.7121,6.7412,6.7461,6.7639,6.7807,6.7886,6.7914,6.7929,6.7974,6.7411,6.6704,6.6125,6.5452,6.4925,6.486,6.5228,6.5546,6.563,6.583,6.5968,6.5902,6.6011,6.6347,6.6989,6.7059,6.7614,6.7617,6.7886,6.8421,6.8722,6.8618,6.8245,6.9472,6.9121,6.9563,6.9725,7.0157,7.1403,7.2018,7.2789,7.3634,7.4294,7.4478,7.4074,5.8793,5.8793,5.8793,5.8793,5.8824,5.9193,5.9378,5.9408,5.9809,5.9963,5.9963,5.9686,5.8978,5.7962,5.7962,5.7777,5.758,5.7938,5.7928,5.776,5.8619,5.9214,5.9572,6.0597,6.1287,6.1635,6.2144,6.2415,6.2415,6.2415,6.3159,6.4478,6.5256,6.6068,6.7117,6.6643,6.6508,6.6779,6.6287,6.6188,6.6336,6.5352,6.4698,6.4517,6.3947,6.3572,6.346,6.3353,6.3202,6.3002,6.3078,6.2979,6.2668,6.2255,6.2013,6.1979,6.1565,6.1323,6.1323,6.1323,6.1323,6.1323,6.1599,6.2226,6.3238,6.3725,6.4111,6.4533,6.5707,6.6426,6.6204,6.6421,6.6601,6.6741,6.7086,6.7543,6.7996,6.7996,6.7917,6.7443,6.7165,6.6708,6.6059,6.56,6.5428,6.5431,6.5697,6.587,6.5952,6.6255,6.6531,6.66,6.6876,6.7257,6.7579,6.7976,6.8292,6.875,6.9099,6.937,6.9699,6.9965,7.0129,7.0372,7.055,7.0768,7.1224,7.1428,7.2275,7.3046,7.3817,7.4551,7.4845,7.4918,7.4515,5.9347,5.9347,5.9316,5.9347,5.9378,5.987,6.0055,6.0116,6.0578,6.0794,6.0794,6.0794,6.027,5.9439,5.9347,5.9255,5.907,5.9039,5.8947,5.8881,5.9234,5.9365,5.9331,6.0314,6.0901,6.1103,6.1676,6.2245,6.2646,6.2922,6.3666,6.4749,6.5121,6.573,6.6711,6.6812,6.6812,6.6812,6.6812,6.6896,6.6928,6.6133,6.5493,6.5175,6.4818,6.4546,6.4393,6.4191,6.4115,6.4263,6.4209,6.408,6.3876,6.3393,6.3013,6.2772,6.2255,6.1944,6.1944,6.1944,6.191,6.1944,6.191,6.2255,6.2944,6.3393,6.3772,6.4332,6.4743,6.5122,6.5373,6.5616,6.5886,6.6159,6.6566,6.7049,6.7916,6.7945,6.7679,6.7325,6.7161,6.6704,6.6083,6.5842,6.5914,6.6156,6.6225,6.6324,6.6497,6.698,6.729,6.7325,6.7773,6.8007,6.8127,6.832,6.9141,6.9424,6.9459,6.9566,7.0438,7.0436,7.0671,6.9939,7.1246,7.1945,7.1659,7.2028,7.2936,7.3854,7.4771,7.5439,7.5799,7.5586,7.5586,6.0701,6.0701,6.0701,6.0609,6.0701,6.0701,6.0732,6.0701,6.0763,6.0794,6.0794,6.0794,6.0763,6.064,6.0578,6.0332,5.9809,5.9747,5.9439,5.9016,5.9736,5.9807,5.9301,6.0174,6.075,6.0952,6.1202,6.1963,6.3322,6.4072,6.4884,6.5561,6.617,6.6677,6.6812,6.6812,6.6812,6.6812,6.6812,6.6812,6.6812,6.6753,6.6396,6.5984,6.5882,6.582,6.5848,6.5854,6.6057,6.6524,6.5774,6.5164,6.4735,6.4634,6.4255,6.3669,6.3531,6.3496,6.3496,6.3496,6.3496,6.3496,6.3496,6.3807,6.4358,6.4083,6.4358,6.56,6.4648,6.427,6.489,6.555,6.6132,6.6673,6.6359,6.6842,6.7945,6.7669,6.7463,6.7669,6.7359,6.6773,6.6014,6.5876,6.6324,6.6738,6.6945,6.7152,6.7635,6.7911,6.7945,6.7945,6.8014,6.8088,6.8093,6.827,6.8262,6.8482,6.8673,6.8478,6.828,6.8319,6.8863,6.9419,7.0266,7.097,7.1422,7.2255,7.334,7.4515,7.5946,7.665,7.6576,7.7017,7.6943,6.0794,6.0794,6.0794,6.0794,6.0794,6.0794,6.0794,6.0794,6.0794,6.0794,6.0794,6.0794,6.0794,6.0794,6.0794,6.0671,6.0455,6.0424,6.0301,6.0075,5.9997,5.9806,5.9656,6.0123,6.0495,6.0805,6.1386,6.1999,6.2775,6.3565,6.4275,6.4986,6.573,6.6305,6.6745,6.6812,6.6812,6.6812,6.6812,6.6812,6.6812,6.6812,6.6719,6.649,6.6057,6.6057,6.6532,6.6214,6.6303,6.6909,6.6502,6.6186,6.5955,6.5662,6.5359,6.5117,6.5048,6.5048,6.5048,6.5048,6.5048,6.5048,6.5048,6.5117,6.5359,6.5221,6.5324,6.5635,6.5462,6.5221,6.5393,6.5738,6.6018,6.6324,6.7325,6.7911,6.8118,6.8256,6.8221,6.7566,6.7118,6.6876,6.6807,6.698,6.7394,6.7635,6.7704,6.7807,6.798,6.8083,6.8083,6.8083,6.8083,6.8083,6.8083,6.8083,6.8123,6.8123,6.8201,6.8517,6.8517,6.8593,6.9087,6.9741,7.0201,7.0684,7.1557,7.3222,7.4212,7.5249,7.665,7.7163,7.7273,7.731,7.731,6.0794,6.0794,6.0794,6.0794,6.0794,6.0794,6.0794,6.0794,6.0794,6.0794,6.0794,6.0794,6.0794,6.0794,6.0794,6.0794,6.0794,6.0794,6.0794,6.0763,6.0332,5.9993,5.9818,6.0004,6.0107,6.038,6.1447,6.2232,6.2876,6.3768,6.4478,6.4986,6.5696,6.6305,6.6745,6.6812,6.6812,6.6812,6.6812,6.6812,6.6812,6.6812,6.6948,6.7049,6.6677,6.6779,6.7489,6.7175,6.7369,6.7962,6.7605,6.7056,6.6735,6.6174,6.5876,6.5876,6.5876,6.5876,6.5876,6.5876,6.5876,6.5876,6.5876,6.5876,6.5876,6.5876,6.5876,6.5876,6.5876,6.5876,6.5945,6.6083,6.6221,6.6393,6.7635,6.8428,6.8152,6.8566,6.8325,6.7669,6.7428,6.7359,6.7394,6.7773,6.8014,6.8083,6.8083,6.8083,6.8083,6.8083,6.8083,6.8083,6.8083,6.8083,6.8083,6.8083,6.8083,6.8083,6.8083,6.844,6.867,6.8825,6.9229,6.9955,7.0555,7.104,7.2214,7.3957,7.5135,7.5989,7.668,7.7237,7.731,7.731,7.731,6.0794,6.0794,6.0794,6.0794,6.0794,6.0794,6.0794,6.0794,6.0794,6.0794,6.0794,6.0794,6.0794,6.0794,6.0794,6.0794,6.0794,6.0794,6.0794,6.0763,6.0732,6.0393,5.9952,5.991,5.9737,5.9536,6.1197,6.2507,6.3202,6.4505,6.5324,6.5696,6.6237,6.6609,6.6812,6.6812,6.6812,6.6812,6.6812,6.6812,6.6812,6.6812,6.7117,6.7726,6.776,6.8132,6.9011,6.9011,6.9311,6.9993,6.9025,6.7837,6.6862,6.6308,6.5979,6.6045,6.5979,6.5945,6.6014,6.6048,6.6152,6.6152,6.6014,6.6152,6.6186,6.6117,6.6117,6.6114,6.6079,6.6048,6.6148,6.6596,6.6941,6.7014,6.7325,6.7738,6.798,6.8083,6.8083,6.8014,6.798,6.8049,6.8049,6.8049,6.8083,6.8083,6.8083,6.8083,6.8083,6.8083,6.8083,6.8083,6.8083,6.8083,6.8083,6.8083,6.8083,6.8083,6.8083,6.8241,6.8245,6.8435,6.8941,6.9685,7.0583,7.1161,7.2815,7.4442,7.5452,7.6295,7.6876,7.7273,7.731,7.731,7.731,6.0794,6.0794,6.0794,6.0794,6.0794,6.0794,6.0794,6.0794,6.0794,6.0794,6.0794,6.0794,6.0794,6.0794,6.0794,6.0794,6.0794,6.0794,6.0794,6.0794,6.0794,6.0701,6.0517,6.0455,6.0303,6.006,6.0848,6.1476,6.2007,6.341,6.441,6.4986,6.5696,6.6305,6.6812,6.6812,6.6812,6.6812,6.6812,6.6812,6.6812,6.6812,6.7151,6.7793,6.7895,6.8504,6.9755,6.9857,7.0002,7.0294,6.9508,6.8497,6.7448,6.709,6.6993,6.6993,6.7152,6.7232,6.7197,6.7315,6.7359,6.7394,6.7394,6.7394,6.7394,6.7359,6.7281,6.7237,6.7232,6.7152,6.7067,6.7164,6.7255,6.7049,6.7911,6.8325,6.8113,6.8083,6.8083,6.8083,6.8083,6.8083,6.8083,6.8083,6.8083,6.8083,6.8083,6.8083,6.8083,6.8083,6.8083,6.8083,6.8083,6.8083,6.8083,6.8083,6.8083,6.8083,6.8083,6.8083,6.8083,6.8192,6.8734,6.9528,7.0403,7.1643,7.3332,7.4622,7.5571,7.6459,7.7034,7.7212,7.7273,7.7212,7.715,6.0638,6.0638,6.0638,6.069,6.0794,6.0794,6.0794,6.0794,6.0794,6.0794,6.0794,6.0794,6.0794,6.0794,6.0794,6.0794,6.0794,6.0794,6.0794,6.0794,6.0794,6.0794,6.0732,6.0517,6.0396,6.0297,6.0561,6.0674,6.0591,6.2065,6.3325,6.4078,6.4833,6.5741,6.6703,6.6812,6.6812,6.6812,6.6812,6.6812,6.6812,6.6812,6.7151,6.7793,6.7895,6.8538,6.9654,6.9789,6.9925,6.9969,6.9431,6.8489,6.7523,6.7435,6.7475,6.7516,6.7597,6.7678,6.7719,6.7696,6.7879,6.7845,6.7845,6.7845,6.7845,6.7879,6.7799,6.7719,6.7725,6.7719,6.7557,6.7557,6.7479,6.7221,6.8257,6.8739,6.8326,6.8017,6.7879,6.7839,6.7845,6.7879,6.7879,6.7959,6.7999,6.7999,6.8044,6.8083,6.8083,6.8083,6.8083,6.8083,6.8083,6.8083,6.8083,6.8083,6.8083,6.8083,6.8083,6.8083,6.8083,6.8118,6.8443,6.9441,7.0384,7.1546,7.3152,7.4354,7.5378,7.6186,7.6893,7.7024,7.6993,7.6829,7.6797,6.0377,6.0377,6.0377,6.0586,6.0794,6.0794,6.0794,6.0794,6.0794,6.0794,6.0794,6.0742,6.0794,6.0794,6.0742,6.0742,6.0794,6.0794,6.0794,6.0794,6.0794,6.0794,6.0732,6.0209,5.9973,5.9992,6.0139,5.9954,5.9628,6.104,6.2199,6.2987,6.3932,6.5044,6.6213,6.666,6.6812,6.6812,6.6812,6.6812,6.6812,6.6812,6.7151,6.7861,6.7929,6.8301,6.9079,6.9113,6.9316,6.9799,6.8786,6.7852,6.7316,6.7387,6.7394,6.7428,6.7435,6.751,6.751,6.755,6.7557,6.7557,6.7557,6.7475,6.7557,6.7557,6.7591,6.751,6.7597,6.7638,6.7475,6.7516,6.7523,6.7544,6.8029,6.8412,6.8473,6.7933,6.7706,6.7597,6.7557,6.7557,6.7638,6.7799,6.7839,6.7919,6.8004,6.8083,6.8083,6.8083,6.8083,6.8083,6.8083,6.8083,6.8083,6.8083,6.8083,6.8083,6.8083,6.8083,6.8187,6.8256,6.8428,6.9431,7.0184,7.1459,7.2667,7.3833,7.4891,7.5742,7.6233,7.6534,7.6534,7.6336,7.6469,6.025,6.0377,6.0377,6.0534,6.0794,6.0794,6.0794,6.0794,6.0794,6.0794,6.0742,6.0586,6.0586,6.0742,6.0586,6.0586,6.0742,6.0794,6.0794,6.0794,6.0794,6.0794,6.0671,6.0116,5.9591,5.9259,5.9362,5.9205,5.8719,6.0109,6.1069,6.1424,6.321,6.4387,6.5,6.617,6.677,6.6812,6.6812,6.6812,6.6812,6.6812,6.7184,6.7827,6.7861,6.8267,6.8944,6.8504,6.8267,6.8402,6.7701,6.7133,6.6972,6.698,6.7022,6.7022,6.718,6.7263,6.7304,6.7428,6.751,6.7475,6.7435,6.7475,6.7475,6.751,6.7428,6.7346,6.7346,6.7263,6.7063,6.7063,6.7063,6.7063,6.7509,6.7892,6.7946,6.7856,6.7759,6.7885,6.7919,6.7879,6.7879,6.7959,6.7999,6.7965,6.8044,6.8083,6.8083,6.8083,6.8083,6.8083,6.8083,6.8083,6.8083,6.8083,6.8083,6.8083,6.8083,6.8083,6.829,6.8532,6.8842,6.9405,6.9698,7.0684,7.1847,7.3065,7.4113,7.4905,7.5227,7.5367,7.5685,7.5688,7.5998,5.9849,6.0008,6.0197,6.0407,6.0638,6.0742,6.0742,6.0638,6.0638,6.0534,6.046,6.0272,6.0302,6.046,6.0302,6.0302,6.046,6.046,6.046,6.046,6.046,6.0512,6.0484,6.0065,5.9338,5.8561,5.8545,5.8151,5.7809,5.8781,5.9737,6.0661,6.1886,6.3073,6.4387,6.5153,6.5968,6.6289,6.6609,6.6812,6.6812,6.6812,6.6981,6.7387,6.7455,6.7726,6.7996,6.7692,6.7455,6.7354,6.7049,6.6812,6.6812,6.6812,6.6812,6.6812,6.6938,6.7022,6.7056,6.718,6.7188,6.7188,6.7188,6.7188,6.7188,6.7188,6.7105,6.7056,6.7139,6.7056,6.6854,6.6812,6.6812,6.6854,6.7063,6.727,6.7516,6.755,6.7638,6.7799,6.7839,6.7839,6.7879,6.7919,6.7999,6.7999,6.8039,6.8044,6.8083,6.8083,6.8083,6.8044,6.8044,6.8044,6.8044,6.8044,6.8147,6.8147,6.8394,6.8359,6.8463,6.8739,6.8739,6.9015,6.9291,6.99,7.1067,7.2026,7.2524,7.3216,7.3749,7.4395,7.4795,7.501,7.537,5.9476,5.9529,5.9827,6.0092,6.0377,6.0586,6.0534,6.0377,6.0377,6.025,6.0039,6.0016,5.9986,6.0016,5.9986,5.9986,6.0016,6.0092,6.0039,6.0039,6.0092,6.0144,6.0211,5.9992,5.9205,5.8268,5.7898,5.7322,5.7002,5.7438,5.847,5.9585,6.0187,6.1509,6.3073,6.398,6.4724,6.5522,6.6179,6.661,6.6728,6.6812,6.688,6.6914,6.6948,6.6948,6.7015,6.688,6.688,6.6846,6.6812,6.6812,6.6812,6.6812,6.6812,6.6812,6.6812,6.6812,6.6812,6.6854,6.6854,6.6854,6.6854,6.6812,6.6854,6.6896,6.6854,6.6854,6.7014,6.7014,6.6854,6.6812,6.6812,6.6812,6.6812,6.6972,6.7139,6.7222,6.7304,6.751,6.7516,6.7557,6.7597,6.7719,6.7879,6.7999,6.8078,6.8083,6.8044,6.8004,6.8004,6.8039,6.7999,6.7999,6.7999,6.7965,6.8137,6.828,6.8773,6.8842,6.8808,6.8877,6.8601,6.8704,6.9497,6.9911,7.0274,7.0962,7.1497,7.2205,7.3225,7.379,7.4239,7.427,7.4529,5.9315,5.9529,5.9583,5.9773,6.0039,6.0144,6.0144,6.0092,6.0092,6.0039,5.9963,5.972,5.9773,5.9963,5.972,5.9773,5.9963,5.9933,5.9986,5.9986,5.9986,5.9827,5.9796,5.9796,5.921,5.8276,5.7932,5.7253,5.6663,5.7014,5.7365,5.7603,5.9659,6.0789,6.0747,6.2769,6.4072,6.464,6.528,6.6072,6.661,6.677,6.6812,6.6812,6.6812,6.6812,6.6812,6.6812,6.6812,6.6812,6.6812,6.6812,6.6812,6.6812,6.6812,6.6812,6.6812,6.6812,6.6812,6.6812,6.6812,6.6812,6.6812,6.6812,6.6812,6.6812,6.6812,6.6812,6.6854,6.6854,6.6812,6.6812,6.6812,6.6812,6.6812,6.693,6.7139,6.7346,6.7475,6.7678,6.7839,6.7925,6.7925,6.7925,6.8004,6.8004,6.8044,6.8083,6.8004,6.7959,6.7919,6.7879,6.7799,6.7799,6.7834,6.8011,6.847,6.8716,6.9216,6.9601,6.9566,6.9463,6.936,6.9566,7.0015,7.0222,7.0331,7.0746,7.1468,7.2116,7.263,7.3026,7.3342,7.3447,7.3606,5.9153,5.9315,5.9422,5.9583,5.9773,5.9933,5.991,5.9773,5.9773,5.972,5.956,5.9369,5.9422,5.956,5.9369,5.9422,5.956,5.956,5.956,5.956,5.956,5.9506,5.9369,5.9362,5.8987,5.8075,5.7607,5.6991,5.6657,5.6807,5.7098,5.6941,5.8727,5.936,5.9397,6.1216,6.2331,6.3305,6.4586,6.5592,6.6062,6.6567,6.6812,6.6812,6.6812,6.6812,6.6812,6.6812,6.6812,6.6812,6.6812,6.6812,6.6812,6.6812,6.6812,6.6812,6.6812,6.6812,6.6812,6.6812,6.6812,6.6812,6.6812,6.6812,6.6812,6.6812,6.6812,6.6812,6.6812,6.6812,6.6812,6.6812,6.6812,6.6812,6.6812,6.6854,6.7056,6.7304,6.7557,6.7759,6.7925,6.8044,6.8083,6.8044,6.8083,6.8044,6.8044,6.8044,6.7959,6.7839,6.7759,6.7678,6.7597,6.7591,6.7659,6.8049,6.8788,6.9254,6.9789,7.0319,7.0601,7.0498,7.036,7.0532,7.0601,7.0429,7.0532,7.0981,7.136,7.176,7.2147,7.2299,7.2624,7.3025,7.3113,5.9099,5.9099,5.9369,5.9422,5.9476,5.972,5.9667,5.9476,5.9422,5.9315,5.9153,5.9099,5.9153,5.9099,5.9153,5.9099,5.9099,5.9153,5.9207,5.9207,5.9207,5.9207,5.9123,5.8943,5.8644,5.8045,5.742,5.6828,5.6445,5.6647,5.6697,5.7018,5.74,5.7961,5.8765,5.9774,6.0725,6.1787,6.3714,6.5114,6.5548,6.6278,6.677,6.6812,6.6812,6.6812,6.6812,6.6812,6.6812,6.6812,6.6812,6.6812,6.6812,6.6812,6.6812,6.6812,6.6812,6.6812,6.6812,6.6812,6.6812,6.6812,6.6812,6.6812,6.6812,6.6812,6.6812,6.6812,6.6812,6.6812,6.6812,6.6812,6.6812,6.6812,6.6812,6.6812,6.6854,6.7188,6.7475,6.7638,6.7799,6.7879,6.7925,6.7925,6.8004,6.8044,6.8044,6.7965,6.7839,6.7719,6.7632,6.7435,6.7312,6.7536,6.7672,6.8759,6.9396,6.9837,7.0416,7.0953,7.1449,7.1415,7.1201,7.1084,7.1091,7.0981,7.1015,7.1429,7.1636,7.1601,7.1843,7.2368,7.2575,7.2671,7.2617,5.9099,5.9099,5.9153,5.9153,5.9153,5.9207,5.9261,5.9153,5.9207,5.9153,5.9099,5.9099,5.9099,5.9099,5.9099,5.9099,5.9099,5.9099,5.9099,5.9099,5.9099,5.9099,5.9039,5.871,5.8268,5.7962,5.7371,5.656,5.5861,5.5712,5.6003,5.6133,5.6846,5.7322,5.7543,5.8535,5.9737,6.0567,6.252,6.3961,6.4947,6.6019,6.6728,6.677,6.6812,6.6812,6.6812,6.6812,6.6812,6.6812,6.6812,6.6812,6.6812,6.6812,6.6812,6.6812,6.6812,6.6812,6.6812,6.6812,6.6812,6.6812,6.6812,6.6812,6.6812,6.6812,6.6812,6.6846,6.6846,6.6846,6.6812,6.6914,6.6846,6.6846,6.6846,6.6812,6.6854,6.7056,6.7263,6.7346,6.7475,6.7678,6.7759,6.7799,6.7799,6.7839,6.7839,6.7759,6.7597,6.755,6.7469,6.7263,6.7022,6.7379,6.7743,6.9178,7.0234,7.049,7.1003,7.1525,7.1876,7.2056,7.2038,7.1752,7.1877,7.205,7.2084,7.2091,7.2084,7.2188,7.2402,7.254,7.2609,7.2636,7.236,5.9099,5.9099,5.9099,5.9099,5.9099,5.9099,5.9099,5.9099,5.9099,5.9099,5.9099,5.9099,5.9099,5.9099,5.9099,5.9099,5.9099,5.9099,5.9099,5.9099,5.9099,5.9099,5.9099,5.874,5.8171,5.7693,5.7184,5.6615,5.5748,5.551,5.5511,5.5691,5.6243,5.6332,5.6481,5.7495,5.85,5.9451,6.1068,6.2668,6.3732,6.5159,6.6148,6.6686,6.6812,6.6812,6.6812,6.6812,6.6812,6.6812,6.6812,6.6812,6.6812,6.6812,6.6812,6.6812,6.6812,6.6812,6.6812,6.6812,6.6812,6.6812,6.6812,6.6812,6.6812,6.6812,6.6812,6.688,6.7286,6.7354,6.7387,6.732,6.7354,6.732,6.7083,6.6846,6.6812,6.6896,6.7014,6.7056,6.7346,6.7516,6.7597,6.7597,6.7557,6.7597,6.7638,6.7516,6.7387,6.7346,6.7304,6.7233,6.7167,6.7802,6.8301,6.9557,7.0663,7.1022,7.128,7.1839,7.2115,7.2167,7.2253,7.221,7.2509,7.2671,7.2602,7.236,7.2567,7.2671,7.2678,7.2644,7.2678,7.2567,7.236,5.9099,5.9099,5.9099,5.9099,5.9099,5.9099,5.9099,5.9099,5.9099,5.9099,5.9099,5.9099,5.9099,5.9099,5.9099,5.9099,5.9099,5.9099,5.9099,5.9099,5.9099,5.9099,5.9069,5.88,5.8261,5.7304,5.6885,5.6585,5.5867,5.5469,5.539,5.5511,5.5531,5.5681,5.6061,5.6748,5.7264,5.8329,5.9749,6.115,6.27,6.4309,6.5767,6.6652,6.6812,6.6812,6.6812,6.6812,6.6812,6.6812,6.6812,6.6812,6.6812,6.6812,6.6812,6.6812,6.6812,6.6812,6.6812,6.6812,6.6812,6.6812,6.6812,6.6812,6.6812,6.6812,6.6812,6.6914,6.7218,6.7658,6.7692,6.7692,6.7726,6.7726,6.7252,6.6812,6.6812,6.6812,6.6854,6.698,6.7188,6.7346,6.7394,6.7312,6.727,6.7387,6.7469,6.7312,6.718,6.7222,6.7248,6.7243,6.7489,6.8267,6.9055,6.9911,7.0778,7.123,7.1386,7.1688,7.1898,7.2072,7.2202,7.2331,7.2544,7.2671,7.2671,7.2671,7.2671,7.2671,7.2671,7.2671,7.2671,7.2671,7.2567,5.9099,5.9099,5.9099,5.9099,5.9099,5.9099,5.9099,5.9099,5.9099,5.9099,5.9099,5.9099,5.9099,5.9099,5.9099,5.9099,5.9099,5.9099,5.9099,5.9099,5.9099,5.9099,5.9009,5.8471,5.7992,5.7184,5.6615,5.5927,5.5508,5.5269,5.5239,5.534,5.5541,5.5661,5.5842,5.6234,5.7111,5.8024,5.9448,6.1481,6.3822,6.4766,6.5592,6.644,6.6728,6.6728,6.677,6.6812,6.6812,6.6812,6.6812,6.6812,6.6812,6.6812,6.6812,6.6812,6.6812,6.6812,6.6812,6.6812,6.6812,6.6812,6.6812,6.6812,6.6812,6.6812,6.6812,6.6812,6.7049,6.7387,6.7726,6.7421,6.7421,6.7421,6.7286,6.6914,6.6812,6.6812,6.6812,6.6812,6.7022,6.7139,6.718,6.7022,6.6938,6.7097,6.718,6.7097,6.7014,6.7097,6.7097,6.71,6.7827,6.8639,6.9282,7.025,7.0859,7.1334,7.1412,7.1501,7.1678,7.1854,7.2072,7.2202,7.2459,7.2628,7.2628,7.2628,7.2671,7.2671,7.2671,7.2671,7.2671,7.2671,7.2671,5.9099,5.9099,5.9099,5.9099,5.9099,5.9099,5.9099,5.9099,5.9099,5.9099,5.9099,5.9099,5.9099,5.9099,5.9099,5.9099,5.9099,5.9099,5.9099,5.9099,5.9099,5.9099,5.9039,5.877,5.8201,5.7274,5.6735,5.6166,5.5568,5.5269,5.5299,5.5679,5.549,5.5621,5.5711,5.5801,5.6483,5.7441,5.8765,6.0551,6.2523,6.3434,6.4216,6.5888,6.5975,6.6278,6.6686,6.6812,6.6812,6.6812,6.6812,6.6812,6.6812,6.6812,6.6812,6.6812,6.6812,6.6812,6.6812,6.6812,6.6812,6.6812,6.6812,6.6812,6.6812,6.6812,6.6812,6.6812,6.7658,6.803,6.8064,6.8064,6.7963,6.7793,6.7286,6.6981,6.6812,6.6812,6.6812,6.6812,6.6812,6.693,6.7014,6.6896,6.6854,6.6938,6.7014,6.6972,6.6896,6.6896,6.6896,6.6846,6.7861,6.9011,6.9553,7.0239,7.0883,7.1323,7.1356,7.1401,7.1457,7.159,7.1854,7.1951,7.2115,7.2288,7.2416,7.2544,7.2628,7.2671,7.2671,7.2671,7.2671,7.2671,7.2671,5.9099,5.9099,5.9099,5.9099,5.9099,5.9099,5.9099,5.9099,5.9099,5.9099,5.9099,5.9099,5.9099,5.9099,5.9099,5.9099,5.9099,5.9099,5.9099,5.9099,5.9099,5.9099,5.9099,5.8979,5.8471,5.7334,5.7393,5.6915,5.6256,5.5688,5.5658,5.5978,5.5439,5.5469,5.5679,5.5649,5.5918,5.7169,5.8362,6.0013,6.1596,6.199,6.3371,6.4629,6.5415,6.5767,6.6643,6.6812,6.6812,6.6812,6.6812,6.6812,6.6812,6.6812,6.6812,6.6812,6.6812,6.6812,6.6812,6.6812,6.6812,6.6812,6.6812,6.6812,6.6812,6.6812,6.6981,6.7151,6.7895,6.8368,6.8571,6.8774,6.8436,6.7963,6.7421,6.7083,6.6812,6.6812,6.6812,6.6812,6.6812,6.6812,6.6854,6.6812,6.6812,6.6812,6.6812,6.6812,6.6812,6.6812,6.6812,6.6846,6.7624,6.8741,6.9417,7.006,7.0737,7.1244,7.1278,7.1312,7.1401,7.1457,7.1644,7.1732,7.1854,7.2029,7.2288,7.2416,7.2544,7.2628,7.2671,7.2628,7.2671,7.2671,7.2671,5.9099,5.9099,5.9099,5.9099,5.9099,5.9099,5.9099,5.9099,5.9099,5.9099,5.9099,5.9099,5.9099,5.9099,5.9099,5.9099,5.9099,5.9099,5.9099,5.9099,5.9099,5.9099,5.9099,5.9009,5.874,5.8082,5.7902,5.7842,5.7543,5.6406,5.5897,5.5329,5.5329,5.5269,5.5508,5.5807,5.6166,5.7326,5.8444,5.981,6.1,6.174,6.2843,6.4538,6.5248,6.5767,6.6686,6.677,6.6812,6.6812,6.6812,6.6812,6.6812,6.6812,6.6812,6.6812,6.6812,6.6812,6.6812,6.6812,6.6812,6.6812,6.6812,6.6812,6.6812,6.6846,6.7117,6.7692,6.8301,6.8842,6.9011,6.9045,6.8808,6.8368,6.7861,6.7286,6.7015,6.6846,6.6846,6.6812,6.6812,6.6812,6.6812,6.6812,6.6812,6.6812,6.6812,6.6812,6.6812,6.6812,6.6812,6.6948,6.7489,6.8267,6.9011,6.9722,7.05,7.0973,7.1176,7.1244,7.1312,7.1412,7.1512,7.16,7.1722,7.1942,7.2029,7.2072,7.2159,7.2459,7.2586,7.2586,7.2628,7.2671,7.2671,5.9099,5.9099,5.9099,5.9099,5.9099,5.9099,5.9099,5.9099,5.9099,5.9099,5.9099,5.9099,5.9099,5.9099,5.9099,5.9099,5.9099,5.9099,5.9099,5.9099,5.9099,5.9099,5.9099,5.9009,5.877,5.8291,5.8141,5.7812,5.7304,5.6974,5.6765,5.6256,5.5658,5.5867,5.6107,5.6615,5.7184,5.7543,5.8338,5.9206,6.0053,6.0659,6.152,6.2988,6.4137,6.4811,6.5767,6.6482,6.6728,6.6812,6.6812,6.6812,6.6812,6.6812,6.6812,6.6812,6.6812,6.6812,6.6812,6.6812,6.6812,6.6812,6.6812,6.6846,6.6914,6.7184,6.7489,6.803,6.8741,6.9485,6.918,6.9383,6.9383,6.8944,6.8335,6.7624,6.7184,6.6948,6.6846,6.6812,6.6812,6.6812,6.6812,6.6812,6.6812,6.6812,6.6812,6.6812,6.6812,6.6812,6.6812,6.6914,6.7387,6.776,6.847,6.935,7.0195,7.0635,7.1007,7.1142,7.1244,7.1312,7.1367,7.1501,7.159,7.1678,7.1722,7.1634,7.181,7.2245,7.2416,7.2459,7.2544,7.2671,7.2671,5.8743,5.9099,5.9099,5.9099,5.9099,5.9099,5.9099,5.9099,5.9099,5.9099,5.9099,5.9099,5.9099,5.9099,5.9099,5.9099,5.9099,5.9099,5.9099,5.9099,5.9099,5.9099,5.9099,5.9039,5.889,5.8471,5.8381,5.8171,5.7902,5.7543,5.7393,5.7034,5.6406,5.6526,5.6915,5.7752,5.8141,5.8088,5.8381,5.8697,5.9499,5.9902,6.0711,6.194,6.294,6.4124,6.5114,6.5975,6.644,6.6686,6.6812,6.6812,6.6812,6.6812,6.6812,6.6812,6.6812,6.6812,6.6812,6.6812,6.6812,6.6812,6.6812,6.6948,6.7218,6.7658,6.7929,6.8774,6.962,7.0026,6.9586,6.9958,6.9654,6.9113,6.8335,6.7658,6.7252,6.6981,6.688,6.6812,6.6812,6.6812,6.6812,6.6812,6.6812,6.6812,6.6812,6.6812,6.6812,6.6812,6.6812,6.6948,6.7151,6.7523,6.7929,6.8605,6.935,7.0297,7.0669,7.1007,7.1142,7.121,7.1312,7.1401,7.1412,7.1412,7.1457,7.1501,7.1766,7.2115,7.2245,7.2373,7.2459,7.2586,7.2671,5.797,5.9045,5.9099,5.9099,5.9099,5.9099,5.9099,5.9099,5.9099,5.9099,5.9099,5.9099,5.9099,5.9099,5.9099,5.9099,5.9099,5.9099,5.9099,5.9099,5.9099,5.9099,5.9099,5.9069,5.9039,5.9099,5.8949,5.886,5.886,5.8351,5.8141,5.7962,5.7453,5.7094,5.7214,5.7812,5.8141,5.8231,5.877,5.9141,5.9446,5.9773,6.0659,6.1368,6.2238,6.3419,6.4433,6.5337,6.5898,6.6397,6.6728,6.677,6.6812,6.6812,6.6812,6.6812,6.6812,6.6812,6.6812,6.6812,6.6846,6.6981,6.7083,6.7286,6.7726,6.8132,6.8571,6.9519,7.0161,7.0601,7.0635,7.0601,6.9992,6.9316,6.8571,6.7895,6.7523,6.6981,6.688,6.6812,6.6812,6.6812,6.6812,6.6812,6.6812,6.6812,6.6812,6.6812,6.6812,6.6812,6.6812,6.688,6.7015,6.7184,6.7523,6.7793,6.8504,6.9553,7.0331,7.0669,7.1007,7.1176,7.1244,7.1278,7.1356,7.1412,7.1412,7.1457,7.1678,7.1854,7.2159,7.2288,7.2373,7.2459,7.2586,5.7915,5.9099,5.9099,5.9099,5.9099,5.9099,5.9099,5.9099,5.9099,5.9099,5.9099,5.9099,5.9099,5.9099,5.9099,5.9099,5.9099,5.9099,5.9099,5.9099,5.9099,5.9099,5.9099,5.9099,5.9099,5.9099,5.9099,5.9099,5.9039,5.877,5.877,5.865,5.8381,5.8201,5.8082,5.8381,5.877,5.88,5.9009,5.9153,5.9345,5.972,6.025,6.0763,6.1702,6.2632,6.3546,6.4447,6.5382,6.5975,6.6354,6.677,6.6812,6.6812,6.6812,6.6812,6.6812,6.6812,6.6812,6.6846,6.7083,6.732,6.7523,6.7827,6.8571,6.918,6.9722,7.0128,7.0635,7.1007,7.1109,7.1109,7.0601,6.9925,6.918,6.8436,6.7861,6.7184,6.6812,6.6812,6.6812,6.6812,6.6812,6.6812,6.6812,6.6812,6.6812,6.6812,6.6812,6.6812,6.6812,6.6812,6.688,6.6981,6.7151,6.7455,6.7793,6.8639,6.9586,7.0297,7.0635,7.0906,7.1142,7.1142,7.1255,7.1401,7.1367,7.1367,7.1446,7.158,7.1854,7.2115,7.2245,7.2331,7.2459,5.7328,5.844,5.8936,5.9099,5.9099,5.9099,5.9099,5.9099,5.9099,5.9099,5.9099,5.9099,5.9099,5.9099,5.9099,5.9099,5.9099,5.9099,5.9099,5.9099,5.9099,5.9099,5.9099,5.9099,5.9099,5.9099,5.9099,5.9099,5.9099,5.9099,5.9069,5.9039,5.9099,5.88,5.868,5.886,5.9069,5.9039,5.9099,5.9099,5.9261,5.9529,5.988,6.0355,6.1021,6.1872,6.2632,6.3703,6.4947,6.5382,6.6105,6.6728,6.677,6.6812,6.6812,6.6812,6.6812,6.6812,6.6812,6.6812,6.7286,6.8199,6.8098,6.847,6.9248,6.9789,7.0229,7.0635,7.1075,7.121,7.1312,7.1312,7.077,7.006,6.9282,6.8504,6.7963,6.7286,6.6812,6.6812,6.6812,6.6812,6.6812,6.6812,6.6812,6.6812,6.6812,6.6812,6.6812,6.6812,6.6812,6.6812,6.6812,6.688,6.6981,6.7151,6.7489,6.7861,6.8673,6.9586,7.0026,7.0263,7.0635,7.1007,7.1109,7.1255,7.1278,7.1312,7.1356,7.1401,7.1535,7.1766,7.2029,7.2167,7.2296,5.6079,5.7272,5.858,5.9045,5.9045,5.8907,5.8936,5.8991,5.8991,5.8991,5.9099,5.9099,5.9099,5.9099,5.9099,5.9099,5.9099,5.9099,5.9099,5.9099,5.9099,5.9099,5.9099,5.9099,5.9099,5.9099,5.9099,5.9099,5.9099,5.9099,5.9099,5.9099,5.9099,5.9009,5.9009,5.9039,5.9099,5.9099,5.9099,5.9099,5.9207,5.9369,5.972,6.0092,6.0534,6.1195,6.2072,6.3132,6.417,6.5069,6.6062,6.6525,6.677,6.6812,6.6812,6.6812,6.6812,6.6812,6.6812,6.6812,6.7624,6.8538,6.8368,6.8944,6.9755,7.0364,7.0635,7.0939,7.1244,7.1278,7.1312,7.0872,7.0466,6.9688,6.891,6.8335,6.7895,6.7387,6.6948,6.6812,6.6812,6.6812,6.6812,6.6812,6.6812,6.6812,6.6812,6.6812,6.6812,6.6812,6.6812,6.6812,6.6812,6.6812,6.6914,6.7015,6.7117,6.7455,6.7861,6.8605,6.9079,6.9586,6.9958,7.0364,7.0872,7.1109,7.1244,7.1312,7.1312,7.1356,7.1446,7.1546,7.1776,7.1994,7.2159,5.5644,5.6136,5.8166,5.855,5.7804,5.7719,5.7749,5.7749,5.7804,5.8166,5.9099,5.9099,5.9045,5.9099,5.9099,5.9099,5.9099,5.9099,5.9099,5.9099,5.9099,5.9099,5.9099,5.9099,5.9099,5.9099,5.9099,5.9099,5.9099,5.9099,5.9099,5.9099,5.9099,5.9099,5.9099,5.9099,5.9099,5.9099,5.9099,5.9099,5.9153,5.9315,5.9667,5.9933,6.025,6.0815,6.1399,6.2319,6.3276,6.4262,6.5204,6.5898,6.677,6.6812,6.6812,6.6812,6.6812,6.6812,6.6812,6.6812,6.7489,6.8707,6.8774,6.9654,7.0466,7.0973,7.1041,7.121,7.1312,7.1312,7.1244,7.0906,7.0567,7.0026,6.9214,6.8504,6.803,6.7455,6.7015,6.6812,6.6812,6.6812,6.6812,6.6812,6.6812,6.6812,6.6812,6.6812,6.6812,6.6812,6.6812,6.6812,6.6812,6.6812,6.6812,6.688,6.6948,6.7083,6.7489,6.7827,6.8233,6.8741,6.9214,6.9688,7.0195,7.077,7.1244,7.1244,7.1075,7.1278,7.1356,7.1457,7.1556,7.1776,7.2029,5.5091,5.5091,5.7889,5.811,5.6651,5.648,5.6223,5.5935,5.628,5.716,5.8276,5.8331,5.8605,5.9099,5.9099,5.9099,5.9099,5.9099,5.9099,5.9099,5.9099,5.9099,5.9099,5.9099,5.9099,5.9099,5.9099,5.9099,5.9099,5.9099,5.9099,5.9099,5.9099,5.9099,5.9099,5.9099,5.9099,5.9099,5.9099,5.9099,5.9153,5.9261,5.9476,5.9796,6.0114,6.0407,6.0742,6.1702,6.2729,6.375,6.4766,6.5767,6.6601,6.6812,6.6812,6.6812,6.6812,6.6812,6.6812,6.6812,6.7726,6.8605,6.9113,6.9891,7.0635,7.121,7.1244,7.1312,7.1312,7.1278,7.1176,7.1041,7.0838,7.0635,6.9688,6.8774,6.8132,6.7489,6.7151,6.688,6.6812,6.6812,6.6812,6.6812,6.6812,6.6812,6.6812,6.6812,6.6812,6.6812,6.6812,6.6812,6.6812,6.6812,6.6812,6.6812,6.688,6.6914,6.7049,6.7387,6.7624,6.803,6.8605,6.9079,6.9485,7.006,7.0635,7.0804,7.077,7.1007,7.121,7.1289,7.1423,7.1556,7.1854,5.4501,5.3664,5.7301,5.7414,5.5558,5.5442,5.4797,5.3664,5.4619,5.5848,5.6849,5.7075,5.7749,5.8495,5.8689,5.8907,5.9045,5.9099,5.9099,5.9099,5.9099,5.9099,5.9099,5.9099,5.9099,5.9099,5.9099,5.9099,5.9099,5.9099,5.9099,5.9099,5.9099,5.9099,5.9099,5.9099,5.9099,5.9099,5.9099,5.9099,5.9153,5.9153,5.9207,5.9583,5.988,6.0144,6.0638,6.1551,6.268,6.3703,6.4584,6.5592,6.644,6.6812,6.6812,6.6812,6.6812,6.6812,6.6812,6.6812,6.7692,6.8538,6.9147,6.9958,7.0737,7.1244,7.1312,7.1312,7.1312,7.1312,7.121,7.1075,7.0906,7.0635,6.9992,6.9485,6.918,6.8267,6.7252,6.6981,6.6812,6.6812,6.6812,6.6812,6.6812,6.6812,6.6812,6.6812,6.6643,6.6643,6.6728,6.6728,6.6812,6.6812,6.6812,6.6812,6.6812,6.6846,6.6914,6.6948,6.7184,6.7624,6.8064,6.847,6.8876,6.9383,6.9823,7.0026,7.0331,7.0804,7.1007,7.1176,7.13,7.1423,7.16,5.3207,5.2315,5.5091,5.5876,5.5442,5.5383,5.4679,5.3423,5.2719,5.3784,5.5558,5.5906,5.6594,5.7693,5.786,5.8191,5.8991,5.9099,5.9099,5.9045,5.9045,5.8991,5.9045,5.8936,5.9045,5.9099,5.9099,5.9099,5.9099,5.9099,5.9099,5.9099,5.9099,5.9099,5.9099,5.9099,5.9099,5.9099,5.9099,5.9207,5.9369,5.9261,5.9315,5.972,6.0016,6.0144,6.0534,6.0866,6.2238,6.3514,6.3937,6.5069,6.661,6.677,6.6812,6.6812,6.6812,6.6812,6.6812,6.6914,6.7658,6.8538,6.9282,7.0094,7.0737,7.1109,7.1312,7.1312,7.1312,7.1312,7.1278,7.1109,7.0973,7.0635,7.0263,7.0195,7.0094,6.8842,6.7489,6.7083,6.688,6.6812,6.6812,6.6812,6.6812,6.6812,6.6812,6.6686,6.6235,6.6148,6.6482,6.6567,6.677,6.6812,6.6812,6.6812,6.6812,6.6812,6.6846,6.6846,6.6812,6.7151,6.7557,6.7861,6.8267,6.8673,6.9011,6.9282,6.9654,7.0229,7.0669,7.077,7.1109,7.13,7.1467,5.2719,5.1882,5.3724,5.4942,5.5208,5.4797,5.4144,5.3389,5.213,5.2377,5.3664,5.4382,5.5472,5.6962,5.7216,5.786,5.8882,5.9099,5.9099,5.9045,5.8634,5.8689,5.8689,5.858,5.8798,5.8882,5.9045,5.9099,5.9099,5.9099,5.9099,5.9099,5.9099,5.9099,5.9099,5.9099,5.9099,5.9099,5.9099,5.9315,5.9583,5.9476,5.9506,5.988,6.0144,6.025,6.0377,6.0742,6.194,6.3656,6.4675,6.5514,6.661,6.677,6.6812,6.6812,6.6812,6.6812,6.6812,6.7049,6.759,6.8538,6.9113,6.9823,7.0939,7.1312,7.1312,7.1312,7.1312,7.1312,7.1312,7.121,7.1176,7.0973,7.0364,6.9958,6.9553,6.8707,6.7624,6.6948,6.6812,6.6812,6.6812,6.6812,6.6812,6.6812,6.6812,6.6397,6.6019,6.568,6.6019,6.6192,6.6235,6.6643,6.6812,6.6812,6.6812,6.6812,6.6686,6.6812,6.6812,6.6812,6.6981,6.7354,6.7624,6.7827,6.8166,6.847,6.8977,6.9553,6.9992,7.0364,7.0703,7.1041,7.1232,5.2535,5.1819,5.2964,5.4263,5.5091,5.4024,5.3664,5.3483,5.2253,5.1596,5.1908,5.2903,5.4651,5.605,5.7047,5.786,5.858,5.8936,5.9045,5.8743,5.786,5.8026,5.8026,5.7915,5.8331,5.8743,5.9099,5.9099,5.9099,5.9099,5.9099,5.9099,5.9099,5.9099,5.9099,5.9099,5.9099,5.9099,5.9207,5.9452,5.9613,5.969,5.9773,5.9986,6.025,6.0377,6.0481,6.0918,6.1922,6.3371,6.5114,6.6105,6.661,6.6812,6.6812,6.6812,6.6812,6.6812,6.6846,6.7049,6.7861,6.8673,6.9011,6.9789,7.0939,7.1312,7.1312,7.1312,7.1312,7.1312,7.1312,7.1312,7.1312,7.1244,7.0534,6.9891,6.935,6.8774,6.7963,6.7117,6.6914,6.6914,6.6812,6.6812,6.6812,6.6812,6.6567,6.6062,6.568,6.5426,6.5504,6.5426,6.5337,6.5811,6.6397,6.6728,6.6686,6.6192,6.6062,6.6482,6.6812,6.6812,6.6812,6.6846,6.7083,6.732,6.7489,6.7726,6.8267,6.8842,6.9079,6.9451,7.006,7.0432,7.0906,5.1819,5.1721,5.2964,5.4204,5.5032,5.4052,5.4084,5.456,5.2562,5.1596,5.1659,5.1846,5.2903,5.4323,5.5383,5.6423,5.7552,5.8331,5.8991,5.8936,5.7749,5.7552,5.7496,5.7496,5.8081,5.8634,5.9099,5.9099,5.9099,5.9099,5.9099,5.9099,5.9099,5.9099,5.9099,5.9099,5.9099,5.9099,5.9153,5.9369,5.972,5.9796,5.9902,6.0114,6.0377,6.0377,6.0481,6.0638,6.15,6.2778,6.4492,6.5845,6.6525,6.6812,6.6812,6.6812,6.6812,6.6812,6.688,6.7286,6.8132,6.891,6.9417,7.0195,7.1007,7.1312,7.1312,7.1312,7.1312,7.1312,7.1312,7.1312,7.1312,7.1312,7.0906,7.0466,6.9958,6.9316,6.8605,6.7793,6.7184,6.7049,6.6812,6.6812,6.6812,6.6812,6.6812,6.6235,6.5248,6.5114,6.4934,6.4629,6.4447,6.4856,6.5382,6.6311,6.6397,6.5767,6.5548,6.6105,6.6525,6.677,6.6812,6.677,6.6812,6.6981,6.7083,6.7252,6.7523,6.7996,6.8098,6.8436,6.9147,6.9823,7.0297]}]]